GFSMA_850_spd_000.txt.gz
Wind_Speed
17 18 19 19 20 20 20 20 18 17 18 17 17 17 16 16 15 15 16 16 17 21 22 19 21 20 20 18 17 22 23 23 26 28 29 30 27 26 24 26 26 27 28
19 19 19 19 20 21 21 21 19 17 16 17 17 17 16 16 16 15 15 15 17 18 19 22 24 23 23 24 24 23 21 25 26 28 30 32 32 31 28 28 30 30 30
18 18 19 20 19 21 21 21 21 21 19 17 16 17 16 16 16 16 17 17 16 15 17 20 21 23 26 25 27 28 29 26 25 29 31 34 36 35 32 31 33 34 34
17 18 20 19 17 18 19 21 21 21 20 19 18 18 17 15 15 16 17 17 16 15 14 12 15 18 21 23 25 28 30 30 30 29 28 32 35 36 36 35 36 38 37
20 21 21 20 19 19 19 21 22 21 21 22 22 21 18 15 13 15 16 16 16 13 13 11 11 11 15 21 27 27 29 32 34 33 32 31 34 38 37 40 40 40 41
25 26 26 25 24 24 24 24 24 24 24 24 24 24 21 19 14 16 19 17 21 19 17 16 14 13 14 15 18 21 27 28 31 33 35 37 32 34 46 48 45 44 43
30 32 33 32 30 31 29 27 27 28 29 28 28 30 28 24 20 21 25 23 22 24 23 19 17 16 15 15 15 16 19 24 26 29 33 29 38 35 21 54 46 51 49
32 36 39 39 39 38 37 35 34 34 33 33 31 31 29 25 30 30 31 30 28 28 26 24 24 23 21 19 15 14 18 20 24 23 25 34 38 33 41 34 44 56 51
34 36 35 39 43 44 44 42 42 40 39 37 35 29 13 19 25 25 26 32 32 32 32 27 26 25 23 21 18 17 15 18 22 24 26 30 33 34 34 33 28 46 49
31 31 32 32 35 44 49 48 46 44 42 40 38 34 33 32 23 21 26 27 30 32 33 30 27 25 21 18 17 20 20 19 23 25 25 25 28 31 34 41 31 36 42
35 35 35 36 36 36 43 50 47 42 39 37 35 28 26 22 17 14 18 24 32 37 37 32 29 27 23 17 13 13 16 17 18 24 25 25 26 25 27 39 39 35 32
40 38 36 34 36 36 37 35 36 29 25 23 20 17 13 7 8 10 16 25 30 40 37 34 31 28 24 15 13 14 16 16 16 17 16 21 22 24 25 26 29 25 29
36 35 32 28 27 20 21 24 25 25 21 18 13 13 17 18 21 22 23 26 29 30 35 36 31 25 23 14 15 16 10 10 6 7 7 12 17 18 22 31 25 11 13
32 30 28 19 17 17 16 8 5 7 12 15 23 24 26 26 21 14 19 22 27 29 27 29 31 28 26 21 15 14 13 16 9 10 9 8 7 10 17 19 35 24 23
29 22 16 11 7 9 10 19 18 17 27 23 22 16 17 17 15 17 20 21 21 25 29 29 31 29 23 22 21 23 20 19 18 16 15 8 3 6 8 11 17 35 20
19 9 7 7 12 15 17 22 24 18 16 13 13 14 16 18 20 23 25 27 28 29 33 32 30 31 26 22 24 25 24 23 21 17 17 15 16 13 11 11 8 9 14
7 6 8 11 16 18 15 12 12 12 14 17 19 21 25 25 26 26 26 26 27 26 29 34 30 28 29 25 26 27 30 32 31 26 20 20 21 21 19 13 12 13 14
6 7 14 12 8 13 18 19 19 20 22 23 25 27 27 27 28 27 26 26 26 25 26 31 30 26 25 26 26 26 28 34 36 36 34 29 26 23 19 21 15 16 18
9 11 13 15 16 16 21 22 24 25 26 27 28 28 27 26 26 26 26 28 29 29 30 32 34 33 32 31 30 29 31 32 34 36 36 36 34 32 26 25 23 22 22
14 17 19 16 18 22 22 26 29 29 29 27 26 26 27 28 31 33 35 37 38 38 38 40 41 41 36 37 37 37 40 40 40 38 38 37 36 35 34 33 28 24 24
22 18 20 16 19 23 28 30 29 26 26 28 30 32 34 35 35 36 36 37 35 34 32 30 31 30 29 29 32 36 37 38 40 37 37 38 37 36 34 32 30 27 21
22 23 21 20 25 28 29 26 25 25 28 31 34 37 39 37 34 31 27 25 25 26 28 29 30 31 31 29 28 29 32 33 37 33 33 36 33 35 31 29 28 29 28
22 21 24 27 27 25 23 23 25 28 33 36 38 36 34 31 29 28 28 27 27 27 29 31 33 33 33 29 26 25 24 26 30 30 27 30 25 27 25 27 24 25 27
25 25 25 25 25 25 25 28 31 34 35 34 32 31 30 27 25 25 25 26 28 28 28 28 30 30 31 31 28 26 26 27 28 28 28 32 29 31 28 30 33 24 22
25 26 24 25 26 28 30 31 30 31 32 30 28 24 23 22 22 23 24 28 28 27 24 25 27 28 27 26 27 26 28 28 29 29 25 28 31 30 29 28 30 33 28
24 24 26 27 29 29 28 28 27 29 30 28 24 25 21 22 24 26 25 27 29 28 27 28 27 24 24 25 25 26 27 29 29 25 26 25 23 21 23 22 23 31 29

GFSMA_850_spd_003.txt.gz
Wind_Speed
14 17 19 19 20 20 20 20 20 19 17 16 15 14 14 12 12 12 12 12 12 14 15 17 20 18 17 16 16 16 19 21 22 24 26 26 25 25 22 21 21 21 25
16 18 18 18 18 19 19 20 19 18 18 17 17 16 16 15 14 13 12 12 12 12 11 13 16 20 21 19 20 20 19 17 21 23 25 29 30 29 28 25 24 25 26
16 18 19 19 19 19 19 19 18 18 18 18 17 17 17 17 16 13 13 12 11 11 12 11 12 15 18 20 23 21 21 23 21 22 24 26 29 30 32 30 28 29 30
18 19 19 20 19 20 21 21 21 22 21 19 18 18 18 18 16 14 11 13 13 12 11 12 13 13 13 16 19 23 23 23 26 25 26 24 28 30 32 33 33 31 33
19 22 24 26 25 25 25 24 23 23 23 23 23 22 21 20 19 15 12 13 17 15 14 14 13 14 15 16 16 17 21 23 25 28 28 29 28 27 31 34 36 36 35
24 26 29 31 31 32 32 30 30 30 28 26 27 27 26 24 23 21 19 15 20 19 16 15 15 15 16 18 19 19 18 16 17 25 29 31 27 34 33 30 37 36 38
25 26 29 33 36 39 41 41 38 36 35 33 32 31 32 31 29 27 24 20 21 27 23 18 17 17 19 17 18 20 20 20 16 21 24 26 34 30 33 38 32 38 35
29 34 35 35 35 37 38 40 45 45 44 41 39 27 21 24 25 28 25 23 22 26 25 23 20 20 19 21 20 19 20 20 19 19 20 25 24 30 31 30 37 36 27
34 33 33 34 35 34 34 34 39 45 50 46 45 36 19 24 21 22 26 24 25 26 27 23 23 22 19 17 17 18 20 21 20 20 18 22 26 26 29 29 34 33 40
36 37 37 36 36 36 38 37 37 39 42 47 40 48 45 37 23 25 26 27 28 25 26 26 23 24 19 15 14 15 16 20 21 20 20 19 22 23 21 26 32 31 32
38 37 36 34 34 34 35 36 37 38 38 41 39 35 35 35 34 23 25 23 24 22 23 26 23 24 21 17 13 14 14 13 15 16 18 19 19 20 20 22 25 28 34
40 37 33 30 27 27 26 26 24 20 15 17 23 26 24 23 16 11 12 14 16 19 22 26 23 20 23 16 14 14 13 11 9 12 14 16 17 16 16 19 22 26 32
36 31 27 25 23 21 19 12 4 9 8 4 6 6 8 11 17 17 20 21 20 21 17 17 22 17 12 13 14 17 15 14 10 9 11 11 10 11 12 15 20 28 27
30 25 23 18 14 10 4 5 8 9 9 13 14 18 16 15 15 17 17 16 15 17 19 19 15 16 15 14 14 18 19 17 15 14 15 9 10 9 9 12 15 20 31
20 17 14 9 6 5 6 8 14 17 24 18 16 20 21 19 16 13 18 19 15 18 23 21 24 19 18 17 16 17 21 24 19 16 19 13 12 12 9 10 12 15 20
10 8 9 7 3 3 4 7 11 13 12 11 12 11 10 11 14 15 16 17 18 22 29 26 25 23 22 22 21 21 22 28 27 24 20 19 21 19 17 15 13 15 16
9 8 9 11 12 17 20 15 12 13 17 16 16 16 17 19 19 16 17 19 21 22 26 30 24 23 24 23 23 23 24 25 24 28 32 26 22 28 28 20 19 16 17
7 9 14 19 23 20 14 16 18 18 19 21 21 22 22 22 22 23 23 21 19 20 23 28 26 24 24 23 21 21 22 23 23 26 32 36 36 34 28 28 27 22 19
14 17 21 22 20 17 17 19 19 22 25 26 25 23 21 21 22 22 24 23 22 23 25 28 29 27 26 26 28 28 27 28 29 30 35 36 35 36 35 33 30 30 26
18 21 17 18 22 21 20 21 25 29 28 25 23 23 24 25 26 28 27 27 26 26 27 28 29 29 28 27 28 29 30 28 30 30 33 35 36 34 36 35 35 34 33
22 22 23 24 24 23 24 28 30 27 24 24 25 28 30 31 31 31 27 25 24 25 26 26 27 26 27 24 26 26 29 28 29 28 29 31 29 28 28 32 34 34 35
23 23 22 23 26 26 25 24 23 23 24 26 28 31 31 32 30 28 26 24 24 24 26 26 25 26 26 25 24 24 25 25 28 22 27 30 26 29 27 26 28 32 32
24 23 22 23 24 23 22 21 22 25 27 30 30 27 27 25 24 20 20 21 23 25 27 28 29 29 29 25 23 23 23 23 25 21 21 23 21 22 22 24 29 28 28
25 26 24 22 23 23 24 25 26 27 27 27 27 27 23 21 18 18 18 20 21 23 23 24 26 27 27 26 28 27 26 25 24 22 21 25 20 22 20 20 24 29 32
25 24 24 25 25 25 24 25 26 24 23 24 25 20 18 19 19 18 19 22 24 24 22 22 22 23 23 24 24 24 27 27 26 24 22 23 22 24 25 27 28 29 31
25 25 26 25 25 25 26 25 23 20 22 21 20 19 20 18 19 17 21 24 24 22 21 21 20 22 23 23 24 26 27 26 24 21 20 21 18 17 18 17 19 23 27

GFSMA_850_spd_006.txt.gz
Wind_Speed
11 12 13 14 14 14 14 14 14 15 16 15 13 13 11 11 11 7 7 13 13 12 12 13 16 18 17 16 17 17 18 21 21 23 25 26 26 25 24 22 20 20 21
11 12 13 13 13 13 13 13 14 15 13 14 13 14 13 10 9 10 7 10 12 11 12 14 14 16 18 20 19 19 18 16 19 22 23 26 28 28 27 26 24 23 23
12 14 13 13 14 14 17 15 15 16 16 14 15 15 15 13 10 12 10 7 8 9 10 11 14 15 16 18 20 22 21 21 22 17 19 24 26 30 30 30 29 26 26
14 16 15 16 17 20 18 18 18 17 17 15 15 15 14 14 13 14 11 9 7 6 10 11 12 13 14 16 17 18 21 26 23 23 24 23 24 27 30 33 34 32 30
17 19 21 22 21 21 23 21 21 21 21 20 19 18 18 17 16 14 14 13 12 10 7 11 11 12 15 15 17 18 17 19 24 24 23 26 29 28 29 31 34 34 35
20 22 24 26 26 22 24 24 25 25 25 26 26 24 22 21 19 19 17 16 15 12 9 8 8 8 12 15 17 19 20 19 19 19 25 27 26 30 34 29 31 33 35
28 30 31 29 28 24 26 31 28 28 29 28 27 29 29 26 25 24 23 22 20 17 15 11 10 8 8 15 15 19 20 22 21 23 25 29 26 24 27 32 33 32 33
31 28 27 27 26 25 25 26 27 28 29 28 31 30 33 33 31 26 25 25 24 21 18 14 12 16 16 9 14 17 20 23 24 23 22 24 26 25 22 28 32 36 37
30 29 29 30 31 29 25 25 26 27 32 31 29 32 26 34 31 30 25 23 23 22 19 18 13 13 13 14 14 14 19 21 24 26 26 24 27 26 24 24 24 27 33
32 33 34 34 34 32 27 24 24 26 27 34 31 32 39 40 37 33 25 23 24 23 20 18 16 12 11 10 12 16 19 21 23 25 27 28 27 28 26 24 22 24 27
29 32 35 35 33 31 26 30 27 21 22 26 29 30 31 33 34 33 36 22 23 22 21 17 15 14 14 12 12 13 18 21 24 25 25 27 28 29 27 23 24 24 23
26 25 31 29 28 25 18 16 15 13 11 8 9 10 12 13 15 22 29 35 31 22 20 15 15 15 16 14 14 19 17 20 23 26 26 25 23 23 25 25 22 24 24
27 25 28 17 13 12 9 7 8 7 9 11 10 12 9 9 11 12 9 14 15 22 22 18 16 17 16 14 14 17 16 20 20 19 22 21 24 23 23 22 20 21 25
27 25 14 11 11 11 11 10 9 6 7 8 11 17 22 25 23 14 11 10 13 15 20 20 19 18 15 16 16 20 16 18 22 21 20 20 21 22 21 22 23 22 23
19 15 13 11 7 5 4 5 7 11 6 9 11 11 11 13 14 14 11 9 10 14 18 16 18 17 17 16 16 16 15 18 21 23 23 22 18 20 21 21 22 22 21
13 11 8 7 7 8 10 14 22 20 13 15 13 10 12 12 13 13 13 14 16 19 23 19 19 19 20 20 19 20 20 23 25 28 26 25 26 23 22 22 20 19 21
12 10 10 11 12 17 26 25 14 11 11 11 12 14 16 16 17 17 17 18 20 20 25 24 22 22 23 23 23 22 22 23 23 25 26 30 31 29 32 32 28 25 20
11 11 13 18 24 18 15 14 14 15 15 16 16 17 18 18 18 18 18 19 20 21 23 26 25 24 24 24 25 25 24 23 24 24 27 28 32 36 37 34 34 37 31
16 18 18 18 16 17 18 17 16 16 19 20 20 19 18 17 17 17 18 20 21 22 23 25 28 26 25 25 27 27 27 27 28 29 31 32 34 38 37 39 42 37 36
16 17 20 20 19 19 19 19 18 20 20 20 17 16 17 18 19 20 21 22 23 25 25 26 28 28 26 26 27 29 30 28 29 28 29 31 31 29 28 31 39 42 41
18 18 18 18 18 19 19 21 18 18 20 20 20 20 20 21 26 29 27 24 24 25 26 26 27 28 27 26 28 28 30 28 29 28 30 30 29 29 30 35 40 41 42
17 17 18 18 19 18 21 22 22 19 20 22 24 23 23 25 24 25 28 28 25 25 27 26 26 27 27 25 23 23 25 26 28 24 28 32 29 29 29 29 30 30 27
18 19 19 18 18 17 23 26 27 25 23 23 24 24 24 23 24 22 23 25 25 25 26 26 27 28 27 24 22 23 23 24 26 23 23 26 22 23 27 27 30 32 34
20 19 19 18 20 20 25 28 27 25 21 23 23 23 24 24 22 22 21 21 21 21 22 24 25 26 26 25 24 26 27 26 26 27 23 27 24 26 24 27 29 29 28
20 19 19 20 22 22 23 26 26 22 21 23 22 21 21 22 21 22 21 22 22 23 23 27 27 27 29 29 28 24 24 25 30 30 25 26 26 26 25 27 27 27 27
21 19 20 20 22 21 21 24 20 20 21 21 21 20 20 20 20 20 19 21 24 24 23 23 21 21 24 25 25 28 27 28 27 23 22 25 23 21 23 22 22 23 26

GFSMA_850_spd_009.txt.gz
Wind_Speed
8 10 11 12 13 13 14 14 14 14 14 13 13 12 11 11 11 10 12 17 15 13 13 13 14 15 15 17 19 19 21 22 24 24 26 26 25 24 25 23 22 21 21
8 10 11 12 13 13 14 15 15 16 15 14 14 14 14 13 13 13 11 17 17 15 14 15 16 17 18 17 18 20 20 20 19 26 27 27 27 28 28 26 25 23 22
10 12 12 13 15 16 18 18 18 19 19 18 18 18 17 16 15 14 14 12 16 16 14 14 15 17 18 19 17 19 22 22 22 21 20 29 29 30 30 29 28 28 25
11 14 14 15 17 19 20 20 21 21 21 22 22 21 19 20 18 18 17 15 15 15 16 16 13 14 17 18 18 18 18 21 23 23 25 27 23 29 31 32 31 31 29
12 16 18 21 22 21 23 23 24 24 24 25 26 27 26 24 23 22 21 20 20 21 16 18 16 14 15 17 19 19 18 18 20 24 25 22 21 29 24 27 33 34 34
14 19 20 21 22 20 22 24 26 27 29 30 31 31 32 31 29 27 25 25 24 23 20 21 19 17 14 16 16 19 21 20 19 21 22 28 24 24 28 29 26 31 33
23 24 18 17 19 20 23 27 29 29 30 30 31 33 34 36 36 35 32 29 27 26 25 21 21 16 16 16 17 17 17 21 22 20 21 25 26 26 25 27 33 34 26
21 20 20 20 20 22 25 26 26 29 30 28 30 33 35 36 36 37 40 38 35 33 30 26 24 19 18 13 14 16 17 17 20 23 22 22 25 25 23 25 30 31 33
21 20 20 20 21 21 23 24 25 26 31 31 29 31 33 34 32 34 33 38 36 34 36 32 28 26 21 17 19 18 19 16 15 18 22 23 22 25 24 23 23 29 30
20 21 21 21 21 21 22 23 22 25 26 31 29 30 34 37 38 38 41 35 33 34 31 33 30 27 22 19 18 19 19 21 20 18 21 22 23 24 25 24 23 24 25
20 21 22 23 27 22 20 19 19 18 19 21 23 23 24 26 27 25 28 29 32 31 30 32 30 24 21 19 17 16 21 19 18 21 22 23 22 23 25 25 23 22 23
22 22 23 21 20 18 17 17 17 16 17 17 16 15 13 13 17 14 18 23 26 27 27 23 25 24 19 18 18 20 19 20 20 20 24 25 24 22 24 25 23 22 23
23 23 20 18 17 17 17 17 17 20 13 12 11 13 14 19 21 21 21 20 17 16 8 29 18 21 19 20 17 20 20 22 24 23 24 24 24 24 26 27 26 23 23
23 20 19 19 19 20 19 16 11 13 16 19 23 19 17 14 14 19 18 15 17 16 20 17 17 19 25 16 18 19 16 17 19 22 23 22 23 24 25 27 27 27 25
22 21 21 20 16 14 13 14 14 19 20 22 21 14 14 14 14 12 11 11 9 10 17 14 15 15 16 17 16 15 14 16 17 18 22 24 22 23 25 27 27 27 28
21 20 19 17 15 17 20 24 24 22 20 16 14 12 13 13 14 17 17 16 14 13 20 18 17 17 17 15 16 16 17 19 19 21 21 24 26 24 23 26 28 29 28
19 20 17 20 22 25 28 21 17 18 18 17 16 17 18 18 18 19 20 20 22 21 25 25 21 20 21 21 22 22 21 22 22 25 26 27 30 31 28 28 28 29 29
18 19 20 22 21 19 19 19 20 17 18 19 19 20 21 22 22 21 21 21 22 22 24 27 25 25 24 23 24 23 24 23 23 23 25 26 27 29 31 35 34 33 33
18 19 21 22 23 23 23 22 21 22 20 21 22 24 24 24 23 22 21 22 21 22 23 26 27 25 26 26 26 25 26 26 26 25 26 25 22 25 32 37 39 41 40
19 20 20 21 21 21 22 22 18 19 22 23 24 24 24 24 24 23 21 21 21 22 23 26 28 28 27 26 26 27 28 27 27 25 25 28 29 29 27 31 36 39 41
19 19 19 20 20 21 22 21 23 23 22 23 24 25 26 25 26 30 30 28 24 23 24 26 28 29 28 26 26 25 26 25 25 23 24 27 26 27 31 31 33 38 38
19 19 20 21 21 21 24 28 30 30 26 25 25 25 26 27 26 25 25 29 29 24 24 26 29 29 26 25 23 24 24 24 26 26 27 31 27 29 29 28 24 24 27
19 21 21 21 21 21 25 29 34 33 26 25 25 26 26 25 26 25 25 25 21 24 25 25 28 28 28 26 24 24 25 24 23 21 22 26 23 26 28 27 33 34 30
21 22 21 20 21 22 26 32 34 31 24 24 24 25 26 25 25 25 22 23 24 23 22 23 25 26 24 24 25 28 27 27 27 24 22 27 26 28 27 28 30 31 34
22 22 19 21 23 24 25 29 31 26 22 24 23 23 23 25 26 27 24 23 23 23 22 24 27 29 31 31 30 30 28 24 25 26 25 28 31 31 28 30 30 30 32
22 21 20 23 24 25 24 28 26 26 25 23 22 23 23 23 24 22 23 24 24 21 22 25 25 24 22 24 25 31 29 30 31 29 22 24 26 25 25 24 25 25 26

GFSMA_850_spd_012.txt.gz
Wind_Speed
7 7 9 9 10 12 13 15 18 15 17 18 15 17 21 16 15 16 16 18 21 22 18 16 15 15 15 15 15 17 19 19 20 25 25 31 25 25 26 28 27 26 24
10 11 13 14 12 13 16 21 18 21 22 23 20 16 20 23 21 18 18 20 22 21 22 19 19 18 18 19 19 19 20 21 20 21 21 23 30 29 29 29 29 28 26
10 13 16 16 14 16 21 24 20 21 22 23 24 24 22 24 25 21 19 23 22 23 23 21 20 20 19 20 20 20 21 22 22 21 21 22 32 31 31 30 31 30 27
13 15 15 18 19 24 28 27 26 22 24 25 26 27 27 28 27 27 27 26 25 25 25 24 20 20 21 20 21 21 21 22 23 23 23 23 22 26 34 32 31 32 30
13 15 18 22 25 28 28 26 24 23 24 26 30 30 29 28 28 29 29 29 30 24 26 24 25 22 21 20 20 22 23 22 23 23 24 25 25 22 26 26 30 32 33
14 18 22 21 21 25 25 22 25 28 29 29 29 30 33 33 34 32 31 32 32 31 30 33 27 27 26 26 25 23 23 23 22 23 24 23 22 21 20 31 30 29 36
20 27 24 22 25 21 23 24 27 28 28 28 28 31 31 32 32 33 34 36 37 36 36 37 39 33 28 26 25 25 25 24 23 22 22 24 25 20 22 23 28 35 30
24 34 24 22 21 25 27 25 24 28 31 28 27 30 34 36 32 30 30 35 41 42 45 42 40 38 28 27 27 26 26 24 23 21 20 21 23 25 20 20 25 26 28
40 21 20 22 24 28 30 30 25 24 26 26 23 23 31 31 31 31 34 36 35 29 36 33 34 40 37 33 24 25 27 24 23 22 18 17 19 22 23 22 20 23 26
15 19 22 23 24 27 30 23 22 24 25 25 22 16 20 23 21 28 27 26 29 27 24 36 41 37 40 40 37 25 26 28 25 22 19 16 16 18 22 22 21 21 22
20 26 24 26 29 29 24 23 21 20 19 19 20 22 28 31 31 25 27 25 30 29 29 25 31 30 23 20 26 29 27 25 26 22 20 18 16 18 20 21 21 21 20
27 24 25 26 24 18 18 20 22 21 22 25 24 24 17 21 19 16 23 35 31 36 31 29 29 24 23 22 23 23 21 28 29 26 22 19 18 20 20 21 21 21 20
22 26 23 21 19 20 23 26 24 24 24 24 24 23 26 26 21 18 16 24 30 34 32 31 26 19 32 29 19 14 26 19 23 24 24 24 22 21 22 21 21 22 22
22 19 20 22 20 21 19 22 24 25 26 26 28 23 26 24 16 18 20 19 21 21 20 24 22 23 18 18 18 13 8 17 16 22 24 24 22 21 21 20 22 24 23
18 21 24 21 24 28 26 23 25 27 31 30 26 24 18 17 16 16 17 20 19 17 21 15 19 21 22 24 22 17 10 10 12 16 19 22 23 19 21 21 22 23 23
29 23 21 23 21 22 21 25 29 27 18 21 22 21 18 18 17 18 20 22 23 24 28 25 23 22 20 19 20 9 9 15 18 15 17 19 20 20 21 20 22 23 23
24 22 23 26 25 26 25 24 25 25 23 23 22 22 22 20 20 20 22 20 22 22 26 26 21 20 20 16 16 20 19 17 17 22 23 27 27 29 26 24 23 24 24
21 20 21 23 24 22 22 23 24 24 25 23 22 23 26 25 25 24 21 21 21 21 24 29 25 23 24 25 23 20 19 19 21 21 21 23 24 24 26 28 30 31 29
20 21 23 23 24 23 23 23 23 20 20 22 23 26 24 26 27 28 26 26 25 22 23 23 25 24 24 23 25 23 22 22 21 25 26 26 24 23 27 30 29 30 35
22 22 22 22 22 23 24 24 22 25 29 33 36 30 30 26 26 26 25 21 24 27 28 30 31 28 25 26 24 26 28 27 29 25 25 26 25 25 24 26 29 32 34
21 20 22 23 24 24 23 25 30 32 33 35 37 33 27 26 28 26 26 27 25 26 29 30 30 25 23 22 22 19 17 15 16 17 18 23 25 22 15 22 28 31 32
20 22 22 24 23 21 24 29 32 33 34 36 39 34 25 26 26 25 23 25 25 26 26 27 27 27 29 27 27 22 20 19 20 21 21 25 28 30 28 25 21 19 28
21 23 25 22 19 19 24 32 35 36 36 37 30 27 29 28 27 26 24 25 26 22 22 25 25 29 30 27 28 33 32 26 23 21 24 24 26 29 31 34 36 33 31
22 24 22 21 22 29 33 30 32 31 35 32 27 27 27 27 26 25 26 27 26 27 29 26 29 28 26 24 25 25 25 27 30 31 26 29 29 32 30 32 33 31 31
23 20 21 23 28 32 32 28 27 33 29 31 30 24 24 26 26 22 23 24 24 23 21 21 25 27 25 26 29 32 35 33 34 27 21 26 29 30 31 33 32 32 31
18 24 28 28 32 30 25 26 29 27 28 31 30 28 26 24 27 25 23 23 24 23 20 27 30 33 34 33 29 24 27 31 33 32 31 28 25 22 26 27 27 25 25

GFSMA_850_spd_015.txt.gz
Wind_Speed
4 7 10 11 11 11 13 17 21 25 21 22 23 23 23 21 21 18 19 18 17 19 21 20 18 19 19 19 20 20 19 19 20 20 23 26 24 25 23 26 26 27 26
6 9 11 12 13 15 16 20 23 24 22 23 24 24 24 25 26 24 23 21 21 22 23 21 20 20 22 21 22 22 23 22 21 21 21 24 27 29 40 30 28 29 30
8 8 10 12 14 17 21 24 27 24 23 23 23 25 24 26 28 31 31 28 26 25 23 24 23 22 20 21 22 23 23 24 23 23 21 21 25 28 37 32 32 32 33
12 13 12 13 18 21 24 27 25 23 23 22 23 24 25 27 27 26 29 32 31 31 30 26 25 25 22 22 23 24 23 24 23 24 24 23 23 29 36 33 34 34 35
12 15 14 22 30 28 27 27 28 26 27 28 31 31 29 27 27 28 28 30 31 34 34 32 28 27 27 27 24 24 23 24 24 23 24 25 26 27 29 34 37 36 35
15 16 22 35 36 33 31 28 27 28 29 29 29 31 31 30 28 26 26 25 28 30 36 39 36 34 34 31 28 29 28 26 26 25 25 24 25 28 27 28 27 35 46
19 26 28 28 25 28 28 28 28 26 28 29 33 34 34 32 29 28 27 25 25 26 31 40 43 40 39 37 34 31 31 33 29 26 26 25 25 25 27 28 26 32 37
24 23 25 19 21 23 27 31 30 32 27 26 26 29 28 37 34 30 26 21 23 27 26 23 25 31 39 37 41 39 34 34 31 28 25 24 26 26 24 24 28 25 31
26 22 18 21 24 27 28 29 32 26 29 29 27 25 19 13 29 31 32 26 25 28 29 23 19 21 30 36 38 37 38 33 33 30 25 21 22 25 25 24 25 26 27
22 18 22 26 31 29 30 27 20 21 23 25 26 20 20 24 20 25 27 33 31 29 28 30 24 20 21 27 37 44 35 39 36 32 26 22 20 20 23 24 24 25 25
22 23 28 28 24 22 19 21 22 24 25 25 24 24 25 24 27 29 36 34 37 29 30 30 31 30 25 26 26 36 38 36 32 30 28 25 21 19 19 21 22 23 23
28 26 22 21 18 20 22 24 26 31 30 27 22 23 25 24 22 23 27 37 34 32 26 25 25 24 23 22 21 20 22 21 24 26 29 26 22 20 19 18 20 21 22
23 21 21 23 26 24 23 23 23 24 23 24 29 29 28 31 26 25 24 27 28 31 26 19 18 17 16 18 24 29 15 19 24 20 24 25 26 22 20 19 20 20 20
18 19 21 29 22 24 25 25 22 22 25 28 29 29 26 25 22 21 21 22 24 18 24 22 18 17 19 20 20 16 21 32 28 16 16 21 25 24 21 20 19 20 21
19 26 31 24 25 29 27 27 28 27 25 23 21 22 22 24 21 18 16 20 21 22 27 24 24 19 18 24 20 22 18 19 15 21 10 14 20 20 18 18 17 18 23
29 31 23 21 23 23 24 23 23 22 22 21 21 20 22 23 25 25 20 18 16 20 27 25 24 19 16 15 14 18 19 16 8 5 5 10 13 17 19 18 17 19 21
27 20 17 17 22 22 22 24 24 24 23 23 19 18 19 18 20 25 27 24 26 25 24 28 24 18 17 18 12 14 16 15 9 6 11 16 17 17 20 19 18 17 17
19 15 17 23 22 22 24 23 24 25 26 25 24 26 26 29 31 25 22 26 26 24 26 30 30 27 21 16 18 13 13 13 12 13 13 16 17 16 16 15 18 22 24
21 19 20 21 21 24 26 26 26 26 25 29 32 34 34 32 31 29 24 24 27 26 23 26 30 30 30 27 26 27 24 22 21 22 19 19 20 19 18 19 24 23 23
19 18 18 19 23 24 24 23 26 30 34 37 35 35 36 36 33 29 26 26 26 28 28 30 31 32 32 34 30 23 23 22 24 23 24 22 20 22 20 18 20 24 27
15 13 17 21 20 22 25 27 30 33 36 40 39 38 38 33 24 20 22 22 20 23 23 26 26 27 26 23 22 21 20 17 16 14 15 13 20 21 20 20 21 22 24
14 16 20 19 19 21 26 29 31 35 36 32 31 35 33 28 23 23 24 24 23 23 24 23 24 25 27 26 24 25 31 30 26 21 21 22 20 22 21 21 20 23 26
13 19 18 18 19 27 26 28 34 31 29 30 32 31 32 26 22 23 24 25 25 21 19 19 20 21 22 25 22 21 19 20 21 25 28 29 27 27 27 28 29 28 29
18 16 15 20 25 23 27 29 28 29 31 30 28 29 30 26 24 24 24 24 24 26 23 21 22 26 23 23 21 21 22 24 25 23 21 28 29 30 28 29 28 26 26
17 13 21 24 25 27 26 28 29 31 28 29 27 30 27 26 22 21 23 22 21 21 21 19 18 21 22 23 21 20 23 25 29 30 26 28 25 23 26 29 29 30 30
12 19 21 23 26 27 28 26 27 25 24 27 33 34 24 19 20 18 19 21 23 22 22 21 21 24 27 31 32 32 33 31 27 27 25 24 25 26 29 23 20 18 19

GFSMA_850_spd_018.txt.gz
Wind_Speed
1 1 2 3 5 7 11 14 17 21 23 21 20 21 19 19 20 21 19 20 20 19 17 19 22 21 20 21 22 22 21 21 21 22 22 23 29 28 26 29 26 25 25
6 5 5 6 8 11 15 18 21 23 25 24 25 21 20 20 19 19 21 24 26 26 24 21 20 19 21 22 23 24 24 24 24 24 23 23 24 29 28 28 28 26 27
12 11 10 11 11 14 18 22 27 29 29 28 27 25 22 22 23 23 23 21 20 26 29 28 26 23 21 21 22 22 24 25 25 24 25 24 24 26 30 30 31 29 37
13 12 13 16 18 21 25 34 39 35 32 30 30 29 29 28 27 25 24 25 24 24 23 29 32 30 27 25 22 22 25 27 25 24 23 24 25 25 28 33 39 38 39
11 13 16 19 27 35 35 37 32 28 28 29 30 30 30 30 29 27 24 24 25 25 24 24 27 33 33 30 26 26 25 26 28 27 26 23 24 26 26 30 33 36 36
10 15 19 27 34 30 33 30 29 30 29 30 33 33 32 31 30 27 21 20 21 24 23 24 27 26 34 37 33 30 29 26 27 31 30 27 24 25 27 30 31 37 36
16 20 26 30 29 26 23 25 31 32 34 36 37 38 39 35 17 19 28 21 22 21 20 22 21 20 22 28 38 35 33 32 30 31 33 35 28 25 25 28 31 32 31
23 26 28 23 21 23 25 29 33 35 34 29 30 33 24 36 24 18 28 20 22 24 25 23 18 18 22 22 24 34 37 36 32 34 35 33 33 27 26 26 27 30 31
22 25 20 21 25 28 30 29 26 24 25 25 25 24 21 18 27 28 30 27 29 33 32 32 32 27 19 22 26 27 29 36 35 33 36 35 35 30 27 26 26 27 29
23 22 27 29 27 23 24 23 22 22 22 23 25 20 20 20 18 27 24 34 37 37 30 26 24 25 26 25 23 27 35 37 41 37 37 35 32 32 29 27 26 27 26
20 27 25 19 23 22 22 22 22 22 23 24 19 24 26 28 28 27 32 26 34 31 30 21 20 17 16 18 19 24 31 35 40 39 33 33 31 29 30 27 27 26 26
28 25 21 23 23 28 23 20 19 19 20 16 19 24 28 27 26 27 28 38 33 33 27 19 12 14 11 13 13 16 20 29 34 35 33 25 26 28 28 28 26 22 24
22 21 22 24 29 22 20 20 21 19 21 25 25 25 25 26 26 26 25 29 26 28 27 18 10 13 12 14 17 17 16 20 27 37 39 41 22 23 26 27 26 26 21
23 18 21 26 23 21 20 19 19 20 19 17 18 18 21 20 20 22 22 19 23 19 22 20 17 12 14 14 12 13 17 16 21 33 29 30 18 15 21 25 24 24 26
19 20 23 23 21 19 20 19 18 19 20 17 18 20 19 21 21 20 22 23 21 16 18 13 15 12 13 13 13 14 16 19 18 21 25 28 28 17 15 17 20 21 23
22 21 27 23 17 16 20 19 20 21 19 21 20 19 16 17 19 19 22 24 24 22 21 24 24 21 14 17 13 13 14 16 21 15 24 24 15 11 20 24 12 15 19
22 21 25 21 21 25 22 22 23 23 24 23 23 24 26 30 31 32 32 30 26 21 26 27 23 24 25 21 20 19 14 12 14 21 12 13 15 12 10 12 19 16 17
19 20 20 20 23 23 23 25 26 25 24 26 26 30 34 34 33 31 30 29 28 25 22 25 23 24 25 21 21 22 20 16 13 11 17 17 10 11 16 14 12 13 18
30 13 19 24 21 20 25 24 27 24 25 28 29 33 37 36 36 35 33 31 29 27 23 24 27 26 27 27 26 25 25 27 27 24 17 18 16 16 12 12 13 17 17
24 11 17 15 19 21 22 25 25 27 28 31 33 35 29 29 30 29 25 24 22 24 26 27 25 25 22 23 24 24 24 22 25 20 18 18 21 16 17 19 21 18 17
16 12 11 16 20 20 20 24 28 28 32 34 29 27 29 27 28 23 20 23 21 21 22 22 24 22 21 22 21 20 20 22 21 18 14 11 14 19 19 18 17 19 20
6 13 14 17 19 17 25 24 28 32 30 28 29 30 28 29 27 22 20 19 22 21 21 18 19 20 20 21 21 18 20 20 23 24 22 21 16 12 11 14 15 16 20
6 11 15 17 17 24 22 27 28 28 28 29 28 28 28 26 26 21 21 20 20 21 22 22 22 20 19 20 19 23 23 18 19 19 23 29 27 25 21 18 18 20 21
13 12 11 17 23 22 25 27 29 29 29 30 26 27 29 28 22 20 19 22 20 18 17 19 21 22 21 20 20 19 18 18 20 19 17 25 27 28 29 29 28 27 27
11 7 18 20 22 25 26 27 29 29 27 27 28 28 23 22 20 17 20 21 18 18 17 16 15 18 19 18 17 17 18 17 19 23 22 21 24 25 23 25 26 29 29
9 15 14 18 22 24 25 26 25 28 28 26 25 23 20 17 17 18 18 19 22 23 19 18 20 22 22 24 24 26 29 31 31 33 32 25 19 16 20 27 25 17 19

GFSMA_850_spd_021.txt.gz
Wind_Speed
5 5 6 7 8 9 12 14 18 20 22 26 27 26 22 19 16 16 17 17 18 19 21 22 21 21 19 19 19 19 19 20 20 20 21 23 24 24 28 25 28 26 25
8 8 8 8 11 13 15 19 23 27 30 33 34 29 25 22 21 20 19 21 20 21 23 23 24 24 22 21 21 22 22 20 19 20 22 22 23 23 25 31 28 29 29
11 10 11 11 13 16 19 26 33 33 35 34 30 28 26 25 24 23 23 23 24 26 27 24 25 26 27 25 23 24 24 23 21 21 21 21 22 23 25 25 30 29 32
11 11 11 14 17 21 28 34 36 38 32 28 28 27 26 26 26 25 24 24 23 22 24 24 27 28 27 28 29 26 25 25 25 22 21 20 20 22 22 23 26 30 32
11 13 17 20 22 28 32 33 33 30 30 31 32 31 30 30 29 28 27 25 23 22 23 23 26 27 29 30 30 31 30 27 27 28 25 23 22 21 22 23 24 28 34
13 16 18 23 29 30 32 34 32 31 33 36 34 31 29 27 24 19 17 19 23 25 24 22 22 24 25 28 33 34 34 34 30 29 30 28 26 22 22 23 24 25 26
17 22 25 29 32 34 34 32 33 34 35 31 31 32 30 10 16 22 17 19 24 24 23 24 25 24 25 26 25 30 37 38 34 32 32 32 31 28 24 24 25 26 27
26 24 30 32 31 29 30 30 31 29 26 25 26 29 17 28 8 21 24 18 26 28 29 32 34 34 31 26 27 27 27 35 38 32 32 33 33 32 29 25 25 25 26
18 20 22 23 27 28 24 22 24 24 24 23 22 21 16 10 29 24 30 28 22 35 33 32 32 31 30 31 32 29 28 28 31 37 40 34 34 33 33 28 27 27 26
21 21 24 33 26 23 25 25 24 23 22 22 22 16 15 21 22 26 18 35 37 34 32 30 26 24 21 21 24 30 32 29 30 30 33 36 36 34 35 32 27 28 28
26 35 30 21 25 28 28 23 20 19 19 19 18 21 27 26 27 25 31 26 29 31 28 29 21 14 11 9 11 19 24 30 32 29 33 36 35 32 38 33 27 27 29
29 26 25 26 26 27 24 21 19 18 18 20 22 21 18 20 23 25 27 29 26 27 22 24 12 10 9 9 9 10 14 23 30 30 28 25 30 37 38 32 25 24 28
28 25 25 23 24 24 21 19 20 20 19 18 18 18 18 20 23 26 26 27 19 22 22 17 12 10 9 9 10 10 10 12 17 20 21 22 30 35 38 30 27 22 25
26 22 18 20 21 21 20 19 19 18 18 21 20 20 20 22 21 20 21 23 26 20 20 16 15 7 9 11 10 10 9 9 12 15 24 19 21 32 33 40 29 23 25
23 18 20 17 23 15 19 20 18 19 19 19 20 20 21 22 20 20 23 23 20 20 23 22 20 17 14 12 12 13 14 14 14 18 18 24 22 23 27 25 24 24 22
19 22 26 32 20 17 17 19 18 19 23 23 22 22 23 24 26 29 31 32 29 22 26 25 29 23 20 18 19 17 13 13 14 17 20 18 20 27 30 18 16 14 15
28 25 26 19 19 19 19 18 21 23 25 25 26 24 26 29 32 35 33 31 31 28 28 32 26 23 21 21 22 20 21 18 14 13 16 21 17 22 17 14 23 17 9
28 28 32 22 18 19 19 20 22 24 25 26 26 28 32 35 37 33 30 30 29 28 28 31 28 21 22 22 23 23 19 21 23 21 19 18 23 14 16 16 14 12 25
28 31 30 21 15 20 19 23 24 23 23 27 28 33 35 33 31 30 30 30 28 24 24 25 28 29 25 22 22 23 23 24 22 24 22 21 19 19 15 13 15 18 12
27 24 21 15 13 15 22 20 20 25 27 28 33 32 29 28 30 29 29 29 25 25 21 23 24 24 24 22 22 22 21 22 24 24 18 16 18 19 19 14 13 16 17
23 22 15 10 14 17 17 19 24 27 30 32 31 30 29 28 25 26 25 26 25 24 24 22 19 19 21 21 21 20 20 19 19 18 21 16 12 14 18 13 15 13 16
20 19 13 11 15 17 19 22 27 29 30 31 31 31 29 28 26 27 28 22 22 23 24 26 26 21 18 16 18 19 19 18 20 17 15 20 18 14 13 18 16 16 16
12 7 12 14 15 18 20 25 28 28 29 30 29 28 28 28 26 24 21 18 18 20 20 22 25 25 24 21 18 19 20 21 23 19 17 21 20 23 21 17 15 16 19
9 11 13 11 16 20 25 27 28 28 29 30 27 23 23 22 21 20 21 24 23 19 15 17 16 18 22 22 22 22 21 21 21 19 17 21 18 18 22 24 25 22 19
11 7 12 16 18 23 24 24 25 29 30 25 21 21 19 18 16 21 20 19 20 21 21 22 21 20 20 14 17 16 19 16 18 19 17 18 21 17 17 21 23 23 25
8 12 12 17 21 21 21 23 26 27 25 22 21 19 15 17 20 22 20 19 20 19 18 15 16 17 19 23 23 24 23 25 24 28 26 24 26 23 16 13 18 20 21

GFSMA_850_spd_024.txt.gz
Wind_Speed
4 4 4 6 8 7 8 10 14 21 27 30 29 30 26 21 19 18 18 18 20 20 21 22 23 22 22 21 21 20 19 18 18 18 18 18 19 20 22 22 25 25 25
5 6 7 8 8 10 13 16 21 27 31 32 29 26 23 21 20 19 20 21 23 24 25 26 26 26 27 25 24 23 22 23 21 19 17 17 18 20 21 22 23 26 26
8 8 8 8 12 16 18 22 27 29 31 31 28 27 25 23 23 23 22 21 21 22 24 26 26 30 30 29 29 27 27 25 24 22 20 19 19 19 21 22 22 25 28
10 10 11 13 15 21 25 28 32 33 33 34 32 29 30 30 28 26 24 22 21 20 21 24 26 27 28 33 33 32 31 30 28 27 24 20 18 18 17 20 23 23 28
10 13 15 22 26 25 27 30 32 35 36 34 32 30 27 24 24 23 19 17 16 16 17 19 21 24 26 29 31 35 36 34 32 28 29 26 22 19 18 18 20 24 24
14 17 23 22 22 25 27 31 34 35 34 33 30 27 26 23 20 15 19 22 23 23 21 21 22 25 27 29 29 29 34 36 37 36 29 29 28 24 21 19 20 21 25
17 20 22 21 26 28 29 33 36 32 28 28 30 30 27 11 18 24 16 19 28 28 29 31 32 32 31 31 32 31 29 31 37 40 38 30 29 30 28 24 21 20 22
22 23 22 25 28 32 34 29 26 27 25 24 24 26 10 22 11 11 26 23 27 31 29 33 35 35 35 34 32 34 37 33 30 34 40 40 33 29 30 29 26 22 21
21 19 23 29 31 26 24 26 26 23 23 22 21 18 10 8 26 21 27 27 24 33 34 32 31 28 27 27 27 29 31 37 36 31 32 36 38 35 30 30 29 27 24
20 24 26 24 23 24 25 24 23 22 20 19 17 12 15 19 21 23 16 25 26 28 33 32 30 24 19 19 20 23 26 29 35 35 31 31 33 37 35 32 31 30 27
22 23 22 23 23 23 24 22 20 18 17 18 19 22 23 21 18 16 27 27 32 29 31 28 26 21 13 14 16 17 20 23 28 31 34 32 28 32 32 30 26 32 29
21 24 24 27 26 25 23 21 21 19 18 18 19 19 19 20 23 22 24 24 23 24 21 17 20 16 13 14 15 15 17 19 20 23 28 30 29 24 22 28 29 31 29
22 23 24 21 19 22 23 29 20 21 20 19 19 21 20 21 21 23 23 22 20 31 29 22 17 18 13 9 12 13 14 14 16 18 19 21 22 25 23 24 29 28 29
24 24 23 21 24 30 30 20 16 18 18 18 18 18 20 20 20 20 22 24 29 24 35 29 26 15 18 20 12 12 12 13 15 17 18 17 18 20 23 27 25 22 20
24 24 24 27 29 32 20 16 16 17 16 16 18 18 18 19 20 22 25 27 26 26 34 34 32 31 29 24 21 22 19 17 15 18 20 20 19 17 23 22 24 29 29
21 24 28 29 29 25 16 16 18 15 17 20 20 21 23 23 25 28 31 32 31 31 35 35 38 34 30 26 25 25 26 25 22 19 20 21 20 17 21 23 16 20 26
22 26 28 26 27 24 17 17 15 18 22 23 23 27 28 29 33 36 34 33 29 27 33 39 37 37 34 25 22 24 25 27 25 25 24 21 20 19 19 24 25 17 21
26 23 24 24 29 25 14 18 13 20 23 23 27 31 31 33 36 34 31 31 31 28 28 32 33 33 32 23 22 25 27 26 24 22 25 26 23 19 18 19 19 29 18
26 22 20 26 21 10 14 12 18 20 22 26 31 32 35 35 35 33 32 32 31 30 26 25 32 30 29 25 27 25 25 25 24 24 24 23 24 22 17 18 12 17 20
22 19 22 23 15 13 12 18 18 20 27 30 32 33 34 34 32 32 30 31 30 28 28 29 27 28 24 23 22 25 25 23 24 22 23 23 21 20 17 15 20 11 15
20 18 20 18 11 14 17 14 19 25 29 32 33 34 33 31 26 26 27 28 31 30 27 26 28 26 27 21 20 21 22 20 21 20 18 16 19 12 17 18 17 17 14
20 18 16 10 12 13 15 19 22 28 30 30 32 33 32 28 25 22 24 23 23 24 25 25 27 29 27 26 25 21 18 19 20 18 16 14 15 20 12 15 18 19 18
12 6 10 13 11 14 19 22 27 28 28 29 31 27 24 23 21 19 17 20 22 23 22 23 24 21 22 23 23 26 24 18 20 19 19 22 17 20 22 16 15 20 22
12 13 13 9 14 17 22 25 26 25 27 27 25 22 22 21 18 19 26 24 24 24 22 21 21 22 22 21 19 23 24 24 25 24 20 24 20 16 19 24 22 19 17
15 13 10 12 16 21 23 23 23 24 25 24 22 20 20 20 18 22 23 23 23 19 17 17 20 21 21 23 23 17 18 19 22 20 15 16 18 15 14 18 22 23 25
13 12 12 15 20 21 20 20 21 23 24 24 23 21 20 18 19 20 21 22 21 22 22 19 18 17 17 19 21 24 24 23 17 18 18 19 18 18 15 16 16 21 24

GFSMA_850_spd_027.txt.gz
Wind_Speed
3 3 4 6 7 7 9 12 15 20 24 26 28 29 28 28 27 25 23 21 21 22 22 23 25 26 27 26 25 23 21 18 14 13 13 13 15 15 16 18 20 22 24
5 6 7 7 8 11 13 17 20 24 27 28 29 29 28 28 27 26 25 24 24 23 23 24 25 27 29 30 29 27 26 24 23 19 14 13 15 16 17 18 20 22 24
8 7 7 8 11 12 17 21 22 24 26 30 30 30 30 29 28 26 25 24 25 25 26 26 26 27 27 28 30 31 29 29 27 27 23 17 15 14 16 19 20 20 24
7 7 9 11 16 20 22 21 25 28 31 33 31 28 27 26 25 24 22 21 20 21 23 24 25 27 27 27 27 30 31 33 32 29 28 26 20 17 14 16 18 20 22
8 13 15 16 19 20 20 23 27 31 30 29 27 24 21 22 23 22 20 19 19 20 22 25 26 28 30 31 32 30 30 33 33 34 31 28 28 24 20 17 17 17 20
13 13 15 16 16 20 24 28 29 26 26 27 26 21 22 19 16 14 19 24 22 21 25 27 28 31 32 31 33 35 35 32 34 35 33 35 31 28 25 23 19 19 19
11 13 12 15 20 25 27 26 26 27 25 25 20 18 16 10 10 19 16 18 21 27 27 29 27 31 32 33 33 32 35 38 37 35 35 33 34 34 33 27 25 22 21
11 13 16 21 24 21 22 24 24 26 25 24 21 15 10 13 10 12 16 23 23 24 23 28 30 32 32 33 33 33 30 31 37 37 35 36 33 33 34 34 29 27 24
15 19 23 24 20 21 24 26 26 23 22 19 19 10 9 8 21 13 20 17 20 24 24 25 24 23 23 25 26 27 29 30 30 34 33 34 36 32 34 35 33 30 26
18 18 20 21 21 22 26 26 27 23 20 14 13 9 12 15 17 19 14 19 18 25 24 24 24 22 21 20 21 21 23 26 26 28 29 29 32 33 32 34 35 33 29
18 18 20 22 23 23 23 23 24 24 17 14 10 11 12 13 14 17 26 22 22 19 19 19 18 20 21 19 21 20 21 24 24 24 24 25 25 29 30 28 29 35 32
18 20 20 22 23 23 24 24 28 17 15 13 11 11 13 15 17 17 21 22 25 25 23 20 18 18 17 21 17 15 14 17 20 20 19 18 19 22 24 24 26 29 27
20 21 23 22 22 22 24 26 25 16 13 13 14 14 15 14 16 16 18 21 23 28 29 22 23 20 21 18 18 18 15 12 16 20 20 17 14 16 21 22 23 30 25
21 22 22 22 22 24 23 24 21 15 15 15 16 17 17 15 19 20 18 19 27 30 31 30 26 24 23 22 25 29 23 22 16 19 20 21 18 14 15 18 25 26 22
21 20 20 23 24 25 24 24 22 15 16 16 18 20 20 20 21 23 25 21 23 33 36 34 32 24 25 25 26 28 26 27 27 24 25 24 22 18 13 13 17 20 32
20 22 25 25 26 27 27 22 27 17 14 18 20 22 22 23 25 25 24 23 22 26 36 30 30 29 28 28 27 27 26 28 28 28 27 27 27 22 17 14 15 21 26
24 26 24 24 23 24 24 28 15 12 17 19 21 23 25 27 25 24 24 24 23 24 31 36 31 29 29 28 27 25 23 24 24 26 25 25 26 27 23 19 16 16 22
28 26 23 19 17 21 27 17 11 14 17 20 21 25 29 26 26 25 25 25 25 25 27 34 32 29 24 25 25 24 22 23 24 24 25 23 23 22 24 22 19 16 22
29 24 20 17 21 23 12 11 11 17 20 20 26 29 31 28 27 25 25 26 24 22 22 25 32 27 26 24 21 21 22 25 23 25 26 25 24 24 21 20 20 17 18
25 22 19 17 17 14 9 12 16 16 19 25 29 31 31 28 25 25 24 23 22 22 22 24 28 26 22 21 16 17 19 19 22 21 21 23 23 23 22 20 18 16 16
22 21 16 13 11 9 13 11 15 20 25 28 28 29 30 29 25 21 19 20 21 22 22 23 24 23 22 20 19 20 20 18 18 17 17 15 14 13 14 17 18 18 15
20 15 9 8 9 13 11 16 19 24 27 27 28 29 26 23 18 20 17 14 17 23 25 22 24 24 24 21 19 18 18 17 16 16 15 14 10 11 12 12 16 21 18
16 12 11 12 11 10 15 19 25 26 25 25 26 25 22 18 18 17 17 22 22 22 23 25 25 24 22 18 18 19 17 18 17 15 12 16 14 14 14 19 19 19 21
14 14 15 13 11 14 18 24 25 23 23 24 24 22 18 18 17 17 22 21 19 20 19 19 20 22 20 20 20 20 22 18 19 19 17 18 16 16 13 18 25 19 20
14 14 13 12 14 17 23 23 22 22 22 23 22 18 17 18 17 18 19 20 20 19 17 21 20 18 18 21 21 19 19 17 16 15 14 15 14 13 11 13 18 24 20
14 15 14 14 16 20 21 20 20 21 21 21 20 19 20 18 16 18 18 18 18 19 21 19 16 14 15 15 14 15 16 19 19 14 11 12 12 9 8 9 15 19 21

GFSMA_850_spd_030.txt.gz
Wind_Speed
8 8 8 6 5 7 8 9 11 15 18 17 19 23 21 19 19 17 16 24 25 24 23 23 23 24 26 27 26 24 22 21 22 21 18 16 15 13 15 16 18 20 22
10 9 7 7 7 8 11 11 17 18 15 17 19 20 21 19 17 19 17 16 23 22 23 24 24 24 24 24 25 26 24 25 23 24 24 21 19 17 15 17 18 20 23
9 7 7 7 10 12 14 17 17 13 17 19 21 20 21 20 18 16 15 12 13 18 21 21 23 24 25 26 25 24 25 25 25 25 25 25 24 22 21 18 18 20 23
7 9 11 11 12 14 14 12 13 17 20 20 20 22 21 19 18 15 12 13 12 12 15 22 24 25 27 28 29 29 27 27 26 26 27 26 27 25 24 22 20 20 21
11 9 11 11 12 11 12 17 18 18 20 20 21 21 19 19 18 16 12 11 12 15 16 17 24 24 28 29 29 30 32 31 28 28 29 27 26 29 27 26 24 22 22
8 10 11 13 14 11 14 23 23 17 18 19 21 21 19 20 17 14 12 13 14 15 16 19 20 20 26 29 30 29 29 30 31 27 29 31 29 27 31 31 29 27 26
9 9 8 12 17 19 23 21 17 17 19 18 21 22 22 18 12 14 16 16 16 19 18 20 20 22 22 25 23 22 30 29 28 26 30 29 31 32 27 31 32 29 30
8 10 14 15 19 11 11 16 16 17 16 18 19 22 20 19 20 12 20 18 21 19 21 21 23 23 22 23 22 28 21 23 28 29 29 29 26 30 32 28 31 34 32
11 13 15 13 12 15 14 13 15 15 19 18 15 16 19 18 21 22 19 19 21 24 23 23 23 22 21 22 23 20 23 26 26 26 27 28 23 22 24 26 27 32 35
13 12 16 20 22 18 15 15 15 17 18 18 16 15 16 17 21 25 20 21 23 24 26 24 23 23 22 20 21 20 21 22 22 24 24 23 25 21 19 20 24 28 34
13 15 18 22 22 16 16 14 14 20 18 17 16 16 16 16 17 20 25 26 25 24 22 23 25 23 23 22 21 20 23 17 20 19 21 21 21 22 18 19 21 26 29
14 15 16 20 19 18 16 15 18 20 17 16 14 13 15 17 19 19 21 23 26 26 23 24 24 23 25 23 24 26 24 23 19 18 17 20 19 17 18 18 18 21 26
16 18 19 19 19 20 18 17 19 19 15 17 14 15 15 16 17 18 21 25 27 30 29 26 25 26 25 25 26 24 26 29 24 24 22 19 18 18 17 18 19 23 24
17 17 17 17 18 18 19 20 20 20 17 17 14 15 16 16 18 19 22 25 31 33 32 31 28 28 28 26 26 29 28 27 26 28 26 28 25 22 19 18 19 19 26
14 16 17 19 20 20 20 21 21 21 19 16 15 15 16 16 17 19 23 24 26 33 37 34 33 28 28 28 28 27 28 28 30 28 29 26 29 27 23 20 18 18 22
15 18 21 21 21 21 21 20 22 21 18 15 16 17 18 19 20 24 25 26 27 32 40 36 35 31 29 30 30 30 29 31 31 26 27 27 29 28 25 23 21 19 17
18 20 21 20 19 19 18 19 20 17 14 15 16 18 19 22 25 26 26 28 29 30 36 41 34 31 29 29 29 27 26 26 27 25 27 26 26 24 24 22 22 21 20
19 20 19 18 16 16 17 18 17 11 13 15 17 18 21 25 26 26 27 28 30 30 31 36 33 30 28 27 27 27 27 25 25 24 20 21 27 23 23 22 21 21 21
19 17 17 16 16 16 15 12 8 10 12 13 16 20 23 23 24 24 25 27 27 26 26 28 33 28 28 26 25 23 23 21 22 25 28 30 27 23 25 25 23 20 18
17 16 16 15 12 10 8 7 9 8 13 16 19 20 19 19 21 22 22 22 22 23 24 26 28 27 24 23 22 23 23 21 19 18 21 24 23 23 25 23 24 21 19
15 15 14 12 10 8 7 7 8 13 16 18 17 17 18 21 27 20 18 19 20 20 21 24 27 26 24 23 22 23 22 22 22 20 19 16 15 16 14 14 11 18 20
14 14 11 9 8 7 13 11 15 16 17 16 17 17 17 19 16 22 19 20 18 22 25 25 26 26 27 25 24 21 20 20 21 15 15 15 15 12 12 12 16 18 18
14 13 11 11 10 9 12 15 19 21 15 14 15 17 17 16 20 19 19 20 22 22 23 24 26 23 23 23 21 21 20 21 21 18 16 14 12 12 13 13 19 21 18
13 13 12 11 10 11 14 18 22 18 14 14 15 15 16 17 17 21 19 20 20 19 19 20 21 24 23 23 22 21 23 23 22 19 17 20 16 18 16 15 18 21 21
13 13 13 12 11 10 17 21 21 17 13 15 14 14 16 16 18 17 19 20 20 18 18 21 22 22 19 17 18 18 19 19 20 19 14 17 16 16 15 15 14 17 22
12 12 12 12 13 14 20 20 18 15 14 14 14 15 17 21 22 18 18 18 19 18 20 21 18 16 15 16 18 17 15 16 17 20 15 11 10 8 9 9 12 12 15

GFSMA_850_spd_033.txt.gz
Wind_Speed
7 4 6 4 5 6 7 8 9 11 14 15 18 19 20 21 20 17 16 24 24 25 23 21 21 20 21 22 22 21 22 22 22 22 21 20 18 16 15 16 18 19 20
13 6 6 4 5 8 9 13 17 17 15 17 19 21 21 21 20 20 17 17 21 22 23 22 21 21 21 21 21 21 21 22 23 21 23 23 23 21 19 17 18 20 22
11 10 9 12 15 14 12 10 12 13 16 18 20 20 21 21 18 18 18 13 15 20 19 22 25 24 24 25 25 24 23 23 23 23 23 22 24 25 24 23 20 20 22
11 12 14 14 12 11 13 11 12 14 16 20 22 21 22 21 19 19 18 14 14 13 16 19 24 27 27 26 27 28 26 24 24 23 25 25 24 25 26 26 27 24 21
8 10 11 10 9 7 9 10 13 16 19 22 21 21 23 20 20 20 17 15 14 15 17 19 23 24 22 27 30 29 24 19 22 19 19 24 28 27 27 29 28 28 26
9 4 4 8 9 8 9 12 17 17 18 21 22 22 21 21 22 18 14 14 14 15 17 18 20 20 22 25 25 24 19 22 20 18 18 19 24 28 29 28 30 30 29
5 4 3 6 9 10 11 13 15 18 18 19 22 24 22 22 19 17 19 14 17 18 20 20 21 22 22 22 20 20 23 23 17 19 20 21 23 26 27 28 28 31 32
4 4 8 6 9 10 13 15 16 17 18 18 22 22 25 24 17 12 16 20 19 19 20 23 24 22 23 21 20 22 18 21 28 30 21 20 20 22 24 25 27 28 31
4 7 8 9 10 13 15 16 16 16 20 19 18 20 24 22 24 22 23 22 23 24 24 23 25 24 22 22 21 20 26 27 27 26 20 19 20 20 22 21 23 23 24
6 6 9 11 13 14 15 16 16 17 19 23 21 19 19 22 24 29 22 21 21 24 25 25 23 23 24 23 22 24 25 23 24 27 24 19 19 18 19 18 21 22 22
8 10 12 13 15 17 18 19 19 19 20 22 22 20 20 19 20 22 26 25 24 23 23 24 24 25 25 24 25 21 24 28 31 27 23 22 20 19 18 19 16 20 22
11 12 14 16 18 20 20 19 19 20 21 23 20 18 16 18 19 21 23 23 26 29 27 26 27 26 27 27 26 26 28 29 27 27 27 25 22 21 19 18 19 18 19
11 13 15 17 17 18 19 20 24 25 23 24 18 17 17 18 18 18 21 24 26 32 31 28 27 28 29 29 29 29 28 28 30 30 27 26 27 27 24 20 19 21 20
11 13 14 15 17 18 19 21 22 22 23 22 19 16 19 18 18 18 19 20 30 32 31 29 29 30 30 30 30 31 30 29 31 30 31 30 31 29 28 28 22 21 21
10 12 15 17 19 20 21 21 23 23 25 24 19 17 17 16 15 16 18 23 27 32 35 34 34 32 30 30 30 30 31 31 33 35 37 38 37 32 31 30 27 25 23
11 13 16 17 18 19 19 20 21 23 20 20 15 13 16 15 16 19 23 25 27 32 38 35 35 33 32 30 29 30 30 31 33 32 32 29 26 26 29 32 31 27 26
12 15 16 17 17 18 17 17 19 20 19 15 14 15 15 16 18 22 25 28 29 30 34 38 37 34 30 29 30 28 30 30 31 31 30 29 30 28 29 28 30 30 27
14 16 16 16 17 17 18 19 18 14 12 13 14 14 16 19 22 24 25 25 28 29 32 36 36 32 29 28 30 30 30 26 28 28 26 28 24 27 28 28 29 29 27
16 16 15 16 17 17 16 12 11 10 12 10 13 15 19 21 22 21 22 24 25 25 26 28 32 30 30 28 28 26 26 26 24 25 25 26 31 30 26 27 31 32 27
16 15 15 16 16 14 13 10 8 9 9 13 16 18 19 19 19 19 23 20 21 23 23 24 26 28 28 26 27 27 28 23 24 22 24 24 24 22 22 23 22 25 25
15 15 16 15 14 12 10 9 9 11 13 16 18 17 16 19 27 25 21 21 20 20 21 24 27 29 28 28 27 28 28 27 24 21 25 22 22 20 19 22 15 12 19
15 15 15 14 13 12 17 14 12 15 15 16 16 16 16 17 17 21 20 22 24 21 24 25 26 28 28 26 27 24 26 25 25 20 20 23 19 19 14 11 11 16 14
16 16 16 15 14 13 18 16 15 17 16 13 14 15 16 15 18 18 17 22 21 21 23 25 25 25 26 26 27 26 25 24 24 24 23 26 20 17 11 12 14 16 19
17 16 15 14 13 14 19 18 17 20 12 13 14 15 15 15 16 24 26 19 19 19 19 20 22 25 26 26 23 22 25 26 26 23 20 24 22 22 19 16 19 22 23
17 16 15 14 13 14 18 21 19 18 12 13 13 14 15 16 17 23 23 20 20 18 17 21 24 24 21 20 18 21 24 22 23 20 18 19 19 19 20 20 22 20 20
17 16 15 13 13 12 19 22 18 17 14 13 13 12 16 22 24 23 22 20 19 18 21 22 19 18 17 18 18 18 21 24 21 20 15 16 15 12 12 15 15 13 15

GFSMA_850_spd_036.txt.gz
Wind_Speed
10 8 7 4 7 7 6 10 11 15 12 11 13 17 21 20 20 16 20 18 22 22 21 25 23 21 21 20 20 19 19 20 20 17 16 16 15 17 18 17 15 15 16
6 5 6 6 7 8 11 14 15 12 15 18 20 22 20 22 19 16 19 19 19 18 18 18 22 24 24 24 24 23 21 19 20 21 20 18 17 17 18 20 19 18 17
14 11 7 10 12 17 15 15 16 16 20 21 22 19 18 20 18 16 21 15 18 16 16 19 18 24 26 28 21 19 21 22 22 20 21 22 20 19 18 19 22 22 21
7 7 7 10 13 13 13 15 15 17 17 19 19 18 21 25 17 20 19 15 15 16 18 18 20 22 24 24 21 21 22 19 19 21 19 18 18 24 23 22 22 24 25
5 6 9 11 8 4 9 13 15 20 24 24 22 18 22 21 18 20 18 13 17 14 12 18 20 21 18 18 20 24 24 19 22 19 16 17 20 25 27 28 26 25 25
5 4 7 9 9 6 11 16 20 21 21 18 20 20 20 19 15 18 15 13 14 12 13 18 19 18 17 21 21 21 19 21 19 18 20 22 21 22 23 26 28 27 27
3 6 4 6 10 6 9 12 17 17 17 16 22 27 21 16 16 14 10 12 12 16 16 15 20 24 26 22 18 18 24 21 24 27 24 24 21 21 22 22 26 28 28
3 3 9 8 9 14 14 12 16 19 20 15 22 22 22 26 17 18 21 22 17 21 22 20 24 22 23 20 23 22 23 24 25 25 22 21 21 19 19 21 22 25 28
5 8 9 12 13 12 12 16 18 18 17 21 16 21 25 19 28 23 20 21 22 21 19 20 21 20 22 23 27 19 25 27 29 25 22 22 21 21 20 18 19 19 23
9 8 8 12 15 17 18 16 16 20 26 21 21 18 19 22 23 26 20 20 21 20 21 21 22 21 25 27 26 24 28 30 29 28 24 24 24 21 20 19 18 18 19
10 8 9 11 13 15 16 20 22 22 21 19 22 24 29 27 22 20 23 21 25 23 22 23 24 25 24 23 25 27 25 23 28 29 29 27 26 24 23 20 19 19 18
8 11 13 15 18 20 22 20 20 23 25 28 28 25 23 20 20 19 22 23 24 26 26 29 28 27 27 25 25 25 29 30 28 28 29 27 28 27 26 24 22 21 20
11 15 17 21 21 18 19 20 22 24 26 26 25 27 22 23 17 19 19 22 24 30 34 28 25 25 28 29 28 27 27 30 32 31 29 29 28 27 27 27 26 24 22
15 17 17 14 17 17 20 21 22 22 23 23 26 24 22 17 20 19 17 18 24 32 30 34 25 29 28 30 24 29 29 30 33 34 35 35 37 36 33 33 30 28 24
12 12 15 18 18 19 21 21 21 21 22 23 24 23 22 21 18 18 20 19 23 30 33 29 33 28 24 28 31 34 34 33 33 34 35 36 36 34 32 30 32 30 26
13 13 14 16 17 18 18 18 19 20 22 25 22 15 11 14 16 17 18 21 24 27 33 30 29 29 32 33 36 39 32 35 37 34 34 30 31 32 31 30 27 27 28
13 12 14 16 16 15 17 21 23 19 17 15 12 11 14 15 15 18 20 20 23 23 29 33 33 32 32 34 36 33 32 34 32 30 30 31 31 32 31 32 30 28 29
12 13 15 15 14 17 19 19 21 15 14 12 15 15 14 16 17 19 22 25 27 30 32 32 31 31 29 33 29 29 28 29 30 29 30 28 27 30 30 26 26 30 28
14 15 16 15 15 18 19 17 15 16 14 12 12 14 15 17 22 22 23 26 29 27 24 28 33 34 30 28 30 28 31 29 28 26 25 26 26 28 28 28 30 28 25
17 17 15 14 17 18 19 17 12 10 9 11 13 16 18 20 20 23 27 31 25 24 27 28 29 29 29 29 26 30 27 29 28 29 27 26 26 28 25 25 22 21 24
20 17 15 15 19 21 14 13 13 16 16 17 17 18 16 18 23 24 23 25 25 27 29 27 27 29 29 29 28 28 32 29 29 26 24 24 26 26 27 27 24 20 23
16 16 18 17 19 16 19 19 21 18 17 18 15 16 17 16 17 20 19 21 24 27 27 24 29 32 32 29 27 31 31 32 32 30 27 28 25 27 25 21 19 10 20
18 19 18 19 21 20 21 20 19 17 17 17 14 15 18 14 19 21 25 27 27 20 20 23 27 25 23 25 33 32 29 26 28 29 27 31 26 26 25 21 19 14 11
19 19 20 20 20 19 22 21 19 18 18 16 13 17 16 16 23 26 25 28 26 22 16 16 23 27 28 31 20 23 25 27 27 24 23 27 26 27 22 20 21 19 21
20 20 21 17 19 19 21 20 19 18 21 18 17 14 15 18 23 25 27 27 24 21 13 18 26 23 17 17 18 25 25 29 30 31 28 22 22 24 23 20 18 19 22
20 18 18 18 17 19 21 19 19 22 21 19 14 14 17 17 22 24 26 24 23 20 23 22 17 18 15 16 17 18 20 23 25 31 25 19 21 17 21 10 9 16 16

GFSMA_850_spd_039.txt.gz
Wind_Speed
12 11 7 6 8 9 9 7 10 13 14 14 17 18 20 18 18 17 14 17 20 20 15 14 17 19 19 21 21 20 16 15 16 17 16 16 16 17 17 17 16 13 12
10 9 10 13 12 11 8 12 13 14 13 16 20 20 14 15 18 20 14 17 18 19 16 15 18 17 15 18 20 16 18 19 18 17 17 18 17 19 19 20 19 20 17
13 12 10 9 10 10 13 13 14 15 17 20 18 12 11 17 20 14 11 13 16 14 14 15 16 16 18 17 14 15 18 19 17 19 19 16 15 17 23 22 23 22 24
12 9 9 8 7 11 13 16 16 16 19 18 20 17 18 19 19 13 13 10 17 11 10 10 12 15 17 18 14 16 19 17 18 18 16 15 15 19 21 26 26 26 25
9 7 5 6 7 12 13 14 16 20 22 23 24 24 23 18 14 15 14 8 2 1 7 8 13 17 19 18 18 14 17 22 22 16 16 18 17 21 22 22 26 28 27
6 5 6 6 9 10 11 13 18 22 24 26 25 23 24 21 6 12 8 8 7 9 10 14 18 20 22 22 16 13 17 19 17 17 20 21 21 20 20 21 22 24 28
6 6 8 8 8 7 11 14 17 20 24 24 26 28 31 11 22 9 12 15 17 17 19 20 20 20 18 19 18 18 19 18 18 20 19 20 22 18 20 19 20 22 23
8 8 9 11 13 14 16 18 18 20 20 21 23 28 17 27 8 19 18 22 20 16 16 15 16 16 17 20 22 24 23 22 21 21 20 20 20 21 20 21 20 21 22
8 7 10 13 14 15 17 18 18 18 18 21 25 21 15 8 30 21 24 17 22 23 22 19 17 13 15 20 24 25 20 20 23 20 19 20 21 22 23 23 23 21 21
6 8 10 12 13 14 16 16 15 19 22 24 23 21 21 24 28 29 11 21 18 21 22 23 24 24 27 28 20 19 21 23 20 23 24 22 23 23 24 25 24 24 21
3 2 6 10 12 15 17 20 22 23 18 19 23 23 26 27 26 27 31 24 26 25 24 22 25 29 34 32 27 26 25 27 26 26 23 22 24 26 27 25 24 24 23
10 10 12 14 16 19 21 25 23 21 22 23 24 28 28 27 26 23 30 29 26 28 26 25 24 29 22 21 25 27 25 25 27 27 25 25 26 27 27 27 29 26 26
14 16 20 21 23 26 25 21 21 21 21 21 20 24 24 25 23 20 19 24 24 31 30 26 27 26 17 26 23 28 24 27 32 36 36 34 31 29 29 30 31 30 30
21 18 24 24 24 22 22 22 22 21 20 20 19 21 25 26 20 22 23 18 23 26 30 29 28 20 22 20 20 26 31 36 40 42 41 38 36 31 30 30 31 31 32
18 19 19 18 20 21 20 18 16 16 18 20 22 25 25 14 14 14 13 16 17 21 32 29 24 21 21 26 33 37 40 40 41 38 36 37 34 30 29 28 28 28 28
16 18 19 17 18 19 17 17 19 20 22 23 24 18 12 13 15 14 13 14 16 15 24 28 32 33 33 34 35 37 40 39 31 30 29 27 26 27 28 28 29 27 27
19 19 19 18 19 16 15 20 23 28 22 17 16 15 16 17 13 12 15 17 21 25 29 35 36 38 39 38 39 37 29 28 27 28 28 25 26 26 26 28 30 30 28
20 21 19 20 19 16 17 22 25 24 19 19 17 16 14 14 15 18 22 26 29 27 30 38 35 34 35 33 27 26 25 24 25 23 24 24 24 25 24 24 26 22 25
18 19 21 23 18 18 20 23 22 19 18 14 11 11 13 17 20 24 25 25 27 30 28 25 31 33 28 24 25 25 26 25 25 27 25 24 24 23 25 27 29 26 24
17 22 25 24 18 20 22 23 24 19 18 16 16 16 19 19 19 21 25 28 26 29 26 29 32 27 25 24 25 28 30 29 35 32 28 22 20 21 22 23 22 26 28
22 23 24 20 20 23 25 26 22 17 18 19 20 20 19 20 22 25 23 25 28 27 30 32 30 27 28 29 27 26 30 39 36 29 27 26 25 24 24 23 23 26 26
22 22 23 23 25 24 25 26 23 20 20 21 20 20 17 20 20 21 24 24 24 28 31 27 26 26 29 23 26 33 35 30 34 26 28 27 21 23 21 21 21 22 13
22 23 25 25 23 24 25 27 24 22 20 20 19 19 17 19 21 22 24 25 23 25 23 21 21 22 27 27 31 32 23 27 30 31 31 30 28 26 20 21 19 19 20
22 24 22 24 28 26 24 25 24 22 21 21 20 20 19 21 21 23 25 24 25 24 21 16 17 25 29 27 19 19 24 27 25 27 23 29 28 22 21 18 19 16 17
22 26 27 27 27 24 22 23 23 24 20 20 21 18 18 19 21 23 23 24 25 21 18 16 16 14 13 12 13 17 19 24 30 30 26 23 28 28 24 18 13 9 15
26 27 29 25 23 25 25 25 28 24 23 21 21 21 19 19 21 21 22 24 23 19 18 15 17 14 11 13 14 16 18 21 23 31 28 30 32 22 18 15 13 14 17

GFSMA_850_spd_042.txt.gz
Wind_Speed
8 10 10 9 10 9 8 6 7 9 11 12 13 15 15 12 13 14 15 13 14 15 13 10 10 8 10 16 17 17 17 17 16 16 17 16 14 14 16 18 19 20 18
11 9 9 10 10 9 9 10 13 11 12 13 16 15 13 13 15 15 11 11 8 11 9 9 8 9 7 8 10 12 14 16 18 17 16 16 16 17 18 20 21 21 23
11 12 12 12 12 11 12 14 11 12 13 16 15 14 12 13 16 14 12 10 7 4 4 3 5 6 7 7 9 11 13 12 14 17 18 20 21 21 22 21 22 23 23
14 16 14 13 12 12 12 10 12 14 16 16 17 18 16 14 9 9 10 7 4 3 4 4 8 10 10 12 10 11 12 14 14 16 18 22 20 19 20 23 20 21 23
15 13 11 11 11 9 9 12 14 16 17 19 20 19 17 18 6 6 6 4 5 3 1 6 10 12 14 13 13 11 12 13 15 15 17 16 19 19 18 22 22 21 22
12 11 10 10 8 9 10 12 14 18 19 21 20 19 21 2 11 10 8 9 9 10 10 13 14 14 13 14 15 13 13 15 14 15 17 18 16 19 21 19 21 22 21
11 12 11 8 9 9 10 14 17 18 19 19 20 22 20 4 10 2 19 15 18 20 20 20 19 17 15 14 14 13 14 16 15 15 16 16 18 19 19 21 20 22 24
13 13 10 10 10 11 14 16 16 17 17 19 20 23 8 18 9 26 11 24 20 19 18 20 19 18 18 18 19 21 20 16 16 18 17 16 17 18 19 21 22 23 24
14 11 9 10 12 14 15 15 16 17 18 20 21 16 9 7 25 16 27 13 10 20 26 24 21 21 19 22 24 26 22 19 19 19 18 17 19 21 21 22 23 25 25
13 11 12 13 14 15 16 17 18 19 21 22 18 17 18 19 22 21 10 20 22 19 24 26 25 23 23 25 27 23 21 21 21 21 19 18 21 23 23 24 25 25 26
16 16 15 13 13 16 18 17 18 21 23 22 21 19 21 22 24 24 28 23 25 25 21 21 23 22 26 26 26 22 22 24 22 23 20 20 22 25 26 27 27 28 29
17 16 14 13 15 17 18 19 22 22 21 22 22 22 20 21 23 25 29 29 28 27 24 21 23 24 25 24 16 22 20 24 26 25 24 22 24 28 30 30 29 29 30
19 15 13 14 18 20 20 23 22 22 21 21 22 22 20 19 22 26 25 25 28 28 23 22 21 22 19 17 20 21 22 24 27 31 34 37 37 33 32 32 32 31 31
18 17 15 18 18 19 19 21 23 21 19 20 21 21 21 23 24 26 22 20 23 24 24 20 23 19 19 19 22 26 32 35 37 40 42 42 35 28 29 29 29 29 29
14 16 14 15 18 24 23 22 21 20 21 23 26 28 27 24 21 19 15 14 13 14 28 24 19 27 31 33 34 34 36 38 39 38 36 28 23 23 24 24 25 26 27
21 14 18 14 20 20 21 22 19 20 24 27 26 21 17 16 17 19 19 17 17 20 25 28 32 35 36 36 35 34 34 32 31 27 24 24 25 23 22 23 24 25 27
18 20 17 17 20 22 22 22 22 23 25 28 21 16 16 17 15 14 14 17 20 23 28 34 33 36 33 33 33 28 24 23 22 23 24 23 24 24 23 23 23 23 23
22 13 19 18 21 23 25 24 22 24 25 26 20 19 17 15 17 20 22 24 25 24 26 33 33 30 31 31 25 23 22 22 22 23 24 25 24 24 24 25 25 25 27
9 18 18 18 22 24 24 21 23 26 25 23 21 19 19 20 19 22 23 23 24 27 25 28 31 32 33 27 26 24 23 23 23 28 31 28 25 22 20 21 22 23 24
12 13 18 19 23 26 21 20 23 26 26 23 20 20 21 22 25 23 23 25 27 24 25 28 32 34 31 28 24 24 25 27 33 24 20 18 16 18 22 24 25 25 26
7 14 14 20 23 23 23 22 25 27 25 22 22 22 23 24 24 23 25 23 24 24 27 29 32 31 30 28 25 27 30 33 26 22 25 24 20 16 19 20 21 21 23
4 13 24 20 23 26 26 26 24 25 25 21 23 23 23 22 23 23 23 22 22 24 26 29 29 28 27 26 29 31 31 27 29 24 26 23 22 21 20 18 19 18 18
16 23 16 23 24 25 25 25 23 23 24 25 23 24 23 23 22 23 24 21 22 23 24 25 26 24 27 28 28 23 22 23 26 27 28 31 24 23 19 18 17 17 19
15 19 23 23 22 27 27 25 23 23 25 26 25 26 21 24 23 24 22 23 22 22 23 21 20 21 20 20 19 19 22 22 26 27 23 30 27 28 24 17 11 8 8
20 17 19 24 27 28 27 23 22 25 26 24 24 23 21 24 24 22 22 23 22 21 20 17 15 15 16 15 15 18 20 24 30 29 22 23 33 29 20 16 8 6 10
18 19 23 26 30 25 23 24 23 26 26 24 21 22 21 22 21 22 22 21 22 19 16 15 12 14 13 16 16 15 17 20 22 27 21 30 28 22 21 18 13 17 15

GFSMA_850_spd_045.txt.gz
Wind_Speed
11 12 9 8 8 8 7 5 5 6 9 10 13 16 15 13 13 15 15 12 10 5 2 1 4 4 7 8 10 13 16 18 16 17 23 20 20 22 22 22 21 22 23
9 10 11 11 10 10 9 8 8 8 10 12 15 14 13 12 12 13 11 9 8 3 4 2 1 2 4 5 5 9 11 11 14 18 25 28 25 26 29 28 24 22 23
9 11 11 13 13 12 10 9 10 10 10 13 13 12 11 12 13 14 11 7 5 6 8 7 3 3 7 4 7 10 10 12 14 16 17 18 20 25 21 21 22 21 21
14 14 15 14 12 10 10 11 11 10 12 14 15 14 13 15 11 9 10 7 0 4 7 8 8 8 10 10 8 8 11 15 14 15 17 17 19 19 19 22 19 19 19
18 17 15 13 12 11 12 11 10 12 14 15 15 15 17 12 4 12 9 7 4 4 7 10 12 13 14 12 11 11 12 14 15 15 15 17 18 18 19 19 20 19 19
18 17 15 14 13 11 10 9 12 14 14 15 15 16 19 7 5 7 4 13 12 14 16 17 17 17 16 16 16 13 13 15 16 16 16 17 16 18 19 19 20 20 19
16 17 16 13 10 8 9 12 14 13 14 15 17 20 17 4 11 9 17 12 21 16 16 17 18 19 19 18 18 19 16 15 16 17 18 19 18 18 17 19 20 22 22
16 16 14 11 10 10 12 13 13 13 15 16 18 21 7 10 13 11 22 19 11 8 14 21 21 21 21 21 21 22 23 22 16 17 19 19 19 18 19 20 22 22 24
14 14 13 12 12 13 12 13 15 16 16 18 20 16 7 5 16 15 14 13 8 16 21 21 23 22 21 22 21 22 22 22 20 17 16 16 17 19 21 23 23 22 25
14 16 15 14 14 13 12 13 15 18 19 19 19 17 15 15 14 12 14 15 22 21 18 23 23 21 22 22 23 23 22 21 21 18 15 17 18 20 21 23 25 26 25
18 18 15 15 14 13 12 13 18 19 21 22 20 18 17 17 18 20 25 20 23 25 22 21 21 22 22 24 26 27 25 25 25 23 25 20 20 22 23 25 27 29 29
20 19 18 16 15 12 9 16 19 21 23 22 21 19 19 19 20 19 22 26 30 28 25 21 18 20 22 24 24 23 24 25 24 26 27 26 25 26 29 31 32 33 33
24 23 20 16 13 12 20 18 20 22 21 20 19 17 18 18 16 20 23 27 27 25 23 16 13 16 19 20 22 22 24 26 29 32 36 38 38 34 34 34 33 32 32
29 29 24 23 18 19 16 17 18 22 22 19 18 19 22 21 21 19 20 20 20 16 19 11 16 15 14 25 29 31 32 35 36 37 38 38 34 29 27 26 26 26 28
27 21 19 19 23 19 23 14 16 18 17 16 19 22 22 18 15 15 16 18 18 19 23 17 17 24 30 32 32 31 31 32 31 31 30 28 24 24 25 25 25 25 26
27 27 26 22 25 17 10 14 17 17 17 19 21 25 20 16 15 18 19 17 16 17 25 27 29 30 31 31 29 30 29 28 26 25 25 25 24 23 24 25 25 25 25
32 28 25 17 14 9 12 16 19 18 19 20 22 24 20 17 17 17 17 18 20 22 26 32 31 32 32 31 31 28 27 26 25 24 24 24 26 26 25 25 26 25 25
23 20 15 12 10 11 14 18 18 18 19 20 22 23 19 18 18 19 20 21 23 22 24 30 32 31 30 30 31 28 26 24 23 22 24 27 27 28 28 25 24 24 24
15 10 11 8 9 14 18 18 20 19 21 23 23 21 19 19 20 21 23 23 22 23 25 27 32 33 32 31 30 28 25 23 23 26 22 16 17 20 21 23 23 25 26
12 10 6 9 10 18 22 21 20 21 22 23 25 23 21 20 20 22 22 21 22 22 23 26 29 31 32 30 29 27 30 30 31 24 14 16 16 17 17 18 23 26 26
9 9 6 12 18 24 20 20 20 22 22 24 23 24 22 22 24 23 22 21 21 22 23 25 28 31 31 29 27 28 30 30 26 18 17 20 19 19 18 18 20 21 23
7 15 23 23 21 19 20 21 22 24 23 23 23 24 24 23 24 22 23 22 21 22 23 25 27 29 28 26 27 26 24 25 28 23 28 29 24 23 21 18 19 19 19
22 21 15 19 20 21 21 20 22 23 24 22 24 26 25 24 28 21 22 22 23 22 24 25 28 25 25 23 24 27 23 23 26 27 29 34 22 26 23 21 20 19 15
12 12 16 22 22 20 22 22 23 24 22 21 25 29 23 25 24 19 22 23 22 22 23 24 24 21 20 21 21 22 24 27 30 29 24 30 21 26 23 17 11 12 10
14 17 19 20 22 25 25 26 21 21 21 23 24 25 23 23 22 20 22 22 23 22 22 21 19 18 17 17 17 23 24 25 31 31 22 15 26 28 25 21 10 9 14
18 20 22 22 24 26 25 25 22 23 23 26 25 26 25 23 21 20 21 22 24 21 20 17 15 15 15 16 17 18 19 23 26 28 9 26 26 22 29 25 28 20 17

GFSMA_850_spd_048.txt.gz
Wind_Speed
12 10 9 8 8 7 5 4 6 7 10 10 11 13 14 14 13 13 12 8 5 2 3 2 3 3 6 7 8 10 10 12 13 15 19 22 21 20 25 25 22 22 20
10 9 10 11 9 8 9 7 6 8 9 11 14 15 14 13 11 10 8 6 6 4 6 5 2 1 2 4 6 8 9 11 10 14 16 16 18 20 19 20 25 21 18
11 11 12 14 13 12 10 9 8 10 10 13 14 14 11 12 11 9 10 8 4 5 8 9 7 8 9 7 7 10 9 10 13 13 14 15 15 17 17 17 19 18 16
10 11 14 15 13 11 11 10 10 10 12 14 13 11 12 12 7 9 10 8 3 4 8 10 12 13 13 14 13 9 10 11 12 13 12 13 15 14 16 16 18 17 18
13 16 14 15 14 14 11 11 10 11 13 12 10 11 14 10 3 11 5 6 7 6 9 11 15 17 18 17 16 15 12 12 13 13 14 13 15 15 16 17 17 17 17
17 17 17 16 15 14 10 9 11 13 11 9 11 14 16 8 7 12 4 7 16 15 14 14 16 16 16 16 16 17 13 13 14 15 16 17 18 16 16 16 16 17 18
16 18 17 16 16 12 10 12 12 9 8 11 14 19 13 10 9 12 10 14 18 17 12 16 19 18 18 18 19 19 18 16 16 16 16 17 18 18 17 16 17 17 19
16 16 16 16 14 13 11 10 8 8 10 12 14 16 11 13 10 12 13 19 20 11 12 17 20 20 21 21 22 23 23 22 20 17 17 17 16 16 16 18 19 20 19
17 16 17 16 15 12 10 9 9 11 11 14 17 15 7 5 16 13 13 14 14 12 18 18 19 22 24 23 22 22 22 23 23 19 16 15 16 17 18 19 20 22 22
18 19 20 17 14 11 11 9 10 12 14 17 18 18 16 16 10 10 11 13 19 17 18 22 21 21 21 23 23 23 23 21 22 21 17 16 17 19 20 21 22 23 25
22 21 19 16 14 13 12 12 10 13 20 19 19 18 18 16 16 19 25 19 19 20 21 22 20 21 23 23 23 23 24 25 26 27 26 24 21 22 23 25 26 28 29
23 22 20 19 18 18 18 18 16 26 16 17 19 18 14 14 15 16 21 23 24 24 23 19 16 19 21 21 21 21 23 26 28 30 31 32 32 29 30 30 31 33 34
25 24 22 22 24 23 24 22 22 18 22 24 18 15 15 18 19 19 20 23 23 21 21 16 13 14 18 21 23 26 30 33 35 35 36 37 38 37 32 31 30 31 31
27 27 26 30 29 25 28 22 25 18 15 17 15 16 18 19 17 15 16 18 19 21 22 18 17 15 18 18 28 33 32 31 31 31 32 32 33 31 27 25 26 27 28
30 30 28 33 30 27 22 21 13 12 13 14 15 16 18 19 16 14 14 14 17 14 19 14 17 17 18 27 29 29 29 30 30 29 28 28 27 24 24 24 24 26 27
33 35 29 29 24 17 13 10 9 11 14 16 16 17 19 18 15 13 14 14 15 17 23 24 23 23 24 27 27 28 29 29 28 27 26 25 25 24 25 25 27 26 27
32 30 25 18 16 11 8 8 10 15 17 15 16 17 18 16 15 14 15 16 18 19 25 28 27 26 27 26 27 27 27 27 26 25 24 24 25 27 28 28 30 28 27
26 26 17 14 10 10 8 8 19 13 15 15 16 16 18 19 18 16 17 19 20 23 24 27 28 28 27 27 28 28 26 24 23 23 24 25 24 20 20 23 24 26 27
19 13 11 14 16 5 13 19 14 18 15 16 16 19 20 20 19 19 20 21 22 22 22 26 28 29 29 28 29 28 26 26 26 25 21 17 14 16 17 20 21 21 24
14 19 16 8 13 20 17 16 19 16 17 20 19 21 22 22 21 22 22 22 22 22 22 24 26 28 28 28 28 29 29 27 27 22 15 14 16 17 18 20 21 23 23
17 12 16 15 23 21 16 15 16 20 21 22 23 22 24 23 22 23 25 22 22 22 22 23 25 27 28 28 28 27 27 29 28 16 20 21 19 16 17 19 21 22 21
14 15 21 26 23 15 14 17 21 23 22 24 24 24 25 24 25 24 23 25 23 22 22 23 24 27 27 27 25 25 25 26 23 23 30 29 24 18 16 18 19 22 24
11 23 23 17 14 16 19 22 23 25 25 25 25 24 25 27 26 25 23 28 22 23 23 22 25 25 27 23 23 24 24 25 25 29 29 31 23 19 17 18 16 16 16
26 15 11 13 19 21 21 23 25 27 28 28 26 24 25 24 25 25 24 24 23 23 22 23 25 25 23 20 20 22 24 28 28 27 24 29 20 20 22 17 11 11 16
10 13 16 19 22 25 25 25 25 25 27 26 25 24 25 26 25 25 24 23 23 23 21 23 24 23 19 18 17 21 23 25 29 30 23 14 25 30 25 20 14 15 21
16 19 21 23 25 27 26 26 27 28 30 29 27 25 24 27 26 26 25 23 24 22 20 21 21 19 17 17 17 18 21 23 24 28 16 23 25 23 24 23 22 26 25

GFSMA_850_spd_051.txt.gz
Wind_Speed
15 14 13 9 9 7 5 3 4 6 9 12 13 14 13 12 12 11 9 6 2 1 5 1 3 2 3 4 6 7 8 9 10 13 14 13 14 18 16 17 23 18 14
15 13 12 12 10 9 7 4 6 7 11 12 12 13 13 11 11 8 6 5 3 4 8 6 4 3 2 4 10 11 10 9 12 13 13 13 13 14 15 15 17 17 14
16 14 14 14 13 10 8 8 8 9 9 10 12 12 11 11 8 4 6 2 2 5 8 10 11 10 9 11 12 12 8 11 12 11 13 10 13 17 12 13 15 16 14
17 15 16 14 12 13 11 11 11 9 8 10 11 11 11 10 5 5 6 3 1 5 8 10 11 12 13 14 13 8 10 11 11 12 12 13 12 14 13 14 16 16 15
16 14 14 11 13 13 15 13 10 8 8 10 10 11 13 8 4 3 1 1 2 6 8 11 13 14 14 14 13 12 9 11 12 12 13 14 15 15 15 15 15 14 15
15 12 14 15 16 17 16 14 11 9 9 9 11 12 11 6 6 6 6 8 10 12 11 8 12 14 14 14 15 16 13 13 13 14 15 15 15 16 16 16 15 15 15
15 15 17 18 19 19 16 15 11 9 8 9 10 13 9 7 9 10 10 12 14 17 13 13 15 16 16 17 18 18 18 15 14 15 15 16 17 16 15 15 15 16 17
18 18 19 20 21 20 17 14 11 10 7 6 6 10 6 10 9 11 16 15 18 17 13 17 17 18 17 19 22 22 21 21 20 18 17 17 16 16 16 17 18 19 19
20 18 19 20 20 18 17 14 13 10 7 7 10 11 6 7 12 13 12 15 16 14 15 19 18 20 21 24 23 22 21 20 20 19 17 16 17 18 19 20 20 21 21
21 20 21 21 20 19 17 17 15 12 9 11 14 14 13 14 10 12 12 14 17 20 18 20 22 23 24 23 24 24 23 22 20 20 20 18 19 20 22 23 24 24 25
23 24 24 23 21 20 21 18 17 14 17 15 16 15 16 16 16 16 19 15 14 15 19 22 25 22 24 23 23 23 22 21 21 24 27 29 25 25 26 27 28 28 29
26 25 25 24 23 23 22 22 20 18 15 19 22 19 15 12 10 12 16 18 18 17 16 16 18 18 18 20 21 23 24 26 30 33 34 35 35 34 32 30 30 31 31
27 26 27 27 27 24 23 27 21 15 20 19 16 15 14 14 15 17 16 18 18 17 17 15 14 17 17 20 24 26 28 32 35 33 33 33 33 33 32 29 28 28 28
23 25 29 28 24 22 24 22 16 19 15 12 11 13 15 16 16 15 13 13 18 19 16 16 14 14 18 20 24 27 32 33 32 32 31 31 31 30 29 25 25 25 26
28 27 27 30 27 27 21 18 15 12 8 8 15 16 15 14 15 16 16 13 13 17 18 15 14 15 18 22 25 29 31 31 31 30 30 30 30 29 29 27 25 25 26
27 26 33 33 26 16 14 12 7 5 9 17 18 14 13 15 16 14 13 13 13 16 22 17 17 17 21 20 27 28 29 29 29 29 29 29 28 28 28 27 27 27 27
30 33 31 28 23 16 14 8 9 18 16 14 14 14 15 15 16 15 15 15 15 16 20 21 20 18 25 26 23 26 28 27 27 28 27 27 28 29 29 28 27 25 25
26 27 28 22 20 18 19 18 21 14 12 14 13 15 16 16 17 16 18 19 19 17 19 24 20 19 21 22 26 27 26 25 25 26 26 25 27 27 22 21 23 24 23
20 25 22 20 17 17 17 18 17 13 15 15 15 17 17 18 21 21 20 22 22 22 24 22 23 20 21 21 21 22 23 23 23 25 24 23 19 17 19 21 24 24 23
17 19 22 21 19 17 18 20 19 17 18 18 19 21 20 21 23 23 23 22 25 26 21 22 22 21 19 18 20 19 19 19 21 22 17 18 17 20 21 22 24 24 25
19 19 17 15 16 18 23 20 17 19 18 21 24 24 24 25 25 25 26 25 26 25 21 21 21 20 19 18 18 19 19 19 21 17 14 16 20 19 17 16 17 20 22
19 15 12 15 20 26 19 13 15 19 24 27 27 28 27 27 28 27 30 30 27 22 26 22 21 22 20 19 18 17 18 18 19 15 20 23 19 19 16 15 15 17 17
7 10 16 20 23 15 14 17 21 26 27 28 31 30 31 30 28 28 29 27 28 26 27 24 24 22 21 19 18 17 16 17 19 21 22 24 20 18 16 17 15 14 10
13 19 13 10 14 17 19 21 23 27 30 32 31 30 30 30 29 27 30 26 28 27 25 24 25 25 23 24 21 18 16 18 20 19 17 23 16 18 20 21 15 13 15
8 10 13 16 19 22 23 24 26 30 32 32 32 31 30 30 28 25 28 31 27 30 24 23 25 25 25 23 19 16 16 17 21 21 17 13 17 23 22 20 10 13 15
13 15 17 19 22 25 25 26 27 30 34 35 34 33 30 29 29 28 27 30 32 31 24 23 23 24 22 21 19 18 15 17 18 18 8 16 18 18 18 11 11 19 16

GFSMA_850_spd_054.txt.gz
Wind_Speed
18 16 15 13 13 11 6 4 2 3 7 9 10 12 11 10 10 4 2 1 2 4 4 3 6 8 8 8 8 7 7 8 11 11 10 10 9 10 14 14 18 15 12
17 16 13 14 12 9 7 6 4 3 4 7 9 10 9 10 8 4 2 3 2 5 8 6 3 3 3 7 12 13 12 12 11 10 10 8 9 15 10 12 12 14 13
17 16 14 12 11 10 10 8 6 5 4 6 8 9 9 10 7 4 2 2 1 5 7 9 11 13 13 13 15 15 10 10 10 10 10 9 11 11 11 12 12 14 12
18 18 16 15 14 12 13 11 7 6 5 3 5 5 7 7 5 6 1 2 2 2 6 12 14 15 17 17 17 12 11 11 11 12 11 12 12 13 13 14 13 14 14
20 19 19 17 15 16 14 13 12 7 6 3 2 3 9 5 5 4 3 3 4 3 5 13 14 16 17 16 16 16 13 12 13 13 14 14 15 14 14 14 15 15 15
21 20 20 19 17 17 18 17 15 12 6 4 3 5 7 6 6 6 5 6 7 7 8 8 9 11 17 17 15 17 16 13 15 15 15 15 15 16 15 15 15 16 16
23 21 20 18 20 19 21 18 16 12 8 6 4 6 10 9 8 8 9 9 11 10 10 9 9 10 13 18 17 17 19 17 15 15 16 16 16 17 17 16 16 16 17
24 21 20 18 19 22 22 20 16 11 8 9 4 6 7 8 7 11 11 12 12 11 11 11 11 12 13 12 16 23 22 22 22 21 18 17 17 17 17 18 19 19 19
25 22 21 21 23 23 23 21 18 14 9 9 9 5 6 11 15 12 12 12 13 13 11 13 14 14 15 15 17 16 21 23 24 21 20 17 17 19 20 21 22 23 23
23 24 23 25 25 24 24 22 21 16 13 8 8 12 16 11 10 11 9 11 11 12 14 14 16 18 18 17 17 20 23 24 23 22 22 22 21 23 25 26 27 27 27
25 26 26 26 26 26 25 24 23 21 22 15 14 12 8 12 12 13 16 13 13 16 15 16 18 18 17 17 14 16 23 23 24 25 26 30 31 29 28 28 29 29 29
25 27 28 26 25 25 26 26 25 25 24 18 13 15 12 12 11 14 17 17 18 18 17 16 16 15 15 15 15 19 26 28 29 31 33 34 33 31 28 26 27 27 28
28 28 27 26 28 28 30 25 26 26 22 16 16 11 11 11 10 12 16 18 17 17 17 17 16 16 16 15 15 23 25 30 34 33 33 33 32 32 31 30 28 26 26
29 24 26 27 30 29 26 29 25 22 19 17 10 12 9 10 11 13 14 15 18 18 16 17 16 17 16 17 19 26 23 25 33 32 32 32 32 32 31 30 29 26 26
29 24 29 27 24 32 34 31 24 18 14 8 10 14 12 12 12 12 13 14 15 19 20 17 17 16 18 19 20 22 23 24 31 32 31 30 30 30 29 29 27 26 26
24 26 26 22 27 35 32 26 23 21 16 15 15 15 13 13 13 13 13 15 16 19 24 18 19 19 19 21 20 23 23 28 28 31 31 28 29 29 31 31 29 28 27
20 22 19 30 32 32 27 18 19 18 18 15 15 14 15 15 15 14 16 17 18 19 23 24 21 21 21 22 21 22 22 24 24 26 31 29 29 30 31 30 30 29 25
18 20 27 29 28 25 23 24 16 16 16 15 16 17 17 16 17 18 19 20 21 21 23 26 24 24 23 23 24 23 22 21 23 24 29 28 29 30 28 27 25 23 24
15 16 19 24 24 24 20 13 15 17 16 18 19 18 18 19 20 21 22 23 23 23 24 25 27 24 24 23 23 23 22 22 21 23 27 28 28 26 25 26 24 25 26
13 16 18 20 23 19 13 17 16 17 19 19 20 20 21 22 23 24 25 25 25 25 25 26 27 25 24 22 21 23 22 20 21 20 22 23 23 25 27 27 25 23 21
11 14 18 17 10 14 16 19 20 25 19 21 20 21 23 26 28 30 29 28 26 27 26 26 26 24 24 22 22 21 23 21 20 19 18 18 20 22 21 22 22 19 20
12 10 10 10 14 18 21 21 20 18 20 20 23 25 26 27 31 32 34 35 34 32 29 28 25 25 24 23 21 21 21 20 22 16 16 22 20 21 21 20 20 26 22
8 10 11 15 18 19 18 15 17 23 23 23 25 26 28 28 30 31 32 34 35 36 37 31 28 27 24 23 22 22 20 20 21 20 20 23 20 21 19 20 22 26 23
7 11 13 10 9 11 17 18 21 26 26 26 28 29 30 31 30 30 30 29 31 29 32 30 29 26 24 22 20 20 19 20 19 18 17 24 20 20 20 22 24 24 21
3 4 6 9 11 13 20 22 25 28 27 29 29 30 31 33 33 32 32 33 31 32 28 32 30 30 27 28 26 21 19 18 20 18 17 20 15 21 21 21 13 14 17
5 8 10 13 17 20 20 25 28 31 34 31 31 32 33 34 36 35 35 36 34 32 26 28 26 29 29 28 26 24 18 18 18 19 11 15 19 19 22 16 12 20 15

GFSMA_850_spd_057.txt.gz
Wind_Speed
16 13 13 12 12 11 9 7 3 2 0 3 5 7 6 7 7 4 5 3 4 5 5 3 3 5 5 8 9 10 10 11 14 12 11 11 8 13 14 13 15 14 12
17 16 17 12 12 11 10 7 7 4 3 1 3 5 3 5 4 5 1 7 5 8 8 7 6 5 7 9 13 14 14 14 14 12 11 9 12 14 12 12 13 14 13
17 14 13 13 13 12 10 11 9 6 3 3 1 3 3 4 2 1 1 4 5 7 8 10 10 12 14 15 16 16 14 10 11 11 11 11 13 13 14 14 15 14 14
15 17 14 14 14 14 12 10 9 6 6 4 4 2 1 1 2 2 2 4 4 6 9 9 13 16 18 17 18 17 14 12 12 12 12 13 14 15 15 15 15 16 16
20 17 15 13 16 13 17 15 11 10 8 7 5 4 4 3 4 4 5 4 6 6 5 12 15 15 16 17 18 17 13 12 12 13 14 15 16 16 16 17 17 16 16
18 19 15 15 20 18 17 17 16 14 9 8 6 8 7 6 5 7 7 7 8 8 7 8 11 13 14 17 18 18 18 12 14 15 15 15 16 17 18 18 18 18 18
21 21 19 19 24 17 18 18 19 17 10 9 7 9 10 13 11 7 9 9 9 11 10 11 10 7 12 17 18 18 16 18 21 15 15 16 17 18 19 18 18 20 21
19 19 20 20 22 19 21 22 21 18 12 11 8 9 7 8 11 11 9 11 12 11 12 12 12 11 12 12 16 20 24 25 22 19 19 18 18 17 18 19 21 22 23
26 22 24 24 23 20 21 23 24 21 14 12 11 8 6 6 13 10 11 11 11 12 12 11 13 14 14 15 16 17 21 22 23 24 22 21 20 19 21 23 25 26 27
26 25 30 28 22 20 27 23 23 20 17 15 12 11 13 13 9 10 6 11 13 11 12 13 14 15 16 16 18 20 26 30 27 23 24 24 25 26 26 27 28 29 30
28 28 27 29 26 32 27 25 23 22 16 17 23 18 14 12 11 15 16 11 12 13 14 13 14 14 18 16 15 21 25 27 27 28 29 30 31 31 29 27 27 27 28
24 23 23 28 32 30 27 25 22 21 25 22 21 19 15 9 13 15 19 17 17 17 17 17 18 17 14 15 15 22 28 30 30 30 32 31 31 32 31 28 26 26 27
22 23 24 23 29 28 26 21 25 25 24 24 21 19 14 14 14 15 15 17 18 17 17 17 17 17 16 16 17 22 27 31 33 32 33 33 32 32 31 30 28 26 26
24 28 25 23 23 26 27 29 23 27 29 23 21 17 16 10 13 15 16 16 18 18 18 18 16 17 18 18 19 23 28 28 26 31 36 34 33 31 31 30 29 27 26
27 25 21 22 27 30 30 21 30 29 24 23 21 17 16 10 15 16 16 17 16 20 20 17 18 17 19 19 20 21 22 25 30 35 33 31 31 28 29 30 30 30 27
23 20 19 22 21 21 25 27 29 29 25 20 15 16 8 12 17 17 17 17 17 20 25 20 20 20 20 22 22 27 23 28 30 30 33 34 34 32 30 29 30 30 28
18 18 21 20 18 26 30 28 24 23 18 13 14 11 11 18 20 20 19 19 20 20 25 26 23 23 24 23 24 25 24 24 28 28 29 33 35 34 31 30 28 28 27
17 16 17 20 23 25 24 21 22 18 12 15 11 12 18 19 22 22 23 24 24 24 26 29 29 28 28 26 26 25 25 26 27 27 29 33 32 31 29 27 25 26 25
15 16 17 18 18 19 20 17 12 11 12 14 14 19 21 21 24 25 24 26 28 28 29 29 31 29 29 27 27 26 25 25 25 27 26 27 27 29 30 26 26 27 25
13 11 13 14 15 14 13 10 13 14 15 16 20 23 23 23 25 26 28 30 31 32 33 33 32 33 32 28 27 26 26 26 25 23 25 25 25 25 24 26 27 26 25
10 10 12 10 10 8 9 13 16 18 18 19 16 19 22 23 26 29 32 37 36 34 34 33 33 31 31 28 25 25 27 25 25 22 25 22 21 21 23 21 22 22 17
5 4 5 5 6 11 14 15 17 18 18 17 20 21 23 27 30 33 35 36 37 38 42 43 38 34 32 28 25 26 25 23 25 21 22 24 21 22 20 19 21 26 28
1 3 6 8 10 13 14 12 12 17 19 20 22 24 26 28 31 33 35 37 39 40 40 42 45 44 36 30 26 22 21 22 25 23 22 27 21 23 20 19 21 26 30
2 4 5 4 5 8 14 18 20 21 22 22 23 26 29 32 34 35 37 39 40 41 38 38 38 37 40 32 25 22 20 21 23 22 19 26 22 23 20 21 21 23 24
2 2 1 2 4 5 15 21 23 22 24 26 26 27 29 33 35 36 40 44 44 44 43 39 37 36 31 30 28 22 19 20 24 22 19 21 21 19 20 23 18 19 22
2 1 2 4 7 7 15 22 26 28 29 31 31 31 33 34 37 39 40 40 40 41 38 36 33 34 35 31 36 35 27 25 23 23 18 18 18 18 24 19 11 22 21

GFSMA_850_spd_060.txt.gz
Wind_Speed
17 18 14 12 11 6 6 9 5 3 2 3 4 6 5 6 10 4 6 7 4 5 5 5 7 8 5 8 9 9 10 10 11 10 10 9 12 12 15 13 14 14 13
17 13 8 7 9 14 8 8 3 1 2 2 2 2 2 2 5 6 6 5 6 7 7 6 5 4 6 9 12 12 11 11 12 12 10 11 10 12 13 14 14 15 15
14 15 18 15 12 15 12 7 10 7 8 2 5 2 3 1 1 1 4 9 8 7 6 9 11 11 12 13 15 14 12 11 13 11 10 9 11 12 13 13 14 14 15
15 18 16 16 18 16 13 13 14 9 5 5 4 2 6 5 5 5 3 5 8 6 8 10 9 11 14 17 18 18 18 16 14 12 10 11 12 13 13 13 15 15 15
22 18 17 20 20 16 17 14 13 11 10 11 10 8 8 6 9 4 8 9 13 5 3 7 10 13 13 10 12 15 16 17 15 11 12 13 13 14 14 15 16 16 16
22 21 20 19 16 17 18 18 17 17 17 12 8 12 11 11 9 10 12 10 11 13 16 10 12 10 12 12 11 14 16 14 14 12 13 12 14 15 16 17 18 17 17
21 20 21 19 20 23 22 19 21 20 20 17 18 17 15 16 16 14 12 13 11 14 17 13 17 14 12 11 14 16 16 20 20 20 17 14 15 16 16 16 16 18 19
23 23 23 19 21 24 22 21 22 22 22 21 19 11 11 12 20 15 12 15 16 17 16 16 16 15 19 19 16 18 22 22 22 21 21 21 15 15 17 18 20 21 23
26 27 25 20 19 20 19 25 29 26 25 22 21 14 7 11 9 9 14 17 16 18 17 17 16 16 15 14 16 19 23 23 23 25 25 23 22 22 21 21 23 24 26
29 30 26 25 26 34 31 33 33 29 28 25 23 20 21 15 10 7 5 11 17 22 19 18 17 19 18 18 21 22 27 29 28 27 26 26 27 26 23 24 25 25 25
30 29 31 30 27 29 32 30 35 29 29 25 24 25 22 17 14 10 13 15 12 16 17 17 17 18 20 21 23 28 25 26 26 28 30 30 31 29 26 25 24 24 25
25 25 29 32 31 27 30 33 31 30 23 25 26 20 22 20 15 11 16 17 16 19 21 19 17 18 21 25 23 22 24 28 29 29 31 34 31 30 29 27 26 25 25
29 27 25 26 26 25 27 33 32 21 23 28 26 23 21 18 18 17 13 16 20 23 23 22 21 22 24 22 20 24 25 29 29 30 36 35 34 35 34 31 29 27 26
26 23 18 20 20 25 26 28 29 25 24 27 28 23 24 19 14 16 14 19 22 25 24 23 19 20 21 23 25 26 27 28 29 34 36 38 37 35 33 31 29 29 27
25 23 21 23 22 28 28 26 22 19 25 32 30 24 21 18 18 15 17 22 24 26 26 21 21 18 20 21 24 25 27 29 31 34 36 33 33 34 35 34 32 30 30
28 25 21 22 19 24 25 22 22 27 27 26 22 19 15 15 11 17 21 23 22 24 29 23 22 23 23 25 25 25 26 30 33 34 31 30 32 34 36 35 33 31 30
24 23 19 18 19 20 19 21 27 26 23 18 17 15 14 13 17 19 24 23 25 25 28 31 27 27 26 28 28 27 29 30 31 28 24 31 34 36 34 30 31 29 24
18 19 17 18 18 20 24 25 23 18 14 12 13 14 12 13 18 21 23 26 28 29 31 37 36 34 34 33 32 31 29 29 27 29 31 29 32 29 27 28 33 26 25
18 19 18 17 20 20 18 18 16 12 11 12 13 13 15 18 23 24 26 28 30 31 31 34 38 36 35 31 30 29 28 29 30 29 26 24 22 26 30 32 28 25 26
17 14 14 14 13 12 12 11 10 9 13 15 16 18 19 23 24 25 26 28 30 32 34 33 35 35 36 35 33 32 30 26 27 27 23 26 30 29 27 25 24 28 28
10 10 8 7 8 8 7 6 9 11 14 16 18 15 15 17 21 25 28 32 35 39 43 44 44 42 40 35 33 31 29 28 29 30 25 26 26 24 24 25 26 26 27
8 6 5 6 6 6 7 8 9 13 15 15 14 17 19 23 24 25 29 31 33 36 39 41 44 42 43 38 39 38 30 28 31 26 23 26 24 27 29 30 22 24 27
8 6 5 4 4 4 7 6 6 10 13 16 18 20 22 22 25 29 32 34 36 37 36 38 41 43 45 43 40 37 34 29 25 23 22 26 27 33 24 22 24 27 28
6 5 4 3 4 0 5 10 12 14 17 19 21 22 25 28 30 31 36 41 44 46 46 37 37 41 42 41 39 36 32 26 23 28 27 29 26 24 22 24 26 27 20
7 9 7 7 6 7 9 13 18 20 21 23 25 26 28 31 33 34 37 41 45 48 47 47 45 39 37 37 38 33 28 28 30 31 26 23 23 23 24 23 24 21 18
12 11 9 9 9 10 12 17 19 22 23 24 24 26 28 30 32 33 34 37 43 45 46 48 44 43 38 33 32 35 34 28 33 32 32 21 22 21 24 27 14 11 19

GFSMA_850_spd_063.txt.gz
Wind_Speed
19 18 16 13 11 10 8 6 4 5 5 6 7 8 9 3 1 2 4 4 4 4 2 5 8 8 8 6 7 8 9 10 11 11 13 13 12 13 12 13 13 15 14
17 15 12 11 11 10 6 5 4 4 4 3 3 3 5 6 3 2 1 5 6 6 6 7 8 9 9 11 13 12 11 11 11 11 11 11 10 11 11 12 12 12 13
14 14 14 13 10 9 11 8 6 3 2 4 2 3 4 5 7 4 4 5 5 7 7 7 8 11 11 12 15 17 16 15 14 11 10 9 9 10 11 12 13 14 14
16 14 12 12 12 16 14 12 10 9 7 6 5 6 6 5 4 4 5 8 8 8 9 9 9 10 12 13 15 16 17 17 15 13 10 9 9 10 11 12 13 14 15
16 15 18 19 19 19 17 15 14 13 11 10 12 12 12 11 6 6 7 8 12 12 13 13 11 12 12 13 12 13 14 16 15 13 13 12 9 10 12 13 14 15 16
18 19 18 18 20 20 20 18 17 14 15 17 17 16 14 15 12 10 10 8 12 15 16 15 17 18 16 16 15 15 17 15 14 16 15 15 14 14 13 14 15 15 15
21 23 23 21 21 22 21 19 17 19 22 21 19 18 18 16 16 15 14 12 13 12 15 16 18 18 18 18 18 19 18 17 17 15 18 18 18 15 12 13 15 17 18
22 23 22 22 22 25 24 22 21 22 23 24 25 23 19 22 23 25 19 15 15 15 17 17 20 20 24 20 20 22 19 18 17 20 20 23 23 21 19 16 17 19 21
27 25 25 23 25 26 29 24 23 22 22 22 28 24 12 13 17 22 17 15 17 20 17 20 21 22 24 23 21 20 20 20 22 23 25 24 24 24 24 20 20 21 22
29 26 28 28 26 28 27 25 27 26 24 24 25 28 24 7 7 9 11 13 17 19 20 22 21 21 23 24 24 24 25 27 27 28 26 25 25 27 28 25 22 22 23
31 30 31 29 31 32 28 29 29 28 31 26 27 32 31 26 21 17 15 15 13 16 19 20 20 23 25 29 30 29 29 27 30 27 25 26 27 28 29 30 28 27 24
26 28 29 31 34 36 32 29 28 30 30 31 27 25 24 28 24 20 17 19 23 23 14 14 20 19 24 30 32 30 30 33 30 27 29 29 29 29 33 31 29 25 23
31 28 28 30 29 34 33 29 27 28 31 30 24 26 24 28 28 23 22 23 22 23 25 25 27 19 19 22 25 28 31 30 28 29 30 31 29 31 33 34 32 29 26
32 30 30 28 21 21 19 20 26 29 31 22 16 22 24 27 24 23 21 21 22 24 27 29 27 25 24 22 23 26 29 29 30 28 29 30 29 30 33 35 33 31 29
27 29 27 22 15 13 14 19 26 28 19 16 21 24 25 22 21 20 19 22 21 29 32 32 32 25 24 22 24 24 26 28 30 31 29 29 30 33 31 32 31 30 28
29 32 25 19 17 17 20 20 23 20 18 21 23 23 18 18 18 19 17 17 21 27 33 32 31 27 24 27 30 32 32 33 32 32 31 32 32 32 28 28 26 26 27
24 25 22 19 19 19 19 22 18 19 21 24 22 17 14 15 15 15 17 20 22 26 31 36 35 32 32 32 33 31 35 38 39 39 36 32 34 31 30 26 25 26 27
24 18 18 19 18 19 20 18 19 21 22 17 13 11 12 14 16 17 18 22 24 26 31 38 38 38 37 35 35 36 39 40 36 31 30 32 29 31 26 25 26 26 24
15 17 18 18 17 20 19 17 18 16 14 12 10 12 15 17 18 19 21 24 26 28 31 35 41 40 40 38 36 34 34 34 32 38 27 32 29 25 26 26 28 24 22
14 15 15 16 17 17 15 15 14 12 11 10 11 12 14 14 13 14 17 21 25 28 30 34 39 42 43 44 42 40 38 39 40 37 33 30 34 28 28 30 27 24 25
13 13 14 16 15 13 13 12 12 11 11 11 10 12 12 12 14 17 20 23 25 28 30 33 37 39 42 42 40 41 41 41 36 35 39 34 26 29 31 28 27 26 25
14 14 14 13 12 11 11 11 11 10 10 11 12 11 13 16 20 22 24 28 30 32 35 34 36 36 38 35 33 36 39 40 36 35 39 33 21 28 28 29 28 29 21
16 14 13 12 12 11 11 10 9 8 7 9 12 15 17 20 23 27 30 33 35 36 39 42 45 44 42 39 36 34 36 37 37 32 29 28 23 27 27 28 22 17 20
16 13 11 11 13 13 11 8 7 8 9 11 14 17 20 22 23 28 32 35 36 36 36 36 37 40 40 41 39 34 31 35 36 34 26 24 25 27 25 22 16 18 22
13 12 13 13 10 10 9 9 10 11 13 15 16 15 18 20 23 26 30 34 37 37 34 32 32 33 35 36 34 32 35 30 33 33 26 28 27 25 21 18 17 21 23
15 16 15 13 12 12 13 14 14 14 14 13 14 16 19 21 22 23 27 30 34 35 35 35 33 32 30 26 26 23 26 28 32 26 24 27 27 20 18 19 20 20 15

GFSMA_850_spd_069.txt.gz
Wind_Speed
31 30 27 26 23 21 18 17 15 12 11 11 9 6 6 6 7 8 8 9 7 6 6 6 6 8 8 6 9 10 11 10 11 11 11 12 12 13 12 11 11 12 12
32 29 27 24 22 18 16 13 11 10 10 9 8 6 6 6 6 4 5 5 4 3 6 7 5 7 8 7 9 11 14 14 12 12 11 11 11 11 11 11 12 13 13
30 27 24 22 19 16 15 13 10 10 10 9 8 6 5 5 4 2 1 2 3 3 4 6 6 6 8 11 13 15 15 14 13 13 13 11 10 11 14 14 14 12 12
26 22 21 19 15 14 13 10 9 10 10 9 8 7 6 4 3 4 4 5 5 5 4 5 6 8 9 10 13 15 14 14 13 14 15 14 13 14 15 16 16 14 11
22 20 18 16 15 14 12 10 10 9 10 9 9 10 8 6 5 7 8 9 10 8 6 6 8 10 11 11 13 15 15 14 14 17 17 15 15 15 16 16 16 16 13
24 20 18 15 14 13 13 13 10 11 12 9 10 13 12 10 11 11 12 12 12 10 9 9 10 11 11 11 13 14 14 14 17 17 16 15 15 17 18 17 17 17 18
21 18 18 16 16 15 13 12 13 14 15 13 15 18 18 18 18 17 17 16 16 14 13 13 13 14 13 14 14 14 15 15 15 16 15 18 20 21 20 19 18 18 20
28 20 17 18 15 15 17 17 19 19 18 19 21 20 19 23 26 24 23 23 21 18 18 17 18 18 17 18 17 17 18 18 17 17 19 22 22 23 22 21 21 21 23
27 22 21 19 20 22 22 21 22 23 22 23 24 22 10 17 16 24 28 29 28 23 22 21 22 21 21 21 21 22 22 22 22 22 22 24 25 25 24 24 24 24 25
27 23 22 21 22 22 23 24 25 26 25 26 26 27 30 28 16 12 23 27 30 29 23 23 26 24 25 25 25 25 25 26 27 27 27 28 28 27 26 26 26 26 27
34 29 26 26 26 27 26 27 28 28 27 28 28 29 28 31 35 31 21 22 26 25 21 22 26 27 27 27 27 29 29 29 32 31 30 31 31 30 29 28 28 28 29
38 36 32 31 29 31 30 30 30 32 32 31 31 30 29 31 29 36 29 27 25 25 24 23 23 25 28 31 31 31 27 30 32 32 32 33 33 33 32 31 31 31 29
41 39 35 35 34 33 32 31 34 35 35 34 32 30 29 31 27 30 26 25 27 26 26 24 25 25 26 27 27 28 28 29 30 31 32 33 35 35 35 35 35 33 30
41 36 36 38 36 33 31 30 36 34 33 30 32 30 30 28 22 22 21 24 25 25 26 26 25 24 29 25 26 26 27 27 28 27 31 35 36 37 38 38 38 36 34
40 37 37 38 40 41 38 32 35 36 30 30 29 27 22 17 20 22 24 25 24 19 21 24 28 29 21 22 24 27 29 27 24 25 27 30 33 38 42 42 42 40 36
36 38 43 41 40 38 37 37 35 24 21 22 22 21 24 21 19 22 23 22 21 20 25 26 28 26 24 29 27 29 31 29 30 32 34 35 37 37 39 46 45 40 36
35 35 39 34 43 37 33 30 27 23 23 20 20 25 22 22 22 22 23 21 20 21 24 26 28 25 26 29 32 32 32 32 34 35 37 38 39 40 41 43 46 47 45
34 24 29 34 36 36 34 31 31 28 27 22 23 24 25 24 23 22 20 20 20 20 25 27 27 27 30 33 33 35 36 37 38 38 38 40 42 42 44 44 46 47 51
37 26 29 36 34 33 28 29 33 27 24 24 22 24 25 24 20 19 19 22 27 28 28 29 30 32 34 35 38 39 40 41 41 41 42 43 41 41 42 44 42 44 45
38 35 32 34 36 35 30 31 28 26 25 23 21 24 23 22 21 22 22 26 23 22 23 27 30 34 36 38 41 43 47 46 47 45 44 44 43 42 45 41 37 41 44
40 39 37 33 33 31 27 28 27 27 26 24 23 24 23 22 21 22 23 21 21 23 26 30 32 36 38 40 40 39 40 42 42 40 40 38 33 35 36 37 35 36 39
48 42 39 30 28 28 27 27 27 27 25 26 25 25 23 21 21 21 20 21 24 26 28 30 32 34 35 36 34 33 34 37 41 36 30 41 33 35 33 31 33 35 38
35 36 31 29 28 27 27 27 25 25 24 25 23 22 21 21 21 21 22 23 25 26 26 28 30 29 32 31 32 32 32 34 37 36 33 39 34 35 32 27 29 32 25
34 32 31 29 27 25 26 25 25 24 24 21 21 21 21 21 21 22 23 22 21 22 23 24 25 27 27 28 28 29 32 35 37 33 29 34 33 33 29 29 29 19 17
31 30 28 26 25 25 25 24 23 22 20 21 20 20 20 21 22 22 22 22 23 22 22 23 24 24 25 24 22 26 28 28 34 36 31 30 31 30 31 33 23 17 19
30 27 26 25 26 26 25 22 22 22 20 19 19 20 20 20 20 21 22 21 21 22 23 24 24 24 24 22 20 20 24 24 29 35 30 30 29 28 31 29 20 20 20

GFSMA_850_spd_072.txt.gz
Wind_Speed
35 33 31 30 26 24 20 19 15 14 14 14 12 10 11 11 10 10 10 10 9 8 7 6 6 8 8 8 10 10 9 9 8 9 9 10 10 11 11 12 13 13 12
33 32 29 25 25 22 21 17 14 15 14 12 10 10 9 8 7 6 6 6 5 5 6 6 5 7 8 7 8 9 9 9 8 8 9 9 11 12 11 11 12 12 12
30 26 26 27 23 22 21 16 15 14 12 11 10 9 7 6 5 4 3 2 2 1 2 3 2 4 7 8 8 9 10 10 9 9 10 10 9 11 11 12 13 13 12
24 32 29 23 21 19 16 13 12 13 12 10 8 8 7 6 5 5 4 2 2 3 3 2 2 3 5 7 9 10 10 11 11 10 11 12 11 11 12 13 13 14 13
34 27 23 21 19 17 15 12 13 9 8 8 8 8 8 8 7 8 7 6 6 6 6 7 5 6 7 8 8 10 11 12 12 11 12 12 11 13 14 15 15 15 15
29 24 19 20 18 15 15 12 11 10 8 8 8 9 10 10 11 10 10 10 10 10 10 10 9 8 8 10 10 10 11 12 12 12 13 13 12 15 16 17 16 16 16
30 24 21 18 17 15 13 12 12 11 10 11 12 13 15 15 17 17 16 16 16 15 16 14 13 11 10 12 12 12 12 13 13 14 16 17 17 18 19 19 19 20 20
26 24 23 21 18 15 15 15 15 13 12 13 16 15 16 21 23 23 23 23 23 21 22 19 16 15 14 15 15 15 15 15 16 16 17 20 22 22 22 23 23 23 23
34 35 26 22 18 16 16 15 15 17 17 16 18 18 9 13 16 18 19 25 27 28 26 24 20 17 18 19 19 19 19 19 19 20 20 22 25 27 25 26 26 24 24
31 31 29 24 19 18 20 19 17 21 20 21 22 26 28 29 19 13 20 20 23 30 31 28 24 23 19 23 22 22 23 23 24 24 25 25 27 30 29 29 28 27 27
28 26 25 26 25 22 20 20 21 23 23 25 28 30 29 30 31 32 27 26 28 28 26 27 24 23 22 21 23 23 26 27 29 30 28 30 28 29 29 28 28 29 29
36 35 35 30 26 23 27 25 24 26 27 29 32 33 33 28 27 27 27 24 26 25 17 19 23 20 18 19 22 25 29 27 27 27 27 30 31 34 33 31 31 29 28
44 42 39 38 35 29 28 29 29 31 32 33 35 37 35 33 32 30 26 26 22 19 19 22 22 21 21 23 23 25 27 26 24 26 28 29 32 34 35 35 35 35 33
41 44 43 40 37 33 33 34 35 36 35 36 36 33 30 30 28 26 24 19 19 18 19 21 22 21 21 21 26 21 20 21 23 25 25 25 27 28 32 36 36 38 39
45 45 44 43 39 35 38 36 34 34 36 37 30 30 29 27 24 22 20 20 20 21 22 21 19 21 23 24 22 22 24 23 26 26 23 24 27 29 31 34 36 37 38
38 39 40 40 38 38 38 38 33 29 35 41 38 27 25 25 21 22 23 21 21 22 21 21 21 24 26 25 23 22 24 28 29 28 28 29 31 33 35 36 38 40 42
37 35 35 36 36 37 40 40 34 36 33 31 29 24 23 20 23 24 23 23 23 23 23 22 24 26 30 28 26 27 29 29 31 32 33 35 37 38 40 41 42 42 42
37 34 35 38 41 40 42 34 38 35 32 29 29 26 23 22 26 25 26 25 23 21 23 24 25 27 28 26 27 30 31 33 36 38 40 41 43 44 45 45 44 43 41
37 33 35 34 34 26 20 28 33 32 30 34 28 28 27 25 23 25 26 26 24 21 22 25 26 27 26 27 30 32 35 36 37 38 38 39 39 39 41 44 45 43 40
40 38 42 42 40 31 30 35 32 32 30 33 30 26 27 24 23 26 25 24 21 21 22 22 22 24 26 28 32 35 37 37 39 37 38 35 35 34 33 34 37 39 39
33 42 43 39 39 35 34 32 30 32 31 33 29 25 25 25 26 26 23 21 21 21 20 21 23 26 27 28 31 33 37 39 39 39 36 34 34 33 34 34 31 33 32
43 38 41 42 38 34 33 30 29 31 27 29 29 27 25 25 26 24 21 19 20 19 20 21 23 25 26 28 30 31 34 37 40 37 37 38 32 34 35 33 28 24 24
39 41 39 40 40 37 32 25 24 27 27 27 27 25 24 24 22 19 18 20 20 20 21 21 22 23 25 26 29 30 31 33 35 38 36 40 33 36 34 30 21 18 22
41 42 38 37 35 28 26 28 29 28 25 25 24 23 22 20 20 19 19 19 20 19 19 21 22 22 24 24 25 27 29 32 35 33 29 36 33 34 35 30 21 20 22
38 34 32 29 29 28 31 30 27 25 24 23 22 21 20 20 20 19 19 19 18 19 20 20 22 22 23 21 22 25 26 28 36 34 31 31 32 35 36 34 22 22 10
31 27 29 29 28 27 24 23 22 22 22 21 19 19 19 19 19 19 19 18 18 19 20 20 20 19 21 21 20 21 24 27 30 35 23 27 34 32 30 31 20 17 10

GFSMA_850_spd_075.txt.gz
Wind_Speed
35 31 30 31 29 27 26 24 22 19 18 16 15 14 15 15 14 14 14 12 10 8 9 8 8 9 9 9 10 10 9 8 9 10 10 11 12 11 12 12 11 9 8
34 33 34 30 26 23 22 17 19 20 17 14 14 13 12 11 11 10 10 11 9 8 6 6 6 7 7 6 7 7 8 8 8 7 8 10 13 13 12 10 11 11 11
32 33 33 28 24 20 16 17 20 19 17 16 13 12 11 9 8 7 7 7 6 5 4 3 4 3 5 5 5 7 8 8 7 7 8 9 10 11 12 13 14 13 12
38 36 30 25 21 19 17 19 21 17 16 14 13 12 11 10 8 7 6 5 5 6 4 2 1 2 2 4 5 7 8 8 8 8 9 9 9 9 12 14 14 13 13
38 32 30 28 26 23 21 20 18 14 14 12 11 10 10 10 9 8 8 7 6 6 6 6 6 5 5 4 5 7 7 8 9 10 10 9 9 10 13 15 15 15 14
31 31 29 26 24 21 21 20 16 14 12 11 11 10 10 10 10 10 9 11 10 11 11 10 10 10 8 7 6 7 8 9 11 12 13 13 12 13 14 16 17 16 16
25 30 29 23 18 19 18 17 17 16 14 13 11 12 12 13 15 15 15 15 15 15 15 13 13 14 12 10 9 10 9 9 11 15 16 19 20 18 17 18 20 20 20
31 34 24 22 22 21 22 19 17 15 14 14 15 13 10 15 20 20 21 21 20 20 20 18 18 19 15 14 12 12 13 13 15 15 17 20 22 26 24 22 22 22 22
34 31 28 27 24 23 20 19 16 15 16 16 17 14 7 10 8 11 12 15 20 23 26 23 23 22 20 17 17 15 17 17 19 18 18 21 23 24 30 29 27 25 23
36 36 32 27 24 27 21 20 16 16 18 21 20 20 20 21 16 12 15 12 16 20 20 27 27 29 24 22 22 20 20 21 22 24 25 26 24 25 27 33 32 27 25
40 38 35 30 29 28 26 21 20 18 17 20 22 24 24 25 26 27 24 19 21 19 16 24 24 23 24 23 24 23 23 22 26 27 31 30 31 28 28 31 34 32 30
38 39 38 37 33 33 28 24 23 20 20 19 24 28 30 27 25 26 27 29 25 21 19 17 16 18 21 24 21 19 21 22 24 26 28 31 30 29 30 33 34 36 33
44 41 38 38 35 30 26 24 24 21 24 24 28 30 30 31 34 33 33 27 25 20 17 13 12 16 19 17 18 19 18 21 25 25 26 27 28 30 31 33 36 36 37
44 41 37 34 32 32 33 35 33 30 30 29 29 30 30 29 25 27 34 30 21 18 16 15 14 15 16 19 18 19 20 20 22 25 28 29 28 28 27 28 30 34 38
48 45 44 41 40 40 38 37 37 36 32 28 28 31 34 30 29 30 28 24 23 18 15 17 16 16 16 17 20 21 23 24 24 24 25 26 26 28 30 33 35 37 40
52 48 47 46 44 44 44 43 41 41 36 34 28 22 24 30 29 25 21 21 23 22 20 18 18 20 20 21 23 24 24 23 24 25 25 27 29 30 32 35 37 40 42
49 49 49 50 46 41 40 39 41 41 40 33 28 33 36 29 26 24 21 23 25 22 22 23 21 22 20 22 27 25 23 24 26 25 27 30 32 33 35 37 40 42 45
40 41 39 35 34 35 36 46 44 47 48 37 31 34 27 25 28 26 24 24 22 25 25 25 22 20 20 23 26 23 23 25 26 27 28 30 31 33 35 37 38 40 42
40 40 36 36 34 38 39 38 33 33 36 29 32 27 26 32 32 28 24 24 25 24 25 23 19 20 22 20 21 22 23 24 23 25 27 28 30 31 33 35 36 37 38
41 39 39 38 39 42 39 34 30 25 24 25 26 27 29 34 33 30 26 24 25 25 22 20 19 19 19 21 22 23 23 24 25 25 26 26 29 31 31 32 34 34 36
46 43 39 39 41 44 38 36 35 28 29 35 35 33 30 33 30 28 24 23 26 24 23 22 19 19 20 21 20 21 24 25 25 24 27 27 31 33 31 31 31 32 32
42 40 40 38 32 43 46 37 30 33 33 34 33 31 32 29 28 27 25 24 23 22 19 19 19 20 20 20 20 21 23 24 21 24 28 32 32 33 31 29 29 31 26
40 42 40 39 35 35 37 33 34 32 34 34 33 30 32 31 28 24 24 23 20 20 18 18 19 19 18 19 20 21 22 24 24 27 29 32 31 31 25 27 29 30 22
39 40 37 34 31 33 37 36 36 36 34 29 29 29 27 26 24 22 21 20 18 16 18 17 16 17 17 18 20 22 23 25 27 26 26 28 29 26 24 25 29 24 20
28 29 31 31 31 31 34 35 34 32 28 28 28 26 24 22 20 20 18 15 15 16 16 16 17 17 18 19 20 21 23 25 27 25 28 21 21 24 27 28 20 23 22
25 26 27 29 31 32 31 30 30 29 30 29 26 23 22 20 18 16 13 14 14 15 15 15 15 15 16 17 18 21 23 24 23 25 11 20 23 21 25 22 19 22 19

GFSMA_850_spd_078.txt.gz
Wind_Speed
41 41 38 33 33 26 26 22 19 19 20 18 16 16 15 14 14 12 13 13 12 10 9 9 9 9 9 9 9 11 11 11 10 10 11 11 11 10 11 10 10 10 9
37 38 34 34 34 26 23 20 19 18 18 16 16 16 15 13 13 12 12 12 10 9 8 7 7 7 6 7 7 7 7 6 7 7 8 10 10 10 11 12 11 11 10
35 31 32 32 29 27 23 21 19 17 16 14 14 16 14 12 11 12 12 11 10 7 6 5 4 4 5 5 5 5 5 5 6 6 6 8 9 10 11 11 11 11 11
36 36 33 30 26 24 25 22 18 18 16 14 13 12 12 11 11 11 11 11 11 10 7 7 5 4 2 1 1 2 3 3 4 6 6 7 8 9 10 12 13 13 13
31 30 27 24 24 23 23 21 20 18 14 14 13 12 11 11 11 11 12 11 12 12 11 11 9 8 7 5 4 3 4 4 4 6 7 7 8 9 10 12 14 15 15
33 31 32 31 32 29 22 20 18 18 13 13 12 11 11 11 12 12 12 12 13 13 12 12 13 14 10 9 9 9 9 9 9 8 10 9 10 12 12 14 15 16 17
39 41 38 34 29 25 20 17 17 15 13 15 11 9 11 14 15 15 14 14 14 15 14 15 15 15 14 12 13 13 12 13 14 14 14 16 17 18 17 17 18 19 19
41 39 34 33 27 24 25 18 20 16 14 16 10 8 8 12 19 19 19 18 20 19 18 20 19 19 18 16 18 16 16 15 15 16 18 21 23 24 27 26 25 24 23
40 35 31 30 29 25 20 20 20 20 18 17 18 9 6 9 9 13 17 16 18 22 22 21 23 22 22 22 22 21 20 18 18 18 19 21 22 24 25 28 30 30 32
38 33 31 28 28 27 25 23 22 20 18 16 19 21 18 15 10 6 9 15 16 16 17 21 23 25 27 29 27 26 24 24 20 23 24 25 27 27 28 27 29 32 33
39 35 33 29 31 32 28 25 24 23 23 19 19 17 20 20 22 26 20 14 16 19 19 17 20 24 25 28 27 28 27 27 25 27 27 29 31 31 31 30 29 30 32
42 44 40 39 32 32 28 28 24 23 23 23 21 20 18 20 15 19 22 23 22 22 21 19 22 22 22 22 26 25 27 25 25 26 27 29 30 32 32 31 30 32 33
48 47 42 45 39 35 31 33 28 27 27 25 27 25 25 26 22 23 24 31 32 28 22 22 19 19 18 18 22 24 22 22 24 24 26 29 29 29 30 31 33 35 36
52 48 48 41 43 38 37 37 33 29 24 25 24 23 25 24 25 29 28 26 29 26 26 19 21 19 20 21 22 22 23 23 24 25 26 26 28 28 27 28 30 31 33
48 48 43 43 44 40 37 37 33 29 23 24 24 26 27 30 29 31 29 26 28 23 25 23 17 22 20 22 23 22 21 25 24 26 25 27 26 26 27 28 30 32 35
45 47 44 43 42 42 41 36 32 30 29 29 33 35 33 31 31 33 30 26 25 25 23 16 19 19 19 19 21 21 20 23 26 27 26 25 26 26 28 29 31 33 35
41 40 40 39 39 38 36 35 34 33 34 41 40 37 35 32 30 31 32 31 27 25 27 26 17 23 23 22 23 21 21 21 20 23 23 24 25 26 27 28 29 31 34
46 43 42 41 41 41 40 40 40 48 42 43 48 52 45 45 34 36 33 29 28 28 27 30 28 28 28 26 25 23 21 21 23 25 23 24 25 26 25 26 28 31 35
43 42 41 45 46 45 42 43 52 43 39 38 41 48 48 37 31 43 39 35 33 31 32 29 30 30 30 26 24 25 24 24 25 25 24 24 24 22 23 26 29 32 34
40 40 41 44 43 42 39 43 40 38 37 38 33 27 21 27 35 35 31 37 34 35 35 30 29 29 26 25 24 21 19 20 21 22 24 23 21 21 24 26 29 32 32
39 39 41 42 41 38 40 42 41 39 39 39 35 34 31 34 34 36 32 40 40 36 31 29 28 26 23 21 18 13 19 17 19 20 21 19 20 23 23 26 28 30 31
41 37 39 39 40 40 41 40 44 43 43 37 36 36 35 34 35 35 34 36 34 31 31 28 25 22 17 18 20 18 16 14 12 11 17 19 21 22 21 24 27 31 27
35 37 39 41 39 39 45 39 39 39 43 43 38 38 39 35 36 34 34 34 34 31 27 24 21 18 17 18 19 16 15 13 14 15 19 19 17 20 20 21 25 30 30
35 34 33 32 33 40 40 35 36 39 37 39 39 38 36 37 36 35 34 33 27 24 22 18 15 18 19 20 18 17 16 17 17 17 16 20 15 20 18 19 24 26 24
29 27 32 32 31 31 27 29 32 35 37 39 37 35 33 32 31 27 28 26 23 19 15 13 15 18 19 19 18 18 17 13 16 14 16 20 14 19 21 24 16 19 23
26 24 25 26 27 29 31 31 31 31 35 36 35 32 29 28 27 25 21 18 16 13 13 15 17 17 17 18 17 18 17 17 14 14 10 17 16 19 16 14 12 18 18

GFSMA_850_spd_081.txt.gz
Wind_Speed
45 40 33 30 31 23 24 25 19 20 17 16 14 16 15 14 14 15 16 16 14 13 12 12 11 11 10 10 10 10 10 9 9 9 10 10 10 10 10 9 9 8 9
44 39 39 32 28 24 22 21 19 19 17 15 16 15 15 15 14 14 14 15 13 12 11 10 10 9 9 8 8 8 8 7 6 7 8 8 9 9 9 9 9 9 9
45 41 35 35 28 25 24 22 21 18 16 16 16 16 15 15 14 14 14 14 14 12 11 9 8 8 8 7 6 5 5 4 4 5 6 6 7 7 8 9 9 10 11
43 41 33 30 27 28 25 21 20 18 16 16 16 15 14 14 14 14 12 11 11 11 11 11 8 7 6 5 4 3 3 2 2 3 4 5 6 7 8 9 10 11 11
42 39 35 35 33 32 30 27 22 19 16 15 15 14 13 12 13 12 13 13 12 12 11 9 8 8 8 7 6 6 5 5 3 2 1 1 3 4 7 9 10 12 12
41 38 34 28 26 21 19 16 18 18 16 14 14 13 13 12 12 13 13 13 13 15 14 14 12 13 12 10 9 10 10 10 9 8 7 6 6 7 9 11 13 14 16
41 38 36 28 26 28 23 21 23 22 17 15 14 12 11 12 13 13 13 13 15 16 15 15 15 13 14 14 14 14 15 16 16 15 14 14 13 13 14 17 17 20 21
37 33 33 36 36 32 27 28 24 20 15 17 15 12 11 11 14 16 15 16 16 15 16 18 20 21 23 20 19 19 20 20 19 19 20 22 21 20 21 22 23 24 24
42 36 38 42 36 29 29 25 24 20 16 16 16 10 8 8 9 9 15 18 19 21 20 21 22 24 24 23 21 22 22 22 21 22 21 21 22 22 23 24 26 27 29
41 44 39 42 39 31 27 24 21 20 18 15 17 16 14 6 7 8 11 12 16 20 22 21 23 24 23 26 29 29 30 28 25 24 25 25 26 27 27 28 28 29 30
43 40 39 35 37 36 30 30 22 21 22 18 16 17 21 18 19 13 13 16 20 20 22 23 24 24 27 29 30 33 31 31 28 27 28 28 29 30 30 32 32 31 30
47 46 40 34 35 36 31 33 33 23 22 23 20 19 18 17 18 21 20 15 20 18 20 19 20 23 25 25 28 28 29 29 28 28 30 29 29 31 30 31 31 31 30
48 47 43 40 38 34 34 35 28 26 26 24 23 25 23 22 18 19 21 25 24 23 26 30 27 28 23 25 27 27 26 28 27 28 26 26 27 28 30 30 30 31 31
55 50 47 42 37 36 39 39 33 29 29 25 26 26 26 24 23 22 22 23 23 29 27 28 27 27 28 29 27 23 24 25 27 27 25 26 27 29 30 29 28 28 28
55 53 50 53 52 49 46 44 38 35 36 32 31 28 27 27 25 25 25 27 30 21 28 28 27 30 27 24 26 25 24 26 27 26 25 27 29 29 29 28 28 28 30
55 51 57 55 55 48 46 46 43 38 42 40 36 34 31 29 27 29 29 30 33 33 30 27 26 23 27 27 28 27 24 25 27 26 27 29 29 28 28 28 28 29 30
50 48 48 57 54 50 49 48 50 44 40 37 35 34 34 34 32 32 31 33 30 28 31 31 22 28 31 24 24 26 26 27 26 26 29 26 26 27 28 28 28 28 28
43 46 44 43 49 51 50 47 48 42 38 39 39 36 42 41 42 42 50 42 37 36 36 43 33 30 31 30 29 29 27 27 23 21 28 26 26 27 27 27 27 26 28
43 43 44 44 46 47 44 43 43 42 42 42 42 43 45 44 45 46 45 46 45 37 40 36 37 37 37 34 32 34 32 29 28 28 28 29 28 27 26 26 26 27 29
43 42 43 43 44 43 43 44 44 44 46 46 47 49 47 42 44 36 32 28 29 40 42 44 41 40 40 34 32 31 30 26 24 21 22 26 27 26 26 26 26 28 30
43 45 45 45 45 44 46 45 45 46 45 45 50 41 42 39 38 33 29 32 37 44 46 47 48 46 38 32 32 31 27 26 23 26 25 22 24 22 23 26 28 29 31
46 44 46 47 47 48 50 52 50 45 46 48 47 43 45 42 41 37 37 40 41 42 45 51 49 44 37 34 30 29 25 21 19 20 20 23 20 22 25 26 21 27 30
42 45 45 44 44 46 49 49 48 47 48 48 45 47 45 43 40 37 40 44 46 40 39 44 44 39 31 27 26 22 22 22 24 19 17 21 24 27 27 22 25 29 32
43 43 44 43 42 42 41 41 41 43 46 49 48 47 40 42 44 42 42 42 39 36 37 35 28 26 21 20 16 20 20 16 18 22 22 25 22 24 21 24 23 29 32
40 43 40 40 40 38 37 37 37 40 40 40 42 43 43 41 42 43 40 37 37 35 30 25 23 17 12 15 18 19 18 17 22 19 19 20 21 26 19 26 29 19 19
36 34 34 36 37 37 38 37 39 40 39 38 40 41 40 38 35 32 30 30 30 26 22 19 16 11 16 20 18 18 19 19 19 15 14 20 18 16 22 18 19 19 23

GFSMA_850_spd_087.txt.gz
Wind_Speed
38 22 33 33 28 26 27 29 29 33 37 28 29 16 16 15 10 9 20 20 19 18 18 17 17 16 15 15 14 13 13 12 12 11 11 11 10 10 9 8 8 8 8
33 31 33 35 34 28 29 30 31 38 30 29 32 19 14 17 12 10 20 20 18 17 17 17 17 16 14 14 13 13 12 12 12 11 11 10 10 9 8 7 7 7 7
32 33 35 38 37 32 32 32 31 38 25 26 24 14 16 14 10 9 17 19 18 17 17 17 16 15 14 13 12 13 12 11 10 9 9 9 8 7 6 6 5 5 5
33 36 35 39 39 35 37 31 30 32 27 24 28 15 18 13 11 9 17 18 19 19 17 15 15 14 14 12 11 10 10 10 8 8 8 8 7 6 5 4 4 3 2
38 42 41 40 39 39 36 32 31 29 28 27 28 22 14 13 11 10 9 15 14 14 14 15 14 13 12 10 10 10 9 8 9 8 8 8 6 5 4 2 1 1 3
40 38 44 43 39 43 34 39 34 29 26 28 28 22 20 13 12 11 10 10 10 10 12 11 12 12 10 11 12 12 11 11 11 11 11 10 9 7 6 5 5 5 6
35 52 56 51 45 42 35 39 34 30 28 25 29 21 18 19 15 13 12 14 13 13 12 13 12 13 13 14 15 15 15 15 15 16 15 13 12 11 11 10 9 10 12
49 54 59 49 47 39 39 38 38 35 32 29 31 29 23 18 17 21 19 16 16 15 15 17 18 17 17 17 17 18 19 18 19 20 16 16 16 16 16 15 16 16 14
45 46 44 38 42 39 39 39 38 35 34 32 31 27 16 12 22 23 23 24 23 23 23 23 24 25 24 22 21 21 22 22 23 22 24 25 22 22 21 20 22 22 19
39 40 43 41 42 38 35 36 34 34 36 32 27 26 20 18 22 20 28 24 24 25 26 28 28 25 25 24 25 25 25 25 26 26 25 28 29 27 26 24 24 23 23
42 39 34 39 40 41 39 35 36 35 32 33 32 32 24 18 20 17 18 28 29 28 27 27 25 26 27 27 28 28 30 30 29 29 29 30 30 32 30 28 28 28 28
36 31 35 35 33 35 39 39 37 34 33 33 32 34 31 29 25 20 21 21 24 23 23 26 26 27 29 30 33 33 35 35 34 32 31 33 34 33 33 31 32 32 32
36 39 40 38 36 38 38 36 34 32 33 32 29 33 32 29 24 21 25 25 24 21 22 27 28 27 27 29 32 31 31 33 35 35 33 32 35 34 34 34 34 33 32
41 40 37 39 42 42 38 36 35 32 32 32 29 27 27 29 26 22 21 22 22 24 28 29 30 30 28 29 32 35 36 35 36 36 31 31 33 35 34 34 34 32 31
40 43 43 38 38 40 41 39 36 36 38 35 31 31 30 30 29 29 30 31 30 29 34 34 32 33 34 33 31 32 35 38 36 33 31 32 33 34 34 34 34 32 31
41 41 45 46 44 41 40 38 42 41 41 41 35 34 35 35 35 34 36 35 35 36 38 37 37 38 40 38 35 35 37 36 36 35 35 35 34 35 35 35 33 32 32
46 41 45 46 51 49 47 45 44 46 44 42 41 38 40 39 38 38 37 37 39 38 42 42 41 42 43 44 42 40 32 34 36 38 37 36 36 35 35 35 34 33 31
43 46 45 47 48 49 49 50 50 49 48 48 47 46 43 40 42 43 43 44 45 43 44 45 43 44 45 42 44 36 30 31 35 36 35 37 37 36 37 36 35 32 31
40 46 49 50 50 50 52 53 55 55 55 54 51 50 47 48 51 51 51 49 47 48 48 47 48 45 42 45 40 37 40 37 39 41 41 38 37 36 35 36 34 30 31
41 44 48 51 53 54 55 58 58 58 58 58 56 57 59 55 52 50 50 51 49 48 46 46 46 46 43 45 41 45 41 39 45 48 47 46 42 39 35 34 31 28 29
45 45 47 47 50 54 55 58 62 61 61 61 61 61 60 55 52 55 52 51 51 50 50 50 50 50 49 47 51 47 47 42 47 49 47 44 41 34 33 31 26 26 27
47 46 47 49 49 52 54 56 57 60 61 62 61 57 54 52 51 53 51 49 50 53 53 52 51 49 53 52 52 50 50 50 47 52 49 43 41 37 29 23 25 26 24
45 49 49 48 50 52 53 53 54 55 56 56 55 55 54 54 52 50 47 49 53 55 56 49 53 51 50 54 50 50 52 50 44 37 39 37 34 31 22 18 23 24 26
46 46 49 50 52 55 53 52 52 52 52 53 54 55 56 55 53 51 51 51 54 52 51 50 53 49 51 45 39 36 38 36 32 29 29 20 19 17 16 22 27 30 28
50 51 49 50 51 52 52 52 50 51 54 56 58 59 58 56 52 50 47 43 46 48 48 50 50 47 39 32 28 24 24 24 21 16 12 13 11 14 22 28 27 26 26
47 47 47 48 50 50 50 51 50 51 53 57 59 60 61 59 55 54 53 55 51 49 43 35 26 20 20 18 18 18 17 12 8 5 8 12 18 20 17 20 21 22 26

GFSMA_850_spd_090.txt.gz
Wind_Speed
31 38 35 34 30 27 32 36 38 42 38 30 25 19 19 16 11 6 17 20 20 20 19 19 18 18 17 17 16 14 13 12 12 11 11 10 10 9 9 8 8 8 7
37 36 35 34 29 26 32 35 38 42 37 32 22 19 20 17 11 6 16 17 18 19 19 19 18 17 16 15 14 14 13 12 11 10 10 10 10 10 9 8 8 7 6
40 40 31 35 32 34 34 34 37 41 38 28 20 20 17 16 11 8 17 20 20 19 19 19 18 17 15 14 14 13 12 11 11 10 11 11 10 9 8 7 7 5 4
41 47 32 34 33 32 34 37 39 43 36 26 23 20 18 18 12 10 17 19 19 20 19 18 17 16 15 14 12 11 11 11 11 11 10 10 9 8 7 5 4 4 3
43 46 36 38 37 36 37 39 44 44 39 27 21 20 22 16 14 11 17 17 18 17 18 18 17 15 14 13 12 12 12 11 11 11 11 10 10 8 7 5 4 3 3
37 41 36 39 41 39 41 40 48 39 40 30 24 23 21 16 14 13 10 15 14 15 15 16 16 14 13 13 13 13 12 12 13 12 12 13 12 11 9 8 6 6 6
47 51 45 48 48 43 45 43 44 41 33 30 26 25 19 16 14 14 12 15 13 15 15 15 14 14 14 14 13 13 14 15 16 16 17 16 15 13 12 12 10 10 10
38 41 40 36 47 48 42 41 39 38 34 36 34 28 24 22 20 17 16 17 17 16 16 15 16 15 16 15 15 16 17 19 18 20 20 19 18 17 16 16 16 16 17
33 45 43 50 52 50 45 46 40 38 36 36 36 36 19 12 24 23 23 21 19 20 18 19 19 18 19 20 19 20 20 21 22 22 23 21 20 21 21 21 21 22 21
38 40 43 54 55 52 44 47 41 41 40 38 38 33 24 18 20 16 27 25 23 23 24 23 23 23 23 22 22 23 23 24 24 25 25 27 28 28 27 26 26 26 25
34 40 50 53 47 45 40 45 43 41 41 38 43 38 27 17 20 16 23 28 27 29 27 26 27 27 27 28 26 26 26 27 29 29 29 28 30 32 33 32 31 28 28
30 35 35 36 44 43 42 41 40 40 37 37 38 40 33 27 24 24 20 26 34 31 30 31 30 29 29 28 27 27 28 30 31 32 34 34 32 33 34 36 35 33 31
35 37 37 38 44 44 45 45 41 40 39 40 39 38 32 29 27 24 20 22 23 25 27 28 28 28 28 27 28 27 29 30 34 34 35 38 37 36 36 37 39 37 35
34 37 38 37 35 38 41 41 42 40 40 37 37 36 34 35 32 30 28 24 24 29 32 29 26 24 24 26 26 28 32 33 36 38 38 38 39 38 37 38 41 40 38
38 38 35 32 35 37 38 43 42 41 40 38 38 37 35 32 37 32 30 26 23 25 32 34 30 29 28 28 29 31 34 35 37 38 42 42 41 38 38 37 38 40 40
41 38 35 36 39 38 37 40 42 39 38 36 36 39 37 36 32 31 33 34 36 35 38 38 38 34 33 34 33 35 36 37 39 42 42 43 44 42 35 36 38 39 39
38 41 39 39 42 44 44 44 43 41 40 39 39 40 40 36 37 38 39 39 38 37 40 46 43 40 40 37 38 39 37 38 39 40 36 35 41 39 36 38 40 41 41
34 38 42 41 43 43 44 46 48 48 47 46 44 44 45 44 45 41 39 40 42 42 43 47 47 47 48 46 44 41 40 42 37 36 32 32 33 36 37 39 40 42 41
36 38 44 46 44 45 47 48 48 48 50 49 49 51 51 49 51 48 45 44 45 44 46 51 54 53 52 51 49 43 42 44 38 35 38 38 38 40 42 42 41 41 39
36 40 42 46 48 48 49 49 51 53 55 55 55 54 54 54 55 52 53 52 49 51 54 53 54 54 53 52 49 48 47 44 42 44 43 41 42 44 46 41 42 41 40
38 38 39 43 43 46 50 52 53 54 55 57 58 59 59 58 57 58 56 55 56 59 58 54 49 48 45 50 51 47 48 47 45 48 50 46 48 48 48 47 47 44 43
40 40 42 42 44 46 47 50 52 54 56 58 60 62 63 64 63 62 62 61 61 60 55 53 49 49 49 52 53 49 45 45 47 47 49 49 50 51 47 46 44 43 37
40 43 44 44 46 46 48 48 49 50 52 55 57 59 61 63 63 61 60 57 53 53 57 57 56 56 55 56 56 57 49 51 50 40 38 39 42 40 40 41 35 31 28
44 45 45 45 46 48 48 46 46 47 49 52 53 54 56 56 56 55 53 51 49 50 55 58 60 61 64 65 58 46 43 41 38 35 33 26 29 33 32 29 23 15 14
44 47 48 48 45 46 46 47 46 47 50 53 54 54 56 58 56 52 50 50 52 53 56 57 59 65 66 55 50 45 36 32 30 24 25 23 21 21 22 23 23 22 21
49 46 45 46 46 45 44 45 47 49 50 51 52 55 56 57 54 53 54 56 58 60 61 61 57 54 51 42 34 24 23 26 27 19 18 15 15 15 10 14 15 17 20

GFSMA_850_spd_093.txt.gz
Wind_Speed
22 25 35 42 30 28 36 39 36 33 28 27 25 20 17 14 12 14 18 22 21 20 19 18 18 16 16 16 16 14 13 12 10 10 10 9 9 8 8 7 6 6 6
15 16 25 30 34 32 34 38 39 36 33 30 26 20 17 14 11 9 15 20 20 20 20 17 17 16 16 15 15 13 12 11 10 9 10 9 9 8 7 6 6 5 5
23 27 28 33 36 31 34 39 43 35 34 31 26 19 19 16 12 11 15 18 19 20 18 17 17 16 15 15 14 13 11 11 10 10 10 9 8 7 6 6 5 5 5
27 33 35 35 35 34 37 41 45 41 35 31 26 22 22 18 14 12 15 18 18 18 18 17 16 15 14 13 12 11 11 11 11 10 10 9 7 8 7 6 6 6 5
31 35 38 34 36 35 38 40 45 45 38 30 25 25 21 19 15 14 16 17 17 17 16 16 16 15 14 12 12 11 11 11 10 10 10 9 10 9 8 8 7 7 5
35 38 41 34 38 37 42 44 44 45 40 33 28 24 21 19 16 14 16 17 17 15 15 16 16 15 13 13 12 12 11 11 11 11 11 12 12 10 11 10 9 8 7
34 42 45 43 38 39 41 43 44 48 39 31 29 26 24 21 16 16 17 18 17 16 16 15 15 14 15 15 14 13 13 14 14 14 14 15 13 14 14 13 12 12 12
36 36 46 44 37 38 40 41 43 45 38 34 33 31 24 22 23 19 18 18 17 17 16 17 18 17 17 17 16 15 16 16 17 17 16 18 16 19 18 18 17 17 17
36 30 49 44 38 44 46 43 44 47 41 35 33 34 19 10 22 24 24 20 20 19 18 19 19 19 19 19 19 18 18 18 19 20 20 18 18 19 20 22 22 21 21
35 36 28 34 42 42 46 45 46 47 40 39 36 31 25 21 24 16 28 25 22 22 21 21 20 21 21 21 21 21 21 21 22 22 23 24 24 24 25 26 26 27 26
31 34 34 41 45 40 49 47 45 49 43 40 38 31 28 21 24 14 18 28 27 27 27 26 24 23 24 24 24 24 24 24 25 26 27 27 28 30 30 30 32 31 31
21 28 34 35 51 49 56 49 51 42 44 37 33 39 43 32 25 24 16 15 30 30 30 28 27 26 25 25 25 25 25 25 26 28 30 31 32 33 34 35 35 35 35
19 20 30 42 44 46 47 42 42 46 41 39 45 48 42 37 30 20 19 22 27 29 33 30 29 27 27 27 27 25 24 24 25 26 30 33 36 37 38 38 38 39 38
19 21 25 31 39 35 43 46 45 44 45 45 42 38 43 45 33 28 25 26 23 21 25 31 28 25 26 26 21 21 24 25 25 27 31 33 35 38 41 43 42 42 41
22 27 30 30 30 37 42 44 44 46 46 42 44 39 40 41 37 32 30 29 30 30 29 31 32 30 29 27 28 27 27 26 29 30 32 35 38 39 41 44 45 44 42
25 27 32 31 31 38 40 42 47 47 45 44 37 39 39 39 37 36 37 35 35 32 30 31 31 32 36 36 32 33 33 34 32 34 36 36 37 41 44 44 45 46 44
29 31 33 36 35 35 37 39 39 39 45 42 41 41 42 39 39 39 39 37 39 37 39 42 42 40 37 39 40 40 38 37 40 40 40 39 37 39 40 36 40 40 39
28 29 35 39 37 34 35 38 39 40 45 45 46 44 44 41 42 44 41 39 40 37 43 46 44 44 46 43 42 45 47 48 46 44 43 39 39 37 33 34 34 33 36
29 30 33 40 43 39 38 41 42 43 45 48 50 48 47 45 46 45 45 46 48 47 45 44 47 46 48 47 49 53 55 54 51 48 44 44 42 38 35 38 39 36 39
31 32 34 35 37 38 42 43 45 47 49 50 51 52 52 51 52 50 50 52 52 52 50 50 49 51 52 53 56 55 55 51 52 48 45 46 44 40 39 41 42 42 44
31 32 34 36 37 40 44 47 47 47 49 51 54 55 56 55 55 55 54 55 57 56 54 53 52 52 54 50 50 50 50 51 52 46 46 46 42 41 42 43 44 46 49
31 32 37 38 40 43 45 46 49 51 52 53 55 56 57 57 59 59 59 58 58 57 56 57 53 48 48 50 48 51 52 51 51 50 45 42 41 43 43 42 41 45 46
33 36 37 37 40 43 44 44 45 48 49 51 53 55 56 58 58 60 59 60 60 61 62 62 59 58 58 54 51 52 55 55 54 52 50 53 45 48 42 40 39 41 43
37 41 42 42 40 40 41 42 43 43 46 49 50 52 54 55 56 56 56 57 56 57 57 57 60 61 61 58 57 56 52 52 58 57 51 38 37 34 32 30 29 30 32
31 33 35 42 44 46 44 43 40 43 48 50 50 51 53 53 51 50 51 53 53 53 53 54 54 56 57 58 62 66 64 55 49 41 32 32 31 26 25 23 21 19 19
34 38 39 36 37 40 43 45 46 46 47 49 45 49 51 51 52 52 55 57 59 58 55 59 58 58 58 59 59 53 47 38 38 26 21 16 16 16 12 16 17 18 20

GFSMA_850_spd_096.txt.gz
Wind_Speed
24 32 35 36 36 33 41 40 40 34 28 25 22 22 17 13 14 14 21 22 20 20 20 20 19 18 17 17 16 14 12 11 10 10 10 10 9 8 8 8 7 6 5
13 19 33 42 32 32 40 42 42 36 30 26 26 23 18 13 12 14 19 23 21 20 20 19 18 17 17 16 15 13 11 10 9 9 9 8 7 7 7 6 6 5 4
10 10 25 35 39 32 42 45 40 35 30 27 28 25 17 15 12 13 17 21 22 20 19 19 18 17 17 15 13 11 10 9 9 9 8 7 7 7 7 7 7 6 4
15 17 16 16 29 36 36 42 38 34 30 31 29 23 20 18 15 15 17 18 21 21 20 18 18 18 16 14 13 11 11 10 9 8 8 8 7 8 8 7 7 6 4
22 19 21 23 28 34 34 39 36 35 35 32 28 23 20 19 17 15 16 17 19 19 18 18 17 15 13 12 12 12 11 10 9 9 8 8 9 9 8 9 7 6 5
28 25 29 26 28 33 31 36 38 38 37 33 28 23 22 21 18 16 15 16 19 17 16 16 15 14 12 12 12 11 11 10 11 10 10 11 10 10 10 10 8 8 8
32 32 29 33 30 34 33 37 40 40 37 35 31 28 25 22 21 18 17 18 19 18 17 16 15 14 14 13 13 12 11 12 12 12 12 12 13 12 13 13 11 11 13
27 35 37 32 36 37 37 40 44 42 38 36 35 34 24 22 23 21 20 20 20 19 19 17 16 15 14 16 15 14 14 14 14 14 14 14 15 15 16 17 16 17 18
25 33 36 34 36 35 38 39 43 45 44 37 37 28 16 11 24 24 23 21 22 22 20 19 19 18 18 18 18 17 17 16 16 17 18 17 17 16 18 19 20 23 23
36 29 29 34 34 34 39 42 46 45 47 45 36 34 29 22 27 14 25 24 22 22 21 20 20 20 20 20 20 20 19 19 19 19 20 21 22 21 21 21 23 25 25
29 31 33 32 34 35 37 42 44 47 47 48 44 38 29 20 27 13 18 27 26 27 23 23 23 22 23 22 22 22 21 21 22 22 23 24 26 27 27 27 28 28 29
26 27 27 32 32 30 32 37 47 46 48 49 45 43 37 28 22 18 17 20 29 23 22 27 27 27 27 25 24 23 22 24 24 24 25 26 27 28 30 32 33 33 34
16 26 28 32 33 28 36 34 45 49 48 48 45 41 37 32 25 27 34 20 19 19 22 27 30 29 28 25 24 24 25 25 25 24 26 27 28 29 30 33 35 37 39
14 16 20 22 28 33 34 41 51 56 52 45 41 37 36 30 30 38 36 25 24 20 22 28 27 27 27 23 23 21 23 22 21 24 25 26 27 28 31 33 35 37 40
14 12 12 13 17 22 28 37 46 45 51 48 47 44 41 38 40 44 31 29 26 24 28 29 30 29 28 26 24 24 27 28 28 27 26 28 29 32 34 35 37 39 41
16 15 12 15 19 22 28 34 41 45 46 48 47 45 43 46 36 40 42 42 36 29 35 32 34 34 34 36 34 28 35 34 31 38 37 33 34 36 38 40 39 40 42
15 15 19 19 20 20 27 38 41 42 43 43 45 43 43 41 43 41 42 40 41 37 38 39 37 41 36 37 39 39 40 36 37 37 39 38 41 42 43 44 40 40 42
20 18 19 22 26 25 25 28 34 39 38 43 44 46 47 43 42 41 43 44 43 42 41 43 44 43 38 40 40 41 42 41 42 41 41 45 48 47 46 44 43 41 39
22 22 23 25 27 30 31 30 32 34 37 40 45 50 48 49 45 43 43 44 43 44 45 46 48 44 47 47 45 43 44 46 47 48 49 51 49 45 45 43 44 44 40
22 22 24 25 27 30 34 37 36 33 37 39 41 41 49 50 49 50 47 48 48 47 47 48 50 52 53 54 52 51 53 51 53 53 54 49 42 42 42 43 45 45 44
20 22 24 26 27 30 34 40 42 41 40 42 42 43 45 52 54 54 54 54 52 51 53 54 54 54 55 53 57 55 56 56 56 54 56 52 45 44 42 43 45 42 45
18 19 21 25 29 31 32 33 35 37 38 42 45 46 47 49 53 54 56 58 57 57 56 56 53 50 52 57 56 56 57 53 50 47 46 51 47 48 45 45 43 44 42
17 19 21 24 26 27 29 32 34 36 39 41 45 48 50 52 53 55 56 58 59 61 62 61 58 57 54 55 56 51 49 53 57 52 49 55 55 54 51 51 46 46 45
22 19 19 19 23 27 29 29 31 35 39 41 42 43 46 48 49 49 50 53 55 56 58 59 62 63 59 54 52 53 52 53 58 57 56 51 49 45 43 37 30 27 22
23 25 24 22 23 24 30 31 28 33 35 36 38 41 46 50 49 50 52 53 53 53 55 56 56 59 60 61 61 60 63 61 56 51 43 38 36 28 23 18 16 14 16
18 21 25 29 31 33 37 37 36 35 36 38 39 41 46 49 49 49 52 54 57 54 53 56 56 57 58 57 58 59 60 53 51 38 29 24 17 17 12 11 11 13 12

GFSMA_850_spd_099.txt.gz
Wind_Speed
25 26 30 29 26 29 36 37 34 36 32 28 23 20 18 14 14 16 17 18 19 20 20 20 20 19 19 18 17 15 14 13 12 11 11 10 10 9 9 8 8 7 6
24 26 27 29 32 37 33 34 36 37 32 28 24 21 18 14 14 17 18 20 20 20 20 18 18 19 19 18 16 15 13 12 11 11 10 9 9 8 8 7 7 6 5
21 21 24 25 32 44 41 34 38 36 33 27 24 23 20 15 14 17 18 22 22 20 20 19 19 17 18 17 14 14 13 12 11 9 9 9 8 8 8 7 7 6 5
21 18 17 21 28 33 36 42 41 39 34 29 27 26 22 19 16 15 18 18 22 21 20 19 18 18 17 15 14 14 13 11 10 9 9 9 8 8 8 8 6 6 5
19 16 17 14 32 32 25 38 42 39 33 29 28 27 22 19 18 15 18 18 21 21 21 20 20 19 17 15 14 13 12 11 10 10 9 10 10 9 9 9 8 7 7
23 22 19 18 18 32 30 33 35 34 29 28 29 28 24 21 19 17 16 17 19 20 20 20 21 18 14 13 13 12 12 11 11 11 11 10 10 10 10 10 10 9 9
27 25 22 23 21 24 28 31 34 30 27 27 33 28 24 22 21 20 18 18 20 21 20 19 17 16 16 14 13 13 13 12 12 12 12 12 12 12 13 12 13 13 13
24 30 30 27 26 25 31 30 41 41 42 40 34 28 20 22 24 22 21 20 21 22 21 22 20 17 16 16 15 13 14 14 13 13 14 13 14 15 15 15 17 17 18
27 27 30 29 31 31 34 33 36 42 45 43 39 25 16 9 24 26 25 24 24 24 22 22 23 22 20 20 17 19 17 16 16 16 15 15 15 16 17 19 19 21 21
28 25 31 31 27 28 35 38 38 46 46 45 41 36 26 21 21 13 26 26 25 25 24 23 22 23 23 21 21 19 21 19 18 18 18 19 19 19 19 20 20 22 23
32 30 28 34 32 32 32 44 42 44 46 45 46 43 33 28 26 22 18 26 26 26 26 26 25 24 21 22 23 23 22 21 21 20 22 22 23 24 24 24 24 25 26
26 32 32 33 23 32 35 32 38 45 46 48 47 47 45 34 29 23 16 22 18 28 27 27 26 23 25 25 26 24 23 23 24 25 24 25 26 27 29 29 30 30 30
17 24 27 30 32 30 30 30 40 43 49 46 50 49 42 36 34 32 25 16 18 25 30 24 21 25 25 30 30 27 26 25 25 25 25 26 28 29 30 31 32 33 33
11 13 26 22 27 30 30 27 30 31 44 51 51 46 42 37 35 39 30 32 33 29 26 27 23 26 26 30 32 29 29 28 25 24 27 27 29 29 31 30 31 32 34
11 12 17 26 26 26 23 28 30 39 45 49 51 51 46 42 36 29 30 29 30 30 26 25 27 25 25 32 30 27 29 28 23 24 25 26 26 28 31 31 32 32 34
14 11 11 17 18 19 19 22 26 31 43 47 49 39 45 46 43 42 33 32 33 41 30 28 29 28 27 32 31 28 29 30 30 31 35 32 36 37 43 40 40 39 40
15 14 10 7 10 16 15 19 22 27 35 42 37 43 46 45 40 41 42 39 37 40 40 36 32 36 35 35 33 38 40 42 38 39 40 40 40 39 38 40 41 46 48
15 12 12 12 13 13 14 17 22 25 30 37 43 47 46 46 44 44 42 43 44 45 42 42 38 35 41 42 39 41 38 39 40 40 42 41 45 45 43 44 46 51 52
17 16 15 16 18 18 18 17 18 24 26 28 35 39 42 42 49 48 43 38 41 41 43 42 44 41 44 45 47 46 43 44 46 49 45 45 45 45 46 49 51 51 50
17 18 18 18 19 20 22 23 24 24 28 32 35 35 37 43 47 46 44 48 44 42 41 43 46 47 45 47 43 45 43 51 53 53 52 51 49 49 49 50 50 49 46
16 17 18 18 19 21 23 24 27 29 31 31 33 34 35 38 41 45 44 51 50 47 49 47 43 41 44 41 41 46 46 54 56 54 54 53 51 54 52 47 46 41 39
14 15 17 17 19 21 22 22 24 28 32 36 40 40 38 38 40 40 41 42 47 52 52 50 46 44 51 50 49 47 50 47 47 48 43 49 46 48 48 51 50 48 48
16 18 18 19 18 17 16 17 21 26 29 32 34 34 36 38 40 42 44 45 47 50 53 56 54 53 53 54 53 48 50 52 54 52 44 47 41 44 49 52 57 56 56
17 15 16 16 17 24 20 20 18 20 25 28 30 33 36 38 39 40 42 46 47 48 51 53 57 61 57 53 51 52 54 54 51 51 52 54 49 46 48 47 47 46 43
19 20 21 21 23 27 28 26 21 23 25 22 22 28 36 38 42 43 44 45 46 45 49 49 49 51 53 55 55 55 59 49 47 44 41 34 31 28 26 24 22 19 17
8 11 14 16 19 22 25 24 23 21 24 29 32 33 36 39 41 42 42 43 45 41 42 44 44 44 44 46 47 43 43 47 44 41 29 22 20 18 9 7 8 9 9

GFSMA_850_spd_102.txt.gz
Wind_Speed
26 26 25 30 33 31 27 27 31 29 31 30 25 19 16 15 13 12 12 13 16 16 15 18 18 19 18 18 17 17 17 15 14 14 12 12 11 10 9 8 8 7 5
24 25 27 32 33 32 29 33 34 33 33 28 22 19 17 15 14 12 15 16 17 16 17 17 19 19 19 18 17 15 15 15 14 13 12 11 11 10 9 8 8 6 5
25 26 28 30 32 31 30 34 37 36 35 27 22 19 17 15 13 14 11 17 19 17 17 18 18 18 18 17 17 16 14 14 14 12 11 11 11 10 9 9 8 6 6
25 26 26 27 27 28 32 29 44 37 38 29 22 19 18 15 14 14 15 14 17 17 18 18 18 17 17 17 16 15 15 14 12 12 11 11 11 10 10 9 8 7 6
25 24 23 25 21 28 36 37 37 40 36 27 22 19 18 16 15 15 16 17 18 17 20 20 18 17 17 17 17 15 15 14 13 12 13 12 12 11 10 10 9 8 8
24 23 21 20 16 24 30 41 44 41 38 25 20 19 17 16 15 15 16 16 16 19 18 18 21 19 18 18 17 16 15 14 14 14 13 13 12 12 11 11 10 10 10
21 23 22 17 15 26 27 26 41 40 40 31 24 20 18 15 15 16 17 17 17 18 18 17 19 16 19 21 19 16 17 15 15 15 14 13 13 13 13 13 12 13 13
21 25 26 20 18 22 27 23 36 43 41 31 26 25 16 16 18 19 17 18 18 19 19 18 17 17 16 18 20 18 16 17 15 16 15 15 15 15 15 15 16 16 17
22 22 31 25 22 22 26 29 28 29 31 32 28 20 11 10 21 21 20 18 20 20 20 20 21 22 21 18 20 21 20 18 19 19 16 17 17 17 17 18 18 19 20
26 25 22 31 32 28 27 31 34 39 40 36 34 32 22 16 23 13 19 20 21 21 21 20 21 20 21 21 22 22 22 21 21 21 20 19 19 19 19 19 20 21 21
24 23 26 35 37 30 30 33 34 41 42 39 40 33 22 19 23 18 17 20 23 21 22 23 22 22 23 24 24 23 24 21 23 22 23 22 23 22 23 23 24 24 25
20 27 25 28 29 28 30 35 36 35 43 41 41 37 30 27 24 22 16 20 21 22 23 24 23 23 23 25 26 27 23 23 23 24 25 25 26 27 28 28 29 29 28
19 21 30 28 32 33 31 28 34 36 40 38 42 39 42 43 34 28 22 16 16 17 18 22 26 26 26 26 28 24 24 23 26 27 27 28 30 31 32 31 32 33 33
15 17 23 29 29 29 29 29 30 34 41 41 45 49 46 45 42 37 30 25 20 19 20 25 21 27 24 26 22 25 27 27 30 32 31 31 32 33 33 34 35 35 34
14 14 18 23 24 24 25 28 25 28 30 36 43 48 46 47 41 41 38 33 28 25 29 28 30 26 28 24 24 25 27 35 33 34 33 32 32 30 28 29 31 33 33
13 13 16 21 22 20 26 27 26 28 26 34 42 49 48 46 44 45 32 33 34 28 24 22 24 22 25 24 24 26 27 30 25 25 26 30 32 33 34 37 37 38 40
17 14 14 16 19 21 23 24 24 28 30 33 38 42 45 45 44 44 40 33 33 31 29 29 36 28 23 31 31 29 32 36 36 44 43 41 40 44 43 43 43 45 46
19 18 15 14 15 16 18 18 19 19 21 24 28 33 36 37 39 33 43 43 36 29 27 30 32 41 33 28 29 30 37 36 39 40 40 39 44 40 39 44 43 46 48
18 19 18 18 16 15 14 12 12 13 15 17 20 26 25 29 35 38 39 43 42 36 34 38 38 36 38 35 33 31 31 32 41 42 45 44 44 45 49 49 50 50 50
17 18 17 16 17 17 17 16 16 14 15 17 18 21 26 31 37 37 39 41 47 45 46 43 45 45 40 37 36 38 37 36 33 32 36 42 46 48 49 49 50 52 53
17 17 17 17 18 20 22 23 23 22 22 21 23 24 25 28 31 34 40 43 45 46 47 47 40 44 48 45 40 41 41 42 42 41 45 43 43 41 44 49 47 47 47
15 15 16 17 17 17 18 20 21 23 25 27 29 30 30 30 32 35 36 35 34 35 40 41 46 47 52 48 46 45 43 41 43 41 41 43 41 42 38 38 41 47 52
13 15 15 15 15 17 22 22 22 24 22 25 27 28 29 31 32 33 33 35 39 41 43 42 40 39 39 38 40 42 43 42 43 40 39 41 35 39 43 47 50 52 52
16 17 18 17 19 23 22 21 23 26 29 29 26 27 29 32 31 30 31 32 36 37 41 46 51 55 57 57 56 52 49 49 49 47 45 41 42 38 39 38 41 42 44
14 15 17 17 18 19 20 20 19 19 20 24 30 33 32 32 34 33 34 35 37 36 40 41 43 44 45 44 43 44 41 45 48 46 44 39 33 30 30 31 31 30 23
10 11 12 14 17 19 22 23 22 22 24 26 27 29 30 31 33 34 34 32 32 33 34 36 37 36 36 37 40 40 37 34 31 30 27 22 21 21 14 14 13 11 10

GFSMA_850_spd_105.txt.gz
Wind_Speed
24 23 21 20 20 23 30 27 26 25 24 27 30 27 23 18 18 14 13 13 14 14 14 13 16 17 17 16 16 16 16 15 14 13 13 13 12 11 10 8 7 6 5
24 24 24 24 27 27 29 29 29 25 26 29 30 28 23 19 11 13 12 17 16 14 12 15 16 16 17 17 17 17 15 14 14 13 12 12 11 10 9 8 7 6 5
26 23 24 26 27 27 31 30 27 22 33 29 31 27 23 19 15 11 12 16 18 14 13 16 16 15 15 18 16 15 15 15 15 14 13 12 11 10 9 8 7 6 5
26 24 22 26 27 29 31 31 28 26 34 28 28 28 22 20 18 13 11 15 17 17 16 17 17 16 16 18 17 16 16 15 14 14 13 13 12 11 10 9 8 7 6
23 25 23 21 22 25 27 27 26 30 38 31 27 24 23 21 18 16 16 16 18 18 17 20 19 16 17 17 19 17 16 16 15 14 13 14 13 12 11 10 9 9 8
22 23 25 25 24 25 25 27 28 39 31 36 28 24 23 19 18 19 17 12 16 19 17 18 21 19 18 19 18 18 19 17 16 16 15 14 14 13 12 12 11 11 10
20 24 22 24 22 21 20 22 29 31 36 36 31 24 22 19 21 19 21 16 16 17 18 18 18 18 22 21 20 20 19 20 18 17 17 16 15 15 14 14 13 13 13
19 20 22 23 20 17 15 20 36 38 33 38 36 31 15 17 20 17 18 19 17 17 20 22 18 17 15 20 24 23 21 22 20 19 17 17 17 16 15 15 15 16 16
20 21 22 24 20 16 13 21 31 33 40 34 34 20 13 8 17 17 20 23 18 18 16 20 19 19 18 17 17 20 22 23 22 20 18 18 17 17 16 17 17 18 18
22 23 23 24 23 17 17 24 21 33 39 40 31 21 22 16 17 10 19 23 24 22 21 20 20 20 21 25 18 18 21 23 23 22 22 20 20 18 18 19 20 20 20
24 24 22 21 28 22 18 20 24 26 33 40 35 33 31 23 23 19 18 23 24 29 21 25 21 24 24 22 22 24 28 25 24 23 23 22 23 21 20 21 22 23 23
24 21 22 24 23 29 32 26 27 30 31 37 38 38 35 33 23 27 18 25 28 25 29 24 27 23 22 23 25 25 26 21 22 23 26 25 25 24 25 26 27 27 27
20 20 23 24 28 28 32 33 31 31 35 43 40 36 35 28 26 26 22 20 23 18 23 23 25 27 26 26 28 28 26 23 22 25 26 26 27 28 28 30 31 32 33
19 22 23 24 23 28 31 29 27 24 39 38 41 40 36 38 36 29 30 28 17 18 19 20 23 25 28 26 25 24 24 25 25 24 27 28 29 31 30 32 34 35 34
15 16 18 23 25 26 26 26 26 25 32 43 36 38 38 40 42 37 35 30 28 25 26 22 21 24 24 22 24 23 26 26 27 27 31 32 35 35 35 36 40 40 39
17 17 17 21 24 24 22 25 27 23 27 27 36 40 42 46 43 41 38 37 33 33 28 31 25 23 29 30 28 29 29 27 26 26 30 30 32 33 35 34 35 37 37
16 15 16 19 19 24 21 21 22 23 24 24 26 34 37 42 45 44 40 41 40 36 31 35 30 24 20 25 26 30 33 31 31 30 27 29 37 39 37 40 42 42 43
17 16 17 19 19 22 23 26 24 23 23 24 26 28 32 37 39 40 42 40 38 34 33 35 38 34 35 36 39 33 30 29 31 38 40 37 36 36 40 40 43 42 45
19 17 15 16 17 19 21 23 22 22 23 22 24 23 23 25 31 34 33 31 38 37 38 33 31 29 26 25 28 38 40 38 39 37 38 40 41 43 45 46 45 45 48
19 19 17 17 16 17 16 16 15 16 16 18 19 18 18 20 21 23 27 27 25 27 36 39 43 38 32 32 30 34 36 36 37 37 37 39 40 38 41 43 43 44 47
17 16 17 15 14 15 16 16 14 14 15 15 14 15 16 19 23 24 24 27 27 29 31 38 42 45 48 48 36 43 43 50 44 39 39 40 37 35 37 41 46 48 45
14 14 14 14 14 14 18 18 18 17 17 16 16 16 18 21 21 20 23 25 24 25 32 34 38 38 43 40 42 41 42 39 40 35 35 29 27 31 34 41 45 49 52
14 10 12 13 17 21 20 20 19 19 19 17 18 21 23 24 26 27 29 30 31 32 36 38 34 33 33 31 34 36 33 32 29 29 38 44 41 42 45 43 46 48 47
18 16 17 17 19 22 22 22 21 20 21 25 18 20 25 27 25 28 31 33 28 29 32 34 42 48 48 48 48 50 53 55 56 57 55 46 44 40 38 37 40 42 44
19 22 23 22 22 23 22 21 20 20 21 25 30 32 31 28 30 31 30 30 30 29 29 30 30 32 35 37 38 40 40 40 42 38 34 33 32 29 27 28 28 28 27
14 16 17 17 19 19 19 19 19 19 20 22 23 26 30 31 31 31 31 28 28 29 29 30 31 31 32 34 36 36 32 28 23 21 22 19 20 18 12 17 18 18 19

GFSMA_850_spd_108.txt.gz
Wind_Speed
25 26 24 24 22 21 23 27 29 28 22 22 17 20 27 26 22 21 17 13 15 15 15 15 17 17 17 17 15 14 14 15 15 15 14 14 14 13 11 10 8 7 6
23 24 24 24 22 22 22 26 28 26 21 24 22 30 28 26 24 22 18 16 15 15 14 12 18 17 18 17 16 17 17 16 16 15 15 15 14 13 11 9 8 7 6
21 22 23 24 23 23 23 23 24 24 24 23 19 32 27 25 22 19 15 13 20 17 13 14 16 18 19 19 19 18 17 15 16 16 16 15 13 12 11 10 8 7 6
22 22 22 23 22 25 26 25 26 26 25 19 20 31 29 25 23 19 14 15 22 20 16 18 18 17 18 18 18 17 17 17 16 16 16 14 14 13 12 11 10 9 8
21 23 22 21 20 23 24 26 27 27 26 20 26 38 34 24 23 15 12 16 19 22 20 19 19 17 16 17 18 18 17 18 18 17 16 15 15 13 13 12 11 10 9
20 21 22 21 20 20 23 24 25 25 25 27 30 28 29 28 21 14 16 17 17 18 17 20 21 19 17 18 17 18 17 18 18 18 17 16 15 14 14 13 13 12 11
15 20 21 23 22 24 24 22 22 21 25 27 30 36 24 23 24 20 18 18 19 16 19 18 20 23 21 19 19 18 19 20 19 18 18 17 17 16 15 14 14 14 13
17 19 21 26 25 22 22 22 20 20 24 33 38 25 19 21 26 27 21 16 16 15 21 19 19 22 22 22 22 22 20 22 20 19 19 19 18 17 16 16 16 16 15
21 21 21 24 22 21 19 17 17 18 30 38 38 29 20 14 23 21 22 23 18 18 21 23 23 18 17 16 14 20 23 25 24 23 20 19 19 18 18 17 17 17 17
23 20 22 23 21 20 19 16 16 16 33 24 33 28 19 34 25 15 22 26 20 22 17 14 21 19 19 18 18 18 16 21 22 23 22 21 20 19 18 18 19 19 18
23 23 23 25 22 20 18 16 17 22 23 34 34 33 21 24 26 21 16 23 30 26 22 20 19 19 18 21 24 20 19 19 22 24 25 23 24 22 21 22 22 20 20
22 24 23 25 23 20 21 17 18 19 21 36 36 32 29 28 29 27 25 24 30 30 29 24 24 20 23 25 29 29 31 26 24 24 24 23 24 22 24 24 24 23 23
24 27 26 26 27 22 26 23 19 18 21 28 40 37 33 32 31 26 28 23 22 27 30 30 27 29 24 25 26 24 25 27 24 23 23 24 25 25 27 28 27 27 26
21 23 24 24 25 24 26 25 27 22 23 25 30 36 35 31 28 27 29 25 21 22 22 21 25 27 28 32 27 28 29 27 28 26 24 24 26 26 27 29 30 30 32
16 19 25 26 25 25 25 27 30 31 27 28 32 37 39 34 30 29 30 31 29 23 27 22 22 24 29 29 26 25 25 24 25 26 25 27 27 29 33 34 33 33 35
19 16 22 24 27 24 22 24 27 26 27 28 27 36 38 35 34 34 33 30 31 29 25 30 28 26 25 26 26 24 24 28 27 26 26 26 26 30 34 32 33 37 38
24 18 22 24 25 26 25 23 24 26 26 26 24 32 38 33 37 38 39 42 42 40 36 31 29 29 26 17 24 23 24 27 30 32 31 28 30 29 27 31 34 35 36
22 16 20 19 26 22 23 21 20 23 24 25 25 23 31 40 36 35 39 42 39 39 37 40 34 32 32 34 24 25 26 29 31 35 38 38 35 36 38 40 40 39 40
19 18 18 18 20 22 23 22 21 22 18 18 21 22 24 26 29 32 33 33 34 33 36 38 36 32 33 32 34 34 32 33 31 36 38 37 39 44 39 37 37 41 46
21 18 17 15 17 18 21 22 22 23 22 21 21 22 23 24 25 26 27 25 27 29 33 34 33 34 35 33 27 28 31 32 33 33 33 35 36 37 42 44 44 41 40
21 21 20 17 16 16 16 15 17 16 16 15 15 15 16 17 17 18 18 21 23 23 23 24 28 32 34 33 36 38 38 39 35 32 32 33 34 36 39 38 40 45 45
19 20 20 17 13 21 19 17 16 13 11 11 12 13 12 11 14 17 17 17 21 23 23 25 27 29 27 27 29 29 30 29 29 31 30 29 26 23 24 28 33 37 38
17 19 19 22 21 19 17 17 17 15 14 18 18 17 18 20 19 19 22 24 25 29 28 27 27 23 28 31 30 29 32 30 30 31 31 43 44 43 42 41 43 45 44
24 25 25 24 23 22 20 20 19 20 22 21 18 20 23 22 22 23 24 24 25 28 32 35 35 37 40 37 34 33 37 43 45 41 39 37 36 34 35 35 36 35 33
27 26 26 25 23 22 21 20 19 22 22 23 25 28 25 22 23 22 19 20 20 19 20 20 23 27 29 30 31 33 31 30 32 31 31 28 25 23 23 22 21 22 22
22 22 22 18 17 18 21 24 24 25 25 25 25 24 27 29 29 29 28 26 23 22 22 23 25 23 25 24 26 25 23 22 19 17 16 13 13 13 8 12 12 15 18

GFSMA_850_spd_111.txt.gz
Wind_Speed
21 22 23 22 24 25 27 27 25 23 22 22 19 19 20 25 27 23 23 20 16 12 16 18 17 17 19 19 19 18 17 17 16 17 16 15 15 15 14 13 12 11 10
21 21 22 22 22 24 21 24 27 25 23 23 21 21 21 26 29 23 23 20 16 13 17 19 19 19 21 20 19 18 18 17 17 17 17 16 16 16 14 12 11 9 8
21 21 23 24 24 24 21 23 23 23 22 22 20 19 18 26 28 25 24 20 18 16 17 15 18 20 21 21 20 19 18 17 18 18 17 17 16 16 14 12 11 10 9
21 22 23 23 24 23 22 23 24 24 22 24 22 21 22 31 29 28 26 22 19 20 20 17 19 20 20 21 21 19 20 18 18 18 18 17 17 15 14 12 11 10 9
21 24 24 24 25 24 23 24 25 25 24 24 23 18 25 30 25 28 27 23 18 22 22 18 20 19 20 19 19 20 20 19 19 18 18 18 18 16 14 13 12 12 12
21 23 23 24 23 23 22 25 27 26 26 24 22 20 27 32 25 30 26 17 18 23 21 22 22 20 18 18 18 19 20 20 19 17 18 18 17 16 15 15 14 12 12
17 22 24 24 24 23 23 25 26 26 26 23 19 23 28 35 28 33 23 20 17 20 21 22 23 23 21 18 17 18 19 21 20 20 19 19 19 18 17 16 15 15 14
17 20 24 24 24 24 26 25 27 25 24 22 24 26 16 30 33 33 24 20 17 17 19 19 21 23 22 22 21 20 18 20 21 20 20 20 19 18 18 17 17 16 16
20 21 23 24 26 27 27 26 25 26 25 26 27 16 20 8 30 34 25 21 18 17 19 19 21 21 22 24 23 21 21 20 22 22 22 21 20 19 19 18 17 16 16
26 24 24 24 25 25 23 25 24 23 22 25 26 40 26 32 32 23 26 23 19 22 20 20 23 23 22 20 21 16 15 17 22 24 23 23 21 21 21 19 18 19 19
30 28 27 26 26 22 21 22 22 21 22 26 32 31 30 35 34 33 28 26 21 24 24 22 17 21 23 19 19 19 17 16 17 22 25 24 24 24 22 21 22 21 20
35 34 30 28 27 22 20 22 20 20 21 27 25 33 36 41 37 34 25 31 32 29 28 29 24 19 20 22 19 19 21 22 20 20 22 25 25 23 22 22 23 22 24
34 37 32 30 27 23 20 23 20 21 24 23 28 37 35 38 38 30 28 26 28 29 32 29 25 24 21 26 24 23 23 24 25 25 24 24 24 25 25 24 23 25 26
34 32 29 28 23 23 21 22 22 20 22 22 29 32 32 30 25 31 31 26 24 30 34 36 34 28 29 22 23 27 27 26 23 23 22 23 25 26 27 26 27 28 29
29 31 28 27 25 24 23 23 26 24 23 23 23 34 38 36 28 29 26 27 28 27 28 29 32 37 34 33 30 30 31 29 26 23 23 25 25 26 27 27 29 31 33
25 24 27 28 25 23 24 22 26 27 28 25 24 25 33 33 33 32 27 27 31 32 32 29 29 24 17 23 28 28 27 28 24 24 26 27 28 28 29 29 27 32 34
26 23 23 26 26 25 23 22 25 28 31 30 29 26 27 34 36 38 32 30 32 32 33 24 29 27 25 24 25 26 28 28 27 24 27 25 25 27 28 28 30 30 30
25 24 24 27 26 24 24 24 25 25 28 27 26 28 24 28 33 36 34 37 35 34 34 37 38 37 33 26 27 21 20 23 23 22 21 26 31 33 37 35 37 34 36
26 25 22 24 24 24 24 24 23 24 24 27 25 27 25 27 30 34 31 32 37 35 37 42 44 34 30 30 27 33 33 29 29 30 29 30 29 31 35 36 38 42 38
25 22 20 22 23 25 21 24 21 20 20 22 21 22 24 24 25 27 30 31 31 30 29 27 30 25 30 30 27 34 28 32 32 26 25 28 30 31 32 34 37 39 43
22 20 17 17 18 20 22 23 22 21 22 20 19 21 22 22 24 24 25 25 23 22 23 23 26 24 24 24 28 29 27 27 28 30 32 33 32 32 32 30 32 34 31
21 22 18 17 21 20 20 20 21 22 21 20 18 16 14 12 13 13 15 16 16 19 22 24 23 23 21 21 20 19 21 24 25 26 27 32 29 24 23 31 34 30 30
24 26 26 23 22 21 20 19 17 16 17 18 17 16 17 16 16 15 15 18 20 21 23 27 26 25 24 26 24 23 25 26 28 27 24 22 25 31 30 24 22 25 26
26 27 27 26 25 24 21 21 21 21 22 24 22 20 20 22 23 22 23 23 23 26 27 29 30 30 29 25 23 27 30 29 27 26 27 26 26 23 21 19 20 21 20
28 29 28 29 29 24 27 28 26 24 24 23 22 20 22 23 24 22 23 26 29 31 34 35 35 37 38 38 37 34 28 26 22 22 20 20 18 17 16 16 17 17 14
19 14 18 15 21 21 24 25 24 25 25 25 26 27 28 28 26 24 24 25 25 24 21 18 19 22 23 23 26 25 23 19 19 16 15 12 11 10 7 9 9 10 12

GFSMA_850_spd_114.txt.gz
Wind_Speed
22 22 23 24 25 25 27 25 25 23 21 18 20 20 19 24 22 22 23 22 19 20 15 15 14 14 16 17 18 18 18 19 18 17 17 16 16 15 14 14 12 11 10
21 22 23 24 25 25 26 25 26 25 24 21 22 21 21 22 22 26 26 27 23 22 16 17 16 16 16 20 20 20 20 19 18 18 17 17 17 16 14 13 12 11 10
21 23 23 24 24 24 24 23 24 24 24 23 23 23 22 25 28 28 30 27 24 23 17 17 19 19 19 20 21 20 19 17 18 19 18 18 17 16 14 13 12 11 10
22 24 24 25 24 24 25 24 23 23 23 24 23 25 25 24 25 25 28 28 27 25 18 18 18 19 21 22 23 21 20 20 20 20 20 18 17 17 16 14 13 11 10
21 24 25 25 25 25 26 25 24 24 25 25 24 24 24 25 25 28 27 31 29 24 21 21 19 20 22 23 23 23 22 20 20 20 20 19 19 18 17 15 14 13 11
23 23 24 25 26 26 27 27 26 26 26 25 24 24 24 26 26 33 31 32 30 25 22 23 21 22 23 23 23 22 21 21 21 21 21 21 20 19 18 17 15 14 13
25 24 25 26 28 29 27 27 27 26 28 25 23 23 21 23 27 33 29 31 30 25 26 24 24 24 23 21 21 21 21 20 22 22 23 21 21 20 19 16 15 15 14
26 26 25 25 28 29 27 26 28 28 27 27 27 20 17 24 31 31 28 32 30 27 27 25 24 25 23 24 22 20 18 19 22 22 21 21 21 20 18 17 16 16 15
25 26 26 26 26 27 28 28 29 29 29 29 29 18 10 12 27 34 31 35 32 27 26 25 24 24 25 24 23 22 20 19 22 22 22 23 21 19 18 18 17 17 16
27 27 26 27 26 27 28 29 31 31 30 30 28 33 30 19 21 17 33 34 32 26 24 20 23 22 25 24 24 24 22 21 20 21 22 22 21 20 19 19 19 18 18
30 29 27 28 28 27 29 28 32 32 31 30 30 31 37 28 29 31 28 37 33 27 22 18 17 21 23 23 22 24 22 19 18 20 23 25 22 22 22 21 20 20 19
33 33 32 31 30 28 29 29 30 28 30 28 26 27 30 37 34 36 34 37 35 30 24 22 24 21 20 23 22 19 20 20 17 15 17 22 25 24 23 21 20 20 19
38 36 37 36 33 30 30 28 28 27 27 24 27 26 34 33 40 40 39 35 30 27 26 28 30 28 22 20 21 19 18 19 18 17 17 19 20 23 23 23 22 21 22
38 36 38 38 34 30 29 26 26 26 23 22 25 29 28 37 40 39 38 33 27 29 29 30 30 31 29 23 22 22 22 20 21 20 20 20 21 22 23 23 23 23 25
30 30 35 39 35 31 27 28 26 26 24 24 25 23 28 36 34 42 36 28 33 24 36 33 32 30 31 29 27 23 25 23 25 23 22 20 20 21 22 23 24 24 26
26 26 30 33 33 31 30 27 26 27 26 26 25 24 27 32 35 36 30 25 29 30 29 32 34 36 35 35 29 30 31 27 21 26 26 25 23 22 23 24 26 27 29
24 23 27 29 32 31 30 29 25 27 27 27 26 25 32 33 34 35 30 27 28 29 32 30 27 27 30 35 36 26 30 32 27 26 27 26 25 25 24 23 23 24 27
28 25 26 27 28 30 29 28 28 27 27 29 29 31 26 29 32 34 32 33 32 32 34 34 32 29 31 32 33 25 28 28 30 30 28 26 21 20 24 26 34 39 40
30 27 25 26 25 27 28 27 26 25 24 28 30 34 32 30 31 31 35 38 40 37 33 32 34 31 32 37 30 32 27 23 20 22 24 23 26 28 27 27 30 31 33
29 27 26 24 22 25 26 25 26 25 25 26 27 28 29 29 28 25 26 27 34 34 34 36 38 38 31 34 37 28 29 32 30 27 31 30 29 27 27 29 30 32 32
30 28 27 25 22 26 26 23 26 26 24 25 24 26 26 25 26 27 26 26 26 25 27 26 29 26 23 24 26 23 25 25 27 26 25 26 27 30 32 35 35 32 32
30 26 25 22 27 27 25 25 24 23 24 24 23 24 21 21 23 23 21 22 25 26 25 24 23 24 23 23 21 20 17 21 24 27 28 28 28 30 31 30 30 26 26
28 23 26 25 26 24 23 22 23 24 24 23 23 25 24 22 20 18 19 20 20 21 22 22 24 24 23 21 20 21 22 23 26 25 24 26 28 29 26 24 26 26 25
31 29 28 26 28 28 23 21 20 21 23 24 23 22 22 21 21 21 19 21 22 22 21 22 24 26 28 28 26 25 27 27 28 30 32 25 24 20 21 19 17 16 16
18 25 27 29 28 28 25 24 25 26 26 27 26 25 26 26 28 25 25 26 26 27 27 28 29 31 31 30 29 27 26 27 30 31 27 25 24 20 17 16 15 14 11
23 16 9 13 13 19 27 29 31 30 32 29 31 30 28 27 25 27 27 29 29 30 32 31 32 35 37 37 38 37 34 29 32 28 25 20 18 17 12 13 10 7 7

GFSMA_850_spd_117.txt.gz
Wind_Speed
23 23 24 24 26 27 25 25 22 21 20 17 16 18 22 18 20 18 17 20 20 17 16 17 13 14 14 15 17 16 18 17 16 17 16 17 16 16 15 14 12 11 9
22 22 23 25 26 27 26 25 24 23 22 20 19 20 22 21 20 24 22 20 23 22 21 19 16 16 15 17 18 18 18 18 17 17 17 16 16 16 15 14 12 10 9
22 22 23 24 26 27 26 25 25 25 24 23 21 21 23 23 23 23 23 23 27 26 23 22 17 17 18 19 20 20 19 18 18 17 17 17 17 16 15 14 13 11 10
23 23 24 24 25 26 26 26 26 26 26 25 23 23 23 24 24 25 27 26 30 31 27 22 20 19 19 19 22 21 20 19 18 18 18 18 18 17 17 15 14 12 11
24 23 24 24 24 26 28 27 27 27 26 26 24 24 24 25 27 26 27 23 30 32 26 26 22 20 19 20 23 22 22 20 19 19 19 19 18 18 18 17 15 13 12
25 23 24 24 25 27 28 28 28 27 26 24 25 25 26 26 26 28 28 25 30 29 26 27 22 21 19 21 23 22 22 21 18 20 19 19 19 19 18 17 16 14 13
26 25 23 25 27 29 30 28 27 27 25 24 23 25 24 22 26 29 28 27 27 31 28 27 24 22 21 23 24 23 21 19 18 19 19 19 19 19 20 18 16 15 13
28 28 26 27 28 29 30 29 28 27 28 27 26 24 14 24 29 25 26 31 24 31 30 27 25 23 25 24 23 22 21 20 18 20 22 21 20 20 20 18 17 15 15
31 30 28 28 29 29 32 30 30 30 27 29 29 23 10 10 15 25 29 29 31 34 32 29 27 25 25 25 24 22 20 19 19 22 22 22 21 20 20 18 18 17 16
34 32 30 30 29 29 30 31 31 31 29 30 29 30 30 17 10 12 26 33 29 34 35 31 29 25 25 24 24 24 22 21 21 20 22 22 22 20 20 18 18 18 18
35 35 33 31 30 31 30 30 28 28 30 31 32 32 30 31 28 22 17 28 33 33 33 30 27 25 25 26 26 25 23 22 20 19 20 21 21 20 20 19 20 19 19
35 36 35 33 31 30 31 29 29 28 30 32 33 33 32 33 35 34 24 31 35 36 34 31 27 24 21 22 23 24 23 23 22 20 19 20 23 23 21 21 21 20 20
36 37 39 37 35 31 30 29 30 32 32 33 33 35 30 31 31 37 33 30 32 34 34 33 28 23 21 21 22 23 22 20 21 19 17 16 18 19 22 23 22 21 22
33 38 40 39 36 32 31 30 30 32 32 33 31 32 27 29 32 36 37 36 29 27 35 31 29 28 27 26 21 20 20 20 20 20 19 17 17 18 20 20 20 22 23
36 36 38 37 38 34 32 33 31 31 29 29 29 27 27 26 31 32 38 39 42 22 31 31 27 31 33 31 27 24 23 24 21 21 22 21 18 18 20 21 22 22 22
40 34 33 37 37 34 33 32 30 26 29 28 27 24 28 25 23 32 33 39 36 32 28 31 28 28 34 31 30 29 26 23 27 28 29 26 23 21 20 21 21 22 23
41 34 31 32 33 33 34 32 30 27 26 27 27 28 28 24 25 32 38 35 34 28 28 27 23 24 32 29 26 28 30 32 32 29 29 27 24 23 24 23 24 25 25
39 34 31 29 30 30 33 32 30 27 27 28 28 28 29 23 29 29 33 37 34 29 28 29 27 24 25 31 32 31 34 34 31 31 32 30 28 25 26 25 26 25 26
34 33 33 30 29 29 30 31 28 27 25 27 28 29 30 29 30 30 30 33 36 32 31 32 31 29 29 28 29 31 35 37 31 28 25 29 33 29 28 26 24 27 28
30 32 32 32 29 27 26 26 27 29 26 25 26 26 29 31 34 31 29 35 38 36 38 35 38 35 33 31 32 35 37 37 32 31 29 25 32 31 29 29 30 31 31
27 30 31 31 28 23 23 25 27 26 26 27 26 27 26 29 31 32 28 31 28 31 33 32 40 35 32 34 36 35 38 40 37 32 29 27 27 31 34 35 32 31 32
25 31 26 31 30 27 26 25 26 27 26 25 26 25 26 25 29 24 24 25 26 27 28 30 30 30 32 27 24 24 24 25 27 28 36 34 29 30 30 31 33 33 32
22 29 29 32 31 28 26 25 26 27 23 26 25 24 24 24 22 23 25 24 21 21 24 24 24 25 25 24 22 23 22 22 24 23 25 32 32 30 30 32 31 30 30
4 15 28 33 29 27 24 23 23 25 28 26 27 27 25 26 24 24 25 24 24 25 25 23 24 24 23 23 22 21 21 22 24 26 27 29 29 27 27 24 24 27 28
22 17 8 16 16 23 26 25 26 26 27 29 29 27 29 27 25 24 24 24 23 24 24 24 24 23 24 24 24 25 28 28 28 31 30 32 31 28 25 23 21 17 18
25 24 22 18 14 5 15 27 27 28 29 30 31 28 28 27 27 27 27 29 29 27 27 27 28 28 29 29 29 30 30 30 33 31 29 27 27 27 18 20 18 18 15

GFSMA_850_spd_120.txt.gz
Wind_Speed
25 24 24 24 24 23 23 23 22 21 21 19 16 15 15 17 15 15 16 15 17 19 18 16 13 12 10 13 17 18 17 18 19 18 18 17 17 17 16 16 14 13 12
24 24 24 25 25 25 24 24 22 22 22 21 19 17 16 17 19 18 19 17 18 20 19 20 17 15 12 12 17 18 18 18 18 17 18 18 18 17 17 16 14 13 12
23 24 25 25 25 25 24 24 23 23 23 23 22 20 19 19 20 21 20 21 20 19 22 25 20 17 14 13 18 19 18 18 18 19 18 17 17 18 17 16 15 13 11
23 24 25 26 25 25 25 25 25 25 26 26 24 23 22 22 22 23 22 22 22 22 25 25 21 20 16 14 18 20 19 20 20 19 19 19 18 19 18 17 15 13 11
26 25 25 25 25 26 26 26 26 26 27 27 26 24 24 24 24 24 24 25 24 25 26 30 27 22 20 17 17 22 22 21 20 19 19 19 18 18 18 17 15 14 12
28 27 25 24 25 27 28 28 27 27 27 25 26 26 25 25 25 25 26 27 25 25 23 33 28 23 22 18 18 24 22 22 19 20 20 20 19 18 18 18 17 14 12
30 29 27 25 26 29 29 27 25 26 25 23 24 25 24 25 26 28 28 28 28 27 25 30 30 27 25 19 20 24 23 22 21 19 20 20 20 19 18 19 17 15 14
30 31 29 28 26 29 30 28 27 26 26 24 25 23 22 23 28 27 26 27 28 23 19 22 30 27 24 23 24 25 25 21 19 18 21 21 20 21 20 20 18 17 16
30 32 32 30 28 28 31 29 29 28 27 27 26 25 9 14 19 25 28 33 27 25 28 23 28 27 23 25 25 25 24 21 19 19 20 21 21 21 21 20 19 19 17
30 33 32 32 31 30 32 31 30 30 30 30 26 28 30 23 12 10 20 24 22 27 30 28 32 28 25 25 27 26 26 23 21 21 20 23 23 22 20 20 20 19 18
39 32 31 32 32 32 32 32 32 34 30 32 32 27 29 33 32 25 16 19 22 27 31 30 36 29 28 27 28 27 26 23 23 24 21 23 22 21 21 20 21 19 18
38 34 32 33 33 34 34 34 33 32 31 30 32 31 30 32 32 31 32 29 29 31 32 36 37 31 29 28 28 26 25 24 23 23 21 21 22 22 21 19 19 20 18
30 30 35 36 36 38 36 34 35 33 31 30 27 30 33 32 32 30 30 31 26 29 34 32 34 31 28 28 28 28 28 27 25 25 23 22 23 23 23 23 22 20 19
34 35 39 39 40 40 38 36 34 34 32 33 32 31 32 33 33 32 31 30 26 27 31 34 38 33 29 26 23 22 24 25 24 24 24 22 21 19 20 20 21 23 22
35 33 35 33 39 42 40 37 35 35 35 33 32 33 33 31 30 28 28 34 33 18 24 32 35 35 31 28 27 23 22 24 25 24 24 23 22 21 20 20 21 22 21
37 43 38 35 36 38 38 36 36 36 35 34 32 32 30 29 27 25 27 29 31 35 25 33 37 33 23 23 31 31 27 24 24 24 25 25 25 23 23 22 23 22 22
37 37 37 37 36 34 34 37 38 36 37 34 27 27 28 26 23 27 22 25 34 39 31 37 33 27 25 24 33 34 28 29 28 27 29 30 29 30 28 26 24 24 25
35 38 39 36 34 32 33 36 39 36 37 34 26 26 28 25 25 24 25 21 32 38 35 28 27 27 27 24 31 31 30 29 28 30 33 32 31 34 33 30 27 28 28
24 29 33 33 34 34 35 35 35 37 36 31 27 25 25 26 27 28 26 24 24 33 33 29 26 25 25 24 30 34 33 30 31 33 35 34 32 33 39 34 33 28 28
18 23 26 31 32 34 36 34 32 37 34 29 26 24 26 26 27 28 28 24 24 27 37 33 34 30 29 28 27 27 29 30 32 34 34 35 30 29 32 39 32 29 29
18 21 22 24 29 33 35 31 27 33 31 28 29 26 24 25 27 28 30 31 27 30 35 38 39 37 37 37 35 35 34 32 35 38 40 40 35 33 31 37 38 33 31
10 15 19 25 27 32 35 31 27 27 26 28 29 28 27 26 25 24 26 27 33 27 33 33 31 35 34 35 40 37 34 36 36 40 42 36 35 34 31 30 34 35 36
11 7 10 17 21 30 38 26 26 25 26 26 29 29 27 26 23 25 24 26 25 24 25 26 28 28 30 28 24 26 30 31 31 31 30 33 34 33 33 34 34 33 33
23 19 10 13 7 12 25 26 29 28 26 26 26 26 28 26 25 24 23 26 27 26 24 24 25 25 25 23 23 22 23 23 23 23 23 29 29 30 32 30 32 32 32
26 28 24 18 18 14 4 20 28 26 25 27 26 29 27 25 25 28 25 30 29 27 26 27 28 28 26 26 25 24 23 23 25 27 27 29 31 30 29 27 25 26 25
27 25 23 24 24 21 19 20 6 19 16 24 27 29 29 31 31 26 25 27 30 29 29 27 27 27 27 25 25 23 23 23 29 31 30 31 31 34 22 24 23 21 17

GFSMA_850_spd_123.txt.gz
Wind_Speed
25 25 25 24 24 23 23 22 22 21 20 18 16 14 13 13 15 14 13 14 14 15 16 18 17 13 12 12 15 20 22 21 20 18 19 18 17 18 18 18 17 16 15
25 24 25 25 25 25 24 23 23 22 21 20 19 17 15 15 15 17 15 16 15 15 16 16 21 15 14 13 15 20 21 21 20 20 19 19 19 18 19 19 17 16 14
26 24 24 25 25 25 25 25 24 23 22 21 21 20 19 17 18 18 18 18 19 18 16 19 21 21 22 16 15 19 19 21 20 21 20 19 19 19 19 19 18 16 14
26 25 25 25 25 25 25 25 24 24 24 24 23 22 22 21 20 21 21 20 20 20 19 18 21 23 21 15 14 18 19 20 19 20 20 21 20 20 19 19 18 16 15
28 26 25 25 25 25 26 26 26 26 26 25 25 24 24 23 22 24 23 23 22 22 21 19 20 24 22 17 15 18 21 21 21 21 20 20 20 20 20 20 18 17 14
31 28 27 26 26 27 27 28 28 28 27 25 24 25 25 25 25 25 24 24 25 24 23 21 21 27 28 22 20 20 22 24 24 22 22 23 21 20 21 21 19 17 16
33 31 31 28 28 30 29 28 28 28 27 24 23 24 25 25 26 25 24 26 27 27 26 24 23 24 33 27 21 21 25 24 25 23 23 23 23 22 21 21 21 19 18
36 34 34 31 30 30 30 30 29 29 27 24 25 23 17 23 26 26 25 26 27 27 26 28 20 23 31 27 23 22 27 26 24 23 25 24 24 23 22 22 22 20 19
36 34 35 35 32 31 31 30 31 29 28 26 27 22 9 14 17 21 26 26 26 27 29 30 19 14 26 29 25 24 28 28 25 21 22 25 23 23 24 22 21 22 21
37 34 36 38 36 32 31 31 30 30 29 30 28 31 30 17 9 10 17 19 22 24 21 22 28 24 30 30 26 26 29 28 25 22 21 22 25 24 23 24 23 23 23
39 38 39 39 35 34 32 32 30 30 33 32 31 32 31 33 30 24 19 17 21 23 21 23 26 27 36 34 30 28 29 28 27 25 24 21 24 25 25 24 24 24 22
32 41 38 36 30 27 31 34 32 31 32 34 33 33 31 28 30 27 29 27 26 28 26 25 25 32 36 36 33 30 29 31 28 26 26 25 24 25 25 23 21 23 23
31 34 42 37 32 29 30 35 36 33 33 35 37 33 33 35 28 30 27 28 29 26 29 28 27 32 36 39 35 30 31 31 28 28 26 26 24 26 25 23 22 19 19
32 30 32 35 36 34 29 34 39 38 35 36 36 36 33 30 30 32 31 28 24 26 28 32 32 34 34 35 34 32 33 32 31 31 28 28 27 26 26 26 26 24 23
34 32 30 34 38 36 39 45 42 40 38 36 35 33 35 34 31 32 33 32 30 19 23 30 36 36 34 35 34 32 33 34 33 31 30 29 29 28 28 27 26 25 25
32 31 30 32 35 39 41 39 35 36 39 37 35 36 37 37 35 34 34 29 29 29 26 28 32 37 36 37 34 33 34 31 31 30 30 28 29 29 28 26 25 24 24
37 34 32 32 37 41 38 34 35 35 37 38 37 38 39 36 35 34 31 28 27 25 27 28 32 34 36 37 34 32 31 35 31 30 30 30 29 29 29 29 29 28 27
21 24 27 30 35 41 43 39 35 37 37 39 40 38 39 34 29 31 28 27 27 24 24 32 31 33 35 34 29 28 29 33 35 30 29 29 30 32 32 33 33 31 29
16 14 20 23 29 31 33 34 34 35 36 39 39 38 39 31 28 31 28 28 26 25 19 30 32 30 36 31 27 29 27 40 36 32 34 35 34 33 35 35 36 38 33
8 13 16 16 19 26 31 34 36 37 36 37 38 36 37 30 28 28 30 31 27 23 22 28 34 30 33 31 27 27 28 34 37 31 30 32 34 37 39 36 35 38 36
5 5 10 16 18 22 30 33 36 37 36 36 38 40 33 29 27 28 29 28 27 26 22 24 30 33 32 32 31 30 29 32 36 35 33 34 38 37 36 37 35 32 42
16 11 6 7 10 17 26 31 33 36 33 36 39 38 31 28 26 26 27 27 29 28 27 26 29 30 36 38 35 34 33 34 35 36 35 36 37 39 41 40 36 36 37
25 21 17 13 9 11 19 29 36 37 37 43 40 33 28 29 28 28 28 27 28 28 29 31 31 30 32 29 31 31 37 42 41 43 42 40 41 36 35 33 35 35 34
30 28 26 24 21 17 16 18 25 30 23 25 22 26 26 28 28 29 29 28 29 29 28 27 28 27 28 26 28 28 26 34 36 36 37 36 35 31 30 28 30 31 32
28 30 28 27 27 26 26 16 7 10 21 20 24 27 27 29 29 29 29 31 31 32 32 32 29 29 30 27 26 25 27 29 29 30 31 30 31 29 27 26 25 26 28
25 26 28 28 27 29 30 28 20 9 5 7 4 10 25 30 31 36 35 32 32 34 32 31 29 30 29 30 28 27 28 27 30 30 31 33 30 34 23 26 26 26 25